Site Date LOGGERID PROGID AIRTEMP_MEAN_150_0_04 AIRTEMP_MEAN_250_0_03 AIRTEMP_MEAN_350_0_02 AIRTEMP_MEAN_450_0_01 AIRTEMP_MEAN_350_0_08 RELHUM_MEAN_150_0_04 RELHUM_MEAN_450_0_01 DEWPT_MEAN_150_0_04 DEWPT_MEAN_450_0_01 SW_IN_MEAN_600_0_01 SW_OUT_MEAN_600_0_01 SOILTEMP_MEAN_0_10_01 SOILTEMP_MEAN_0_20_02 SOILTEMP_MEAN_0_50_03 SOILTEMP_MEAN_0_100_04 BATTERY_INST_0_0_01 AIRTEMP_MAX_150_0_04 AIRTEMP_MAX_250_0_03 AIRTEMP_MAX_350_0_02 AIRTEMP_MAX_450_0_01 AIRTEMP_MAX_350_0_08 DEWPT_MAX_150_0_04 DEWPT_MAX_450_0_01 SW_IN_MAX_600_0_01 SW_OUT_MAX_600_0_01 WSPD_PRO_MAX_1000_0_01 WSPD_SNC_MAX_1000_0_02 AIRTEMP_MIN_150_0_04 AIRTEMP_MIN_250_0_03 AIRTEMP_MIN_350_0_02 AIRTEMP_MIN_450_0_01 AIRTEMP_MIN_350_0_08 DEWPT_MIN_150_0_04 DEWPT_MIN_450_0_01 SNOWDEP_INST_0_0_01 SNOWDEP_MED_0_0_01 SNOWDEP_QUAL SWE_INST_0_0_01 SWE_MED_0_0_01 WSPD_PRO_MEAN_1000_0_01 WDIR_PRO_MEAN_1000_0_01 WDIR_PRO_STDDEV_1000_0_01 WSPD_SNC_MEAN_1000_0_02 WDIR_SNC_MEAN_1000_0_02 WDIR_SNC_STDDEV_1000_0_02 SATVP_MEAN_150_0_04 VAP_MEAN_150_0_04 VPD_MEAN_150_0_04 SATVP_MEAN_450_0_01 VAP_MEAN_450_0_01 VPD_MEAN_450_0_01
WS7MET_125 2018-07-19 20:15:00 125 30483.0 13.750 13.880 13.970 13.920 13.980 78.780 79.520 10.140 10.440 0.00 0.00 17.370 16.550 14.630 11.290 12.910 13.840 13.890 13.980 14.010 14.030 10.210 10.540 0.00 0.00 0.4970   13.670 13.850 13.930 13.840 13.890 10.080 10.330     318     0.3610 328.30 7.42   0.000 0.000 15.727 12.394 3.337 15.902 12.645 3.257
WS7MET_125 2018-07-19 20:10:00 125 30483.0 13.820 13.890 14.000 13.990 13.950 78.630 79.380 10.180 10.490 0.00 0.00 17.370 16.550 14.630 11.290 12.920 13.910 13.930 14.060 14.110 14.030 10.250 10.600 0.00 0.00 0.3920   13.700 13.870 13.970 13.870 13.860 10.100 10.350     318     0.2830 327.30 8.50   0.000 0.000 15.799 12.428 3.376 15.974 12.688 3.294
WS7MET_125 2018-07-19 20:05:00 125 30483.0 13.960 14.020 14.140 14.160 14.080 79.010 79.500 10.400 10.680 0.00 0.00 17.370 16.550 14.630 11.290 12.930 14.040 14.080 14.210 14.320 14.150 10.470 10.830 0.00 0.00 0.3590   13.870 13.950 14.080 14.040 13.980 10.290 10.470     318     0.1620 334.60 11.46   0.000 0.000 15.943 12.612 3.346 16.151 12.850 3.311
WS7MET_125 2018-07-19 20:00:00 125 30483.0 14.110 14.170 14.290 14.290 14.220 78.630 79.070 10.460 10.720 0.00 0.00 17.370 16.550 14.630 11.290 12.930 14.180 14.250 14.350 14.420 14.290 10.550 10.810 0.00 0.00 0.3850   13.970 14.100 14.210 14.180 14.100 10.370 10.620     318     0.1390 314.40 26.01   0.000 0.000 16.099 12.662 3.440 16.288 12.884 3.409
WS7MET_125 2018-07-19 19:55:00 125 30483.0 14.260 14.330 14.460 14.500 14.360 78.080 78.510 10.510 10.820 0.00 0.00 17.360 16.550 14.630 11.290 12.940 14.350 14.440 14.570 14.660 14.460 10.660 11.060 0.00 0.00 0.3140   14.150 14.250 14.370 14.380 14.290 10.360 10.640     318     0.0630 313.70 8.16   0.000 0.000 16.256 12.705 3.563 16.511 12.970 3.548
WS7MET_125 2018-07-19 19:50:00 125 30483.0 14.530 14.590 14.710 14.770 14.580 77.390 77.820 10.640 10.950 1.01 0.00 17.360 16.540 14.630 11.290 12.940 14.660 14.720 14.840 14.930 14.760 10.770 11.030 1.34 0.00 0.7450   14.420 14.450 14.570 14.620 14.400 10.560 10.840     318     0.2350 295.90 22.48   0.000 0.000 16.543 12.815 3.740 16.801 13.083 3.726
WS7MET_125 2018-07-19 19:45:00 125 30483.0 14.740 14.840 14.960 15.030 14.870 76.320 76.360 10.620 10.920 1.48 0.00 17.360 16.540 14.630 11.290 12.950 14.830 14.910 15.060 15.100 15.040 10.720 11.060 2.68 0.00 0.3270   14.620 14.720 14.840 14.860 14.660 10.490 10.810     318     0.0910 318.30 11.53   0.000 0.000 16.769 12.798 3.971 17.085 13.056 4.039
WS7MET_125 2018-07-19 19:40:00 125 30483.0 14.880 15.010 15.160 15.200 15.060 75.680 75.200 10.640 10.860 2.68 0.00 17.360 16.540 14.630 11.290 12.950 14.930 15.100 15.250 15.340 15.190 10.710 10.950 2.68 0.00 0.2740   14.830 14.910 15.060 15.070 14.880 10.540 10.780     318     0.0760 342.00 14.80   0.000 0.000 16.921 12.815 4.115 17.273 13.004 4.284
WS7MET_125 2018-07-19 19:35:00 125 30483.0 15.010 15.210 15.360 15.420 15.270 75.040 74.370 10.630 10.900 3.49 0.00 17.360 16.540 14.620 11.300 12.960 15.100 15.300 15.450 15.510 15.370 10.760 11.010 4.03 0.00 0.2480   14.900 15.100 15.250 15.310 15.170 10.460 10.780     318     0.0320 348.60 12.99   0.000 0.000 17.063 12.807 4.259 17.518 13.039 4.490
WS7MET_125 2018-07-19 19:30:00 125 30483.0 15.110 15.380 15.530 15.540 15.510 74.530 73.490 10.630 10.840 4.03 0.00 17.340 16.540 14.620 11.300 12.970 15.200 15.450 15.600 15.610 15.610 10.730 10.970 4.03 0.00 0.3270   15.070 15.320 15.470 15.440 15.400 10.530 10.570     318     0.0540 322.30 21.76   0.000 0.000 17.173 12.807 4.374 17.654 12.987 4.680
WS7MET_125 2018-07-19 19:25:00 125 30483.0 15.180 15.490 15.650 15.630 15.700 74.310 72.870 10.650 10.800 4.03 0.00 17.340 16.540 14.620 11.300 12.970 15.240 15.530 15.690 15.710 15.840 10.840 10.930 4.03 0.00 0.4250   15.130 15.450 15.600 15.540 15.570 10.410 10.690     318     0.1200 29.74 21.03   0.000 0.000 17.250 12.824 4.432 17.756 12.953 4.817
WS7MET_125 2018-07-19 19:20:00 125 30483.0 15.290 15.540 15.690 15.700 15.650 74.830 73.640 10.860 11.020 4.03 0.00 17.340 16.540 14.620 11.300 12.980 15.370 15.630 15.770 15.820 15.780 11.050 11.220 4.03 0.00 0.4380   15.200 15.460 15.610 15.610 15.550 10.730 10.890     318     0.1370 31.86 21.14   0.000 0.000 17.373 13.004 4.373 17.836 13.144 4.701
WS7MET_125 2018-07-19 19:15:00 125 30483.0 15.440 15.680 15.830 15.830 15.860 74.320 73.090 10.910 11.030 4.76 0.00 17.340 16.540 14.620 11.300 12.980 15.510 15.710 15.860 15.920 16.030 11.010 11.120 5.37 0.00 0.1630   15.340 15.640 15.770 15.750 15.770 10.770 10.930     318     0.0180 85.10 11.88   0.000 0.000 17.541 13.048 4.505 17.985 13.152 4.840
WS7MET_125 2018-07-19 19:10:00 125 30483.0 15.630 15.800 15.960 16.010 15.790 74.250 73.230 11.070 11.230 5.37 0.00 17.340 16.540 14.620 11.300 13.000 15.780 15.910 16.090 16.190 15.840 11.220 11.420 5.37 0.00 0.5550   15.510 15.690 15.840 15.890 15.730 10.980 11.070     318     0.1580 26.83 35.58   0.000 0.000 17.756 13.187 4.572 18.193 13.328 4.870
WS7MET_125 2018-07-19 19:05:00 125 30483.0 15.830 16.090 16.290 16.330 16.050 73.060 71.500 11.030 11.180 5.64 0.00 17.340 16.540 14.620 11.300 13.010 15.920 16.240 16.440 16.470 16.210 11.210 11.460 6.71 0.00 0.2480   15.710 15.940 16.120 16.190 15.900 10.900 11.080     318     0.0470 114.30 19.53   0.000 0.000 17.985 13.152 4.845 18.568 13.284 5.292
WS7MET_125 2018-07-19 19:00:00 125 30483.0 15.920 16.370 16.590 16.590 16.450 72.300 69.920 10.960 11.090 6.71 0.00 17.330 16.540 14.620 11.300 13.020 15.990 16.460 16.700 16.740 16.870 11.230 11.260 6.71 0.00 0.4770   15.850 16.250 16.450 16.430 16.240 10.720 10.770     318     0.1130 62.65 50.11   0.000 0.000 18.088 13.091 5.010 18.878 13.205 5.678
WS7MET_125 2018-07-19 18:55:00 125 30483.0 15.930 16.350 16.620 16.630 16.740 71.230 68.470 10.740 10.810 6.71 0.00 17.320 16.540 14.620 11.300 13.030 15.990 16.460 16.700 16.740 16.980 11.120 11.040 6.71 0.00 1.0190   15.890 16.230 16.520 16.530 16.430 10.590 10.700     318     0.3940 250.90 45.30   0.000 0.000 18.100 12.901 5.207 18.926 12.961 5.967
WS7MET_125 2018-07-19 18:50:00 125 30483.0 16.030 16.300 16.580 16.650 16.480 73.240 70.050 11.260 11.180 6.78 0.00 17.320 16.540 14.620 11.300 13.040 16.190 16.410 16.640 16.740 16.670 11.540 11.480 8.05 0.00 0.5680   15.890 16.240 16.530 16.600 16.270 11.050 10.800     318     0.2130 169.20 28.32   0.000 0.000 18.216 13.355 4.875 18.950 13.284 5.675
WS7MET_125 2018-07-19 18:45:00 125 30483.0 16.230 16.480 16.720 16.790 16.690 72.130 69.510 11.220 11.200 7.92 0.00 17.310 16.540 14.620 11.300 13.050 16.330 16.550 16.770 16.840 16.940 11.410 11.370 8.05 0.00 0.5620   16.160 16.420 16.660 16.740 16.560 11.070 10.860     318     0.1880 209.20 14.95   0.000 0.000 18.450 13.319 5.142 19.119 13.302 5.829
WS7MET_125 2018-07-19 18:40:00 125 30483.0 16.360 16.580 16.800 16.840 16.810 71.540 69.160 11.220 11.170 8.05 0.60 17.300 16.530 14.620 11.300 13.060 16.430 16.640 16.840 16.910 16.990 11.600 11.440 8.05 1.34 0.9340   16.260 16.540 16.770 16.770 16.670 10.930 10.930     318     0.3920 226.80 65.84   0.000 0.000 18.603 13.319 5.295 19.180 13.275 5.915
WS7MET_125 2018-07-19 18:35:00 125 30483.0 16.570 16.700 16.890 16.940 16.820 71.170 68.900 11.340 11.200 9.60 1.34 17.300 16.530 14.630 11.300 13.070 16.740 16.770 16.950 17.050 16.960 11.640 11.580 10.74 1.34 0.8690   16.430 16.640 16.840 16.840 16.690 10.960 10.920     318     0.2410 224.30 59.43   0.000 0.000 18.854 13.426 5.436 19.302 13.302 6.003
WS7MET_125 2018-07-19 18:30:00 125 30483.0 16.840 16.890 17.060 17.130 16.940 70.750 69.670 11.510 11.560 11.88 2.15 17.290 16.530 14.630 11.300 13.090 16.940 16.980 17.150 17.250 17.020 11.690 11.810 13.42 2.68 0.3990   16.700 16.790 16.970 16.940 16.850 11.340 11.350     318     0.0790 109.30 67.85   0.000 0.000 19.180 13.578 5.610 19.536 13.623 5.925
WS7MET_125 2018-07-19 18:25:00 125 30483.0 17.030 17.090 17.270 17.300 17.030 70.310 68.810 11.600 11.530 15.70 3.89 17.290 16.530 14.630 11.300 13.100 17.150 17.180 17.360 17.390 17.160 12.030 11.850 17.45 4.03 0.6730   16.910 16.990 17.160 17.220 16.910 11.320 11.180     318     0.3100 167.90 35.70   0.000 0.000 19.412 13.659 5.763 19.747 13.596 6.159
WS7MET_125 2018-07-19 18:20:00 125 30483.0 17.220 17.300 17.480 17.510 17.290 68.990 68.020 11.490 11.560 17.92 4.03 17.280 16.520 14.630 11.300 13.110 17.320 17.370 17.560 17.590 17.440 11.780 11.810 18.79 4.03 0.4700   17.150 17.190 17.370 17.390 16.960 11.230 11.290     318     0.1690 138.10 56.68   0.000 0.000 19.647 13.560 6.093 20.010 13.623 6.399
WS7MET_125 2018-07-19 18:15:00 125 30483.0 17.480 17.450 17.650 17.630 17.320 68.310 67.550 11.590 11.570 19.39 4.76 17.280 16.520 14.630 11.300 13.120 17.690 17.550 17.770 17.800 17.430 12.130 11.840 20.13 5.37 0.6270   17.280 17.380 17.570 17.450 17.170 11.380 11.260     318     0.1850 161.50 67.00   0.000 0.000 19.973 13.650 6.329 20.163 13.632 6.543
WS7MET_125 2018-07-19 18:10:00 125 30483.0 17.840 17.790 18.000 17.980 17.380 68.080 66.940 11.890 11.760 20.87 5.50 17.270 16.520 14.630 11.300 13.140 18.030 17.960 18.200 18.210 17.690 12.090 11.950 22.81 6.71 1.0190   17.690 17.570 17.790 17.730 17.250 11.650 11.480     318     0.4000 144.70 23.14   0.000 0.000 20.431 13.923 6.522 20.612 13.804 6.814
WS7MET_125 2018-07-19 18:05:00 125 30483.0 18.100 18.180 18.390 18.430 17.770 66.630 64.840 11.810 11.710 24.36 6.71 17.260 16.520 14.630 11.300 13.150 18.340 18.430 18.620 18.650 17.830 12.110 11.860 26.84 6.71 0.5550   17.930 17.970 18.220 18.140 17.720 11.570 11.540     318     0.2320 103.90 49.70   0.000 0.000 20.768 13.850 6.930 21.202 13.759 7.455
WS7MET_125 2018-07-19 18:00:00 125 30483.0 18.410 18.750 18.930 18.770 18.020 64.940 62.850 11.720 11.560 58.17 8.25 17.250 16.520 14.630 11.300 13.170 18.610 19.120 19.260 18.850 18.130 12.310 11.710 162.40 9.39 0.6270   18.210 18.460 18.650 18.580 17.850 11.450 11.380     318     0.2220 51.83 57.88   0.000 0.000 21.176 13.768 7.424 21.658 13.623 8.046
WS7MET_125 2018-07-19 17:55:00 125 30483.0 18.860 19.480 19.630 18.990 18.140 63.500 61.320 11.800 11.400 262.20 11.47 17.250 16.520 14.620 11.300 13.190 19.090 19.770 19.840 19.090 18.400 12.200 11.660 306.00 14.76 0.6210   18.580 19.190 19.340 18.850 17.920 11.170 11.150     318     0.3200 138.10 54.33   0.000 0.000 21.780 13.841 7.950 21.958 13.479 8.493
WS7MET_125 2018-07-19 17:50:00 125 30483.0 19.140 19.780 20.170 19.280 18.210 63.150 60.310 11.980 11.420 313.90 17.78 17.240 16.520 14.630 11.300 13.210 19.300 19.860 20.360 19.570 18.500 12.620 11.750 320.70 21.47 0.6080   19.020 19.700 19.890 19.090 18.030 11.450 11.120     318     0.3650 128.10 19.52   0.000 0.000 22.164 14.006 8.168 22.358 13.497 8.874
WS7MET_125 2018-07-19 17:45:00 125 30483.0 19.360 19.750 20.270 19.530 18.670 62.770 60.550 12.090 11.710 328.80 25.56 17.240 16.510 14.630 11.290 13.230 19.500 19.910 20.410 19.670 18.850 13.220 12.130 334.10 30.86 0.7910   19.230 19.630 20.060 19.430 18.510 11.470 11.400     318     0.3800 96.00 51.20   0.000 0.000 22.470 14.108 8.366 22.709 13.759 8.959
WS7MET_125 2018-07-19 17:40:00 125 30483.0 19.750 20.110 20.180 19.540 18.750 60.520 59.910 11.910 11.560 309.80 36.50 17.230 16.510 14.630 11.290 13.250 19.910 20.220 20.380 19.740 18.930 12.890 11.900 338.20 42.94 0.6930   19.540 19.960 19.930 19.370 18.520 11.100 11.310     318     0.2620 125.80 66.75   0.000 0.000 23.021 13.941 9.089 22.723 13.623 9.110
WS7MET_125 2018-07-19 17:35:00 125 30483.0 19.950 20.260 20.220 19.670 18.930 61.680 60.120 12.390 11.730 347.60 49.25 17.220 16.510 14.630 11.290 13.270 20.080 20.360 20.380 19.840 19.200 13.080 12.830 369.00 56.36 0.9870   19.810 20.120 20.080 19.500 18.580 11.620 11.170     318     0.2960 116.20 33.21   0.000 0.000 23.308 14.389 8.932 22.907 13.777 9.135
WS7MET_125 2018-07-19 17:30:00 125 30483.0 20.060 20.340 20.180 19.660 19.040 59.890 58.800 12.050 11.390 376.60 61.32 17.220 16.510 14.630 11.290 13.300 20.150 20.560 20.410 19.840 19.260 12.700 11.940 383.80 65.75 1.4500   19.950 20.120 19.970 19.500 18.780 11.520 11.050     318     0.4950 112.30 42.64   0.000 0.000 23.467 14.071 9.413 22.893 13.470 9.432
WS7MET_125 2018-07-19 17:25:00 125 30483.0 20.160 20.620 20.460 19.780 19.070 59.540 57.810 12.050 11.250 392.30 69.44 17.210 16.510 14.630 11.290 13.310 20.220 20.780 20.550 19.910 19.380 12.690 11.720 399.90 72.46 1.2410   20.050 20.470 20.230 19.570 18.870 11.590 10.910     318     0.6430 140.30 36.90   0.000 0.000 23.613 14.071 9.554 23.064 13.346 9.731
WS7MET_125 2018-07-19 17:20:00 125 30483.0 20.210 20.400 20.340 19.840 19.190 59.690 57.210 12.130 11.140 408.50 74.48 17.200 16.510 14.630 11.290 13.330 20.350 20.500 20.490 19.980 19.410 12.700 11.790 416.00 76.49 1.4110   20.050 20.290 20.270 19.670 18.980 11.460 10.900     318     0.6920 127.50 38.03   0.000 0.000 23.686 14.145 9.548 23.150 13.249 9.906
WS7MET_125 2018-07-19 17:15:00 125 30483.0 20.610 20.690 20.490 20.060 19.360 58.450 57.090 12.190 11.320 424.00 77.16 17.190 16.510 14.630 11.290 13.340 20.760 20.840 20.620 20.180 19.480 12.710 11.850 432.10 77.83 1.3790   20.390 20.530 20.350 19.980 19.290 11.170 11.000     318     0.7770 147.70 33.93   0.000 0.000 24.278 14.201 10.087 23.467 13.408 10.070
WS7MET_125 2018-07-19 17:10:00 125 30483.0 20.890 21.070 20.830 20.290 19.470 57.240 56.040 12.130 11.260 439.90 78.43 17.190 16.510 14.630 11.290 13.370 21.140 21.250 20.920 20.460 19.690 12.970 11.940 448.20 79.17 1.2810   20.730 20.860 20.670 20.080 19.310 11.140 11.050     318     0.5780 147.30 29.17   0.000 0.000 24.700 14.145 10.562 23.803 13.355 10.464
WS7MET_125 2018-07-19 17:05:00 125 30483.0 21.100 21.520 20.950 20.450 19.790 58.020 55.380 12.530 11.230 455.40 80.40 17.180 16.510 14.630 11.290 13.390 21.170 21.710 21.050 20.530 20.090 13.500 12.270 461.60 81.90 0.8430   21.040 21.200 20.840 20.350 19.660 11.900 10.660     318     0.5600 128.00 18.46   0.000 0.000 25.020 14.522 10.504 24.039 13.328 10.726
WS7MET_125 2018-07-19 17:00:00 125 30483.0 21.160 21.320 20.940 20.520 19.690 56.690 55.030 12.230 11.190 469.80 83.50 17.170 16.510 14.630 11.290 13.410 21.280 21.580 21.050 20.590 19.910 13.090 11.910 477.70 84.50 1.2740   21.070 21.100 20.840 20.390 19.520 11.090 10.740     318     0.5800 128.60 20.94   0.000 0.000 25.113 14.239 10.876 24.143 13.293 10.857
WS7MET_125 2018-07-19 16:55:00 125 30483.0 21.330 21.060 21.020 20.560 19.900 56.820 55.080 12.430 11.240 484.90 89.20 17.160 16.510 14.630 11.290 13.430 21.450 21.340 21.100 20.660 20.130 13.150 11.640 491.10 92.60 0.9020   21.210 20.900 20.940 20.420 19.730 11.570 10.900     318     0.5240 144.10 24.55   0.000 0.000 25.376 14.427 10.957 24.203 13.337 10.872
WS7MET_125 2018-07-19 16:50:00 125 30483.0 21.450 20.920 21.100 20.470 19.860 56.750 53.750 12.530 10.800 499.60 97.60 17.150 16.510 14.630 11.290 13.440 21.550 21.050 21.160 20.530 19.970 13.280 11.220 507.20 102.00 1.2150   21.380 20.800 20.990 20.390 19.720 11.690 10.490     318     0.7100 141.90 30.22   0.000 0.000 25.563 14.522 11.056 24.069 12.953 11.132
WS7MET_125 2018-07-19 16:45:00 125 30483.0 21.620 21.260 21.300 20.650 20.070 54.690 53.640 12.120 10.930 514.50 105.50 17.150 16.510 14.630 11.290 13.450 21.820 21.380 21.390 20.800 20.190 12.680 11.560 522.00 110.00 1.8360   21.450 21.080 21.190 20.530 19.870 10.930 10.520     318     0.8090 143.30 30.77   0.000 0.000 25.830 14.136 11.704 24.338 13.065 11.283
WS7MET_125 2018-07-19 16:40:00 125 30483.0 21.720 21.330 21.680 20.910 20.470 54.670 51.450 12.210 10.540 528.70 114.50 17.140 16.510 14.630 11.290 13.450 21.790 21.440 21.860 21.040 20.900 13.010 11.620 536.70 119.40 1.4440   21.650 21.230 21.440 20.830 20.230 11.170 9.950     318     0.7310 127.40 45.15   0.000 0.000 25.988 14.220 11.781 24.730 12.730 12.006
WS7MET_125 2018-07-19 16:35:00 125 30483.0 21.910 21.310 21.720 20.910 20.400 51.540 49.630 11.470 10.010 543.20 123.60 17.130 16.510 14.630 11.290 13.450 22.030 21.380 21.810 21.000 20.610 12.860 10.690 550.10 127.50 1.5420   21.720 21.260 21.670 20.800 20.230 9.800 9.400     318     0.7270 156.70 35.02   0.000 0.000 26.292 13.542 12.741 24.730 12.287 12.457
WS7MET_125 2018-07-19 16:30:00 125 30483.0 22.050 21.510 21.970 21.220 20.570 53.300 50.310 12.130 10.490 557.20 131.90 17.120 16.510 14.630 11.290 13.430 22.090 21.660 22.190 21.310 20.700 13.170 11.570 563.60 135.50 1.8690   21.920 21.320 21.760 21.070 20.490 10.830 9.930     318     0.6350 148.60 48.07   0.000 0.000 26.517 14.145 12.383 25.205 12.688 12.524
WS7MET_125 2018-07-19 16:25:00 125 30483.0 21.870 21.390 21.770 21.310 20.640 54.040 50.140 12.170 10.520 572.80 140.00 17.110 16.510 14.630 11.290 13.410 21.960 21.540 21.890 21.510 20.900 12.900 11.080 579.70 143.60 1.4830   21.750 21.290 21.710 21.110 20.510 10.900 10.000     318     0.8620 149.00 46.56   0.000 0.000 26.227 14.182 12.054 25.345 12.713 12.637
WS7MET_125 2018-07-19 16:20:00 125 30483.0 21.940 21.320 21.660 21.390 20.530 51.070 50.210 11.360 10.610 586.40 147.10 17.100 16.510 14.630 11.290 13.380 22.230 21.480 21.870 21.480 20.630 12.350 11.420 593.10 150.30 1.6530   21.790 21.190 21.470 21.310 20.330 9.610 9.740     318     0.7510 154.30 71.03   0.000 0.000 26.340 13.444 12.888 25.469 12.790 12.681
WS7MET_125 2018-07-19 16:15:00 125 30483.0 22.870 21.730 22.030 21.610 20.710 47.190 48.170 11.020 10.200 600.70 154.00 17.090 16.510 14.630 11.290 13.380 23.190 22.180 22.300 21.790 20.970 12.940 10.980 607.80 158.30 2.6590   22.330 21.280 21.660 21.480 20.390 9.700 9.760     318     1.1930 206.70 51.21   0.000 0.000 27.871 13.144 14.719 25.814 12.444 13.380
WS7MET_125 2018-07-19 16:10:00 125 30483.0 23.450 22.170 22.220 21.900 20.980 48.430 49.410 11.930 10.840 614.90 162.70 17.080 16.510 14.630 11.290 13.360 23.730 22.480 22.530 22.130 21.430 13.550 12.010 621.30 166.40 1.7440   23.080 21.910 21.960 21.690 20.680 9.970 10.080     318     0.7230 150.60 37.46   0.000 0.000 28.865 13.960 14.886 26.276 12.987 13.293
WS7MET_125 2018-07-19 16:05:00 125 30483.0 24.160 22.380 22.470 22.120 21.240 43.920 47.340 11.120 10.410 627.40 171.40 17.070 16.510 14.630 11.290 13.360 24.310 22.630 22.690 22.300 21.500 12.900 10.980 636.00 175.80 2.3850   23.730 22.150 22.240 21.960 20.920 9.810 10.120     318     0.9630 205.50 66.42   0.000 0.000 30.123 13.231 16.893 26.630 12.620 14.023
WS7MET_125 2018-07-19 16:00:00 125 30483.0 24.070 22.710 22.510 22.200 21.400 48.130 46.890 12.430 10.320 641.50 180.50 17.060 16.510 14.630 11.290 13.330 24.280 22.900 22.650 22.330 21.800 13.260 11.600 648.10 185.20 1.3520   23.900 22.500 22.390 22.060 21.090 11.560 9.500     318     0.8150 105.90 42.65   0.000 0.000 29.961 14.427 15.541 26.760 12.545 14.212
WS7MET_125 2018-07-19 15:55:00 125 30483.0 24.560 23.090 22.790 22.500 21.420 41.530 44.500 10.620 9.830 655.40 189.00 17.060 16.510 14.630 11.290 13.310 24.790 23.380 23.300 22.880 21.850 12.500 11.360 661.50 191.90 2.3520   24.070 22.830 22.510 22.330 21.150 9.370 9.210     318     0.9540 175.70 74.43   0.000 0.000 30.853 12.798 18.040 27.253 12.140 15.125
WS7MET_125 2018-07-19 15:50:00 125 30483.0 24.340 23.080 22.970 22.560 21.890 46.100 45.850 12.020 10.320 668.30 196.60 17.040 16.510 14.630 11.290 13.290 24.690 23.500 23.350 22.980 22.340 13.460 11.390 676.30 199.90 0.6140   24.070 22.580 22.550 22.130 21.330 10.400 9.560     318     0.2320 103.00 51.55   0.000 0.000 30.450 14.043 16.412 27.352 12.545 14.811
WS7MET_125 2018-07-19 15:45:00 125 30483.0 24.290 22.710 22.770 22.340 21.430 44.370 44.670 11.370 9.730 680.30 202.70 17.040 16.510 14.630 11.290 13.270 24.380 23.040 23.030 22.540 21.730 13.100 11.720 685.70 205.30 1.2020   24.110 22.480 22.510 22.160 21.190 9.050 9.170     318     0.7350 123.80 53.74   0.000 0.000 30.359 13.452 16.889 26.989 12.058 14.933
WS7MET_125 2018-07-19 15:40:00 125 30483.0 24.800 23.190 23.130 22.770 21.700 40.880 43.080 10.580 9.590 693.20 208.40 17.020 16.510 14.630 11.290 13.260 25.130 23.480 23.500 22.980 21.990 12.220 10.830 701.80 212.00 1.5550   24.310 22.760 22.840 22.540 21.480 8.800 8.920     318     0.8630 157.10 54.81   0.000 0.000 31.298 12.764 18.504 27.703 11.945 15.768
WS7MET_125 2018-07-19 15:35:00 125 30483.0 25.130 23.430 23.430 22.800 21.940 43.020 42.700 11.660 9.480 705.60 213.70 17.020 16.510 14.630 11.290 13.260 25.400 23.540 23.520 23.020 22.210 13.260 10.070 711.10 216.00 1.9530   24.930 23.370 23.380 22.670 21.700 9.830 8.750     318     0.7590 182.40 57.01   0.000 0.000 31.920 13.713 18.188 27.753 11.857 15.902
WS7MET_125 2018-07-19 15:30:00 125 30483.0 25.440 23.900 23.950 23.210 22.260 42.520 43.630 11.760 10.170 716.20 217.50 17.010 16.510 14.630 11.290 13.260 25.570 24.040 24.130 23.360 22.440 14.010 11.540 721.90 220.00 1.8230   25.230 23.590 23.570 23.080 22.060 9.260 8.970     318     0.7370 174.90 38.25   0.000 0.000 32.513 13.804 18.689 28.450 12.419 16.037
WS7MET_125 2018-07-19 15:25:00 125 30483.0 25.190 23.680 23.420 22.910 22.390 42.300 44.730 11.440 10.260 727.70 221.50 17.000 16.510 14.630 11.290 13.260 25.570 23.960 23.730 23.150 22.990 13.940 12.320 732.60 222.70 2.3450   24.960 23.420 23.190 22.780 21.970 8.930 9.230     318     0.9060 158.80 49.84   0.000 0.000 32.034 13.515 18.484 27.938 12.494 15.442
WS7MET_125 2018-07-19 15:20:00 125 30483.0 25.610 23.640 23.550 22.940 22.270 43.360 44.440 12.200 10.210 738.30 225.40 16.990 16.510 14.630 11.290 13.260 25.920 23.690 23.700 23.120 22.490 14.040 10.710 743.40 226.80 2.1560   25.400 23.540 23.410 22.780 22.070 9.770 9.360     318     0.9780 150.60 55.11   0.000 0.000 32.843 14.211 18.602 27.989 12.453 15.551
WS7MET_125 2018-07-19 15:15:00 125 30483.0 26.040 23.640 23.710 23.080 22.290 42.150 43.980 12.190 10.170 749.20 229.30 16.990 16.510 14.630 11.290 13.250 26.290 23.890 23.980 23.290 22.490 14.310 11.470 754.10 230.80 2.2610   25.850 23.450 23.360 22.850 22.140 10.290 9.740     318     1.1330 112.50 62.15   0.000 0.000 33.690 14.201 19.489 28.227 12.419 15.813
WS7MET_125 2018-07-19 15:10:00 125 30483.0 26.850 24.360 24.690 23.700 22.660 40.780 42.380 12.370 10.180 760.50 232.70 16.980 16.510 14.630 11.290 13.260 27.040 24.800 25.070 24.070 22.940 13.960 10.880 766.20 233.50 2.4760   26.390 23.580 23.960 23.150 22.220 9.510 9.180     318     1.1780 170.40 24.21   0.000 0.000 35.336 14.370 20.926 29.302 12.428 16.884
WS7MET_125 2018-07-19 15:05:00 125 30483.0 26.930 24.690 24.890 23.780 22.930 41.050 43.850 12.570 10.750 769.80 235.60 16.980 16.510 14.640 11.290 13.260 27.040 24.870 25.070 24.070 23.170 14.230 12.650 774.20 236.20 1.3720   26.840 24.490 24.720 23.560 22.820 10.450 10.040     318     0.4440 178.90 44.44   0.000 0.000 35.502 14.560 20.929 29.444 12.910 16.533
WS7MET_125 2018-07-19 15:00:00 125 30483.0 26.890 24.620 24.740 23.710 22.930 42.200 44.020 12.940 10.750 780.10 238.90 16.980 16.510 14.640 11.290 13.280 27.010 24.880 24.930 23.870 23.430 15.930 11.880 785.00 240.20 1.3790   26.770 24.490 24.590 23.560 22.670 10.090 9.800     318     0.5260 125.10 57.04   0.000 0.000 35.419 14.918 20.472 29.320 12.910 16.413
WS7MET_125 2018-07-19 14:55:00 125 30483.0 27.010 24.490 24.580 23.530 22.950 42.280 46.560 13.090 11.430 789.10 242.10 16.970 16.510 14.640 11.290 13.290 27.140 24.590 24.700 23.730 23.250 14.270 13.060 795.70 244.20 1.5480   26.800 24.330 24.380 23.360 22.740 10.280 10.720     318     0.8600 149.30 32.14   0.000 0.000 35.670 15.065 20.588 29.004 13.506 15.500
WS7MET_125 2018-07-19 14:50:00 125 30483.0 26.870 24.410 24.820 23.630 22.640 44.170 45.190 13.650 11.080 801.00 245.60 16.950 16.510 14.640 11.290 13.300 27.040 24.490 24.880 23.730 22.770 14.760 11.770 806.00 246.90 1.0980   26.730 24.300 24.590 23.530 22.380 11.900 10.610     318     0.7090 142.40 28.49   0.000 0.000 35.378 15.625 19.751 29.179 13.196 15.993
WS7MET_125 2018-07-19 14:45:00 125 30483.0 26.810 24.460 24.650 23.590 22.760 44.030 45.280 13.560 11.070 810.00 248.90 16.950 16.510 14.640 11.290 13.320 26.910 24.590 24.780 23.700 23.050 14.710 11.870 815.00 249.60 1.6330   26.670 24.360 24.500 23.390 22.390 12.330 10.600     318     0.7240 145.10 18.88   0.000 0.000 35.253 15.534 19.731 29.109 13.187 15.929
WS7MET_125 2018-07-19 14:40:00 125 30483.0 27.060 24.790 24.750 23.830 23.100 41.350 45.200 12.790 11.260 818.00 251.80 16.940 16.510 14.640 11.290 13.320 27.180 25.040 24.990 24.070 23.530 14.620 12.690 824.00 253.60 1.2090   26.800 24.400 24.490 23.530 22.640 10.380 10.450     318     0.5800 161.20 73.96   0.000 0.000 35.774 14.772 20.982 29.532 13.355 16.184
WS7MET_125 2018-07-19 14:35:00 125 30483.0 26.910 24.750 24.680 23.640 22.940 43.750 45.770 13.520 11.280 828.00 254.70 16.930 16.510 14.640 11.290 13.340 27.010 25.120 25.040 24.040 23.210 15.020 12.280 833.00 256.30 2.7310   26.770 24.580 24.510 23.390 22.790 10.350 10.660     318     0.8550 154.50 25.53   0.000 0.000 35.461 15.494 19.947 29.197 13.372 15.833
WS7MET_125 2018-07-19 14:30:00 125 30483.0 26.850 24.950 25.150 23.980 23.290 44.290 46.940 13.640 11.970 836.00 257.10 16.930 16.510 14.640 11.290 13.360 27.080 25.170 25.300 24.240 23.550 14.930 12.910 841.00 257.60 1.2150   26.670 24.720 24.960 23.800 23.120 11.070 11.160     318     0.5720 163.10 49.30   0.000 0.000 35.336 15.615 19.686 29.800 13.997 15.812
WS7MET_125 2018-07-19 14:25:00 125 30483.0 26.360 24.630 24.660 23.840 23.310 45.970 47.660 13.790 12.070 843.00 259.70 16.920 16.510 14.640 11.290 13.360 26.600 24.920 24.980 24.010 23.820 15.800 13.090 847.00 261.70 1.3200   26.120 24.460 24.400 23.660 22.980 12.080 11.520     318     0.6780 138.80 53.42   0.000 0.000 34.332 15.768 18.550 29.550 14.089 15.467
WS7MET_125 2018-07-19 14:20:00 125 30483.0 25.860 24.380 24.590 23.720 22.990 47.330 47.210 13.790 11.830 851.00 262.10 16.910 16.510 14.640 11.290 13.360 26.150 24.580 24.760 23.870 23.170 15.260 12.420 855.00 263.00 1.9340   25.710 24.120 24.460 23.600 22.700 11.590 11.420     318     0.8600 134.10 59.36   0.000 0.000 33.333 15.768 17.556 29.338 13.868 15.487
WS7MET_125 2018-07-19 14:15:00 125 30483.0 25.790 24.280 24.590 23.640 22.640 46.100 46.760 13.300 11.600 856.00 263.50 16.910 16.510 14.640 11.290 13.350 26.090 24.590 24.680 23.870 23.330 14.930 12.120 860.00 264.30 1.6660   25.300 24.090 24.430 23.460 22.350 11.490 11.220     318     0.8720 175.80 67.30   0.000 0.000 33.195 15.273 17.892 29.197 13.659 15.544
WS7MET_125 2018-07-19 14:10:00 125 30483.0 25.250 24.110 24.260 23.830 22.900 44.860 46.910 12.410 11.830 866.00 267.00 16.900 16.510 14.640 11.290 13.380 25.540 24.430 24.620 23.940 23.730 14.350 12.560 871.00 268.40 1.8690   25.060 23.890 24.020 23.700 22.340 11.100 11.150     318     1.1440 200.70 39.16   0.000 0.000 32.148 14.408 17.727 29.532 13.868 15.679
WS7MET_125 2018-07-19 14:05:00 125 30483.0 26.090 24.220 24.400 23.700 22.650 43.690 47.180 12.760 11.800 872.00 269.00 16.900 16.520 14.640 11.290 13.380 26.700 24.490 24.670 23.800 23.010 14.350 12.370 875.00 271.10 2.3320   25.610 24.020 24.150 23.600 22.480 11.220 11.320     318     1.3330 172.30 72.97   0.000 0.000 33.789 14.743 19.027 29.302 13.841 15.478
WS7MET_125 2018-07-19 14:00:00 125 30483.0 26.700 24.670 24.680 23.650 22.970 45.020 47.410 13.770 11.820 880.00 271.50 16.890 16.530 14.650 11.290 13.390 26.870 24.800 24.880 23.870 23.270 15.550 12.410 883.00 272.40 2.4570   26.390 24.500 24.380 23.390 22.690 11.290 11.360     318     0.8230 178.80 48.58   0.000 0.000 35.026 15.748 19.257 29.214 13.859 15.364
WS7MET_125 2018-07-19 13:55:00 125 30483.0 25.890 24.590 24.500 23.570 22.960 48.740 48.280 14.280 12.030 885.00 273.10 16.890 16.530 14.650 11.290 13.390 26.330 24.680 24.660 23.660 23.170 15.700 12.760 890.00 275.10 1.3000   25.510 24.490 24.380 23.490 22.700 12.370 11.420     318     0.7260 131.00 34.43   0.000 0.000 33.392 16.277 17.117 29.074 14.052 15.037
WS7MET_125 2018-07-19 13:50:00 125 30483.0 24.950 24.160 24.170 23.460 22.790 51.080 49.410 14.120 12.280 891.00 274.90 16.880 16.530 14.650 11.290 13.390 25.470 24.500 24.460 23.700 22.990 15.170 12.970 895.00 275.10 2.6850   24.480 23.850 23.820 23.220 22.480 11.750 11.830     318     1.0520 160.40 43.81   0.000 0.000 31.580 16.110 15.449 28.882 14.286 14.611
WS7MET_125 2018-07-19 13:45:00 125 30483.0 24.950 24.080 23.980 23.670 22.350 45.850 48.760 12.460 12.260 896.00 277.00 16.870 16.530 14.650 11.290 13.390 25.610 25.000 24.830 24.110 23.450 15.000 13.250 900.00 277.80 2.2800   24.450 23.760 23.680 23.320 21.920 11.460 11.920     318     1.0200 208.50 67.19   0.000 0.000 31.580 14.456 17.100 29.250 14.267 14.988
WS7MET_125 2018-07-19 13:40:00 125 30483.0 25.750 24.850 24.890 24.190 22.940 45.120 48.230 12.960 12.570 902.00 278.90 16.860 16.530 14.650 11.290 13.380 25.950 25.120 25.200 24.380 23.760 14.890 14.280 904.00 280.50 1.7120   25.510 24.670 24.670 23.970 22.490 11.720 11.750     318     0.7740 227.90 60.36   0.000 0.000 33.116 14.937 18.174 30.177 14.560 15.623
WS7MET_125 2018-07-19 13:35:00 125 30483.0 25.870 24.660 24.720 23.960 23.000 44.960 48.510 13.020 12.460 905.00 279.80 16.860 16.530 14.650 11.290 13.380 26.050 24.930 25.070 24.110 23.300 15.160 13.090 907.00 280.50 2.1430   25.780 24.410 24.430 23.800 22.720 11.850 11.840     318     0.6270 207.80 46.07   0.000 0.000 33.353 14.996 18.357 29.764 14.456 15.325
WS7MET_125 2018-07-19 13:30:00 125 30483.0 25.640 24.560 24.610 23.860 22.910 47.990 47.760 13.800 12.120 911.00 281.70 16.860 16.530 14.650 11.290 13.380 26.050 24.880 24.860 24.010 23.580 15.040 13.610 917.00 283.10 1.8880   25.370 24.410 24.450 23.730 22.660 11.380 11.490     318     0.8350 152.10 49.54   0.000 0.000 32.901 15.778 17.112 29.586 14.136 15.456
WS7MET_125 2018-07-19 13:25:00 125 30483.0 25.220 24.430 24.540 23.860 22.570 45.970 46.170 12.740 11.610 914.00 282.90 16.850 16.530 14.650 11.290 13.390 25.440 24.680 24.800 24.110 23.050 14.580 12.240 917.00 284.50 1.7840   24.990 24.300 24.330 23.700 22.060 11.190 11.170     318     1.1550 190.70 43.15   0.000 0.000 32.091 14.724 17.339 29.586 13.668 15.926
WS7MET_125 2018-07-19 13:20:00 125 30483.0 25.860 24.870 24.980 24.390 22.930 42.950 43.390 12.270 11.160 920.00 285.30 16.840 16.530 14.650 11.290 13.390 26.150 25.310 25.390 24.650 23.730 15.440 12.050 926.00 287.20 2.2080   25.370 24.370 24.540 24.070 22.230 10.620 10.660     318     0.9400 216.60 36.25   0.000 0.000 33.333 14.276 19.016 30.541 13.266 17.289
WS7MET_125 2018-07-19 13:15:00 125 30483.0 26.410 24.860 24.940 24.560 23.320 38.960 42.730 11.300 11.070 927.00 288.20 16.840 16.530 14.650 11.280 13.380 27.250 25.170 25.230 24.720 24.110 13.540 12.430 930.00 289.90 1.6200   25.750 24.700 24.720 24.410 22.680 9.250 9.840     318     0.6810 264.90 43.22   0.000 0.000 34.433 13.390 21.018 30.853 13.187 17.670
WS7MET_125 2018-07-19 13:10:00 125 30483.0 28.510 25.600 25.430 24.450 23.690 34.930 41.310 11.510 10.460 925.00 287.60 16.840 16.530 14.650 11.280 13.520 29.090 25.900 25.630 24.590 24.340 15.210 11.280 929.00 288.50 2.0840   27.380 24.830 25.000 24.310 22.840 9.910 8.860     318     1.0730 199.10 56.29   0.000 0.000 38.931 13.578 25.332 30.651 12.662 17.989
WS7MET_125 2018-07-19 13:05:00 125 30483.0 28.770 25.840 25.710 24.390 23.720 32.620 34.190 10.710 7.600 931.00 289.80 16.830 16.540 14.650 11.280 14.080 28.990 26.020 25.850 24.550 23.950 12.760 9.260 938.00 291.20 1.4960   28.540 25.640 25.550 24.240 23.350 7.356 6.381     318     0.8400 144.40 34.51   0.000 0.000 39.522 12.875 26.630 30.541 10.438 20.099
WS7MET_125 2018-07-19 13:00:00 125 30483.0 28.160 25.800 25.500 24.290 23.600 38.280 38.090 12.600 9.100 937.00 292.30 16.820 16.540 14.650 11.280 14.090 28.710 25.940 25.640 24.410 23.770 13.880 10.940 941.00 293.90 1.1110   27.490 25.700 25.330 24.140 23.440 10.540 8.010     318     0.6810 164.90 31.63   0.000 0.000 38.148 14.589 23.545 30.359 11.558 18.795
WS7MET_125 2018-07-19 12:55:00 125 30483.0 26.710 25.680 25.640 24.510 23.860 43.760 38.760 13.330 9.570 939.00 292.80 16.820 16.540 14.650 11.280 14.100 27.450 25.820 25.870 24.720 24.260 15.200 11.180 943.00 293.90 1.2540   26.020 25.380 25.390 24.350 23.590 10.740 9.010     318     0.8310 159.30 29.67   0.000 0.000 35.047 15.303 19.710 30.761 11.929 18.838
WS7MET_125 2018-07-19 12:50:00 125 30483.0 25.800 24.780 24.940 24.090 23.140 40.790 40.620 11.390 9.900 939.00 291.90 16.820 16.540 14.650 11.280 14.090 26.090 25.310 25.430 24.380 23.720 14.420 10.930 945.00 293.90 1.1500   25.640 24.460 24.630 23.830 22.680 9.200 9.340     318     0.4280 161.90 46.76   0.000 0.000 33.215 13.470 19.666 29.997 12.197 17.812
WS7MET_125 2018-07-19 12:45:00 125 30483.0 25.890 24.830 24.880 23.980 23.340 41.160 40.970 11.610 9.920 937.00 290.90 16.820 16.540 14.650 11.290 14.140 26.120 24.950 25.070 24.140 23.490 14.510 11.320 942.00 292.50 1.8030   25.540 24.590 24.540 23.700 23.060 9.030 9.210     318     0.8880 200.30 45.10   0.000 0.000 33.392 13.668 19.648 29.800 12.213 17.591
WS7MET_125 2018-07-19 12:40:00 125 30483.0 25.070 24.170 24.060 23.430 22.700 44.360 43.850 12.020 10.440 936.00 290.20 16.810 16.550 14.650 11.290 14.130 25.400 24.570 24.540 23.660 23.310 14.910 11.720 941.00 291.20 1.4310   24.890 23.870 23.790 23.250 22.060 9.120 9.340     318     0.9140 146.60 46.10   0.000 0.000 31.806 14.043 17.697 28.830 12.645 16.188
WS7MET_125 2018-07-19 12:35:00 125 30483.0 25.010 23.850 23.790 23.190 22.420 42.720 43.860 11.420 10.230 936.00 289.90 16.800 16.550 14.650 11.290 14.140 25.270 24.320 24.160 23.460 22.900 14.290 11.410 938.00 291.20 1.6270   24.820 23.620 23.580 23.020 22.050 9.600 9.520     318     0.8620 186.70 74.09   0.000 0.000 31.693 13.497 18.154 28.415 12.469 15.952
WS7MET_125 2018-07-19 12:30:00 125 30483.0 25.360 24.340 24.300 23.520 22.890 44.480 42.720 12.290 10.140 932.00 289.00 16.800 16.560 14.650 11.290 14.120 25.610 24.620 24.600 23.800 23.420 15.430 11.790 938.00 291.20 3.4890   25.060 23.830 23.810 23.220 22.310 9.350 9.530     318     1.3580 185.10 43.63   0.000 0.000 32.359 14.295 17.966 28.987 12.394 16.604
WS7MET_125 2018-07-19 12:25:00 125 30483.0 25.620 24.320 24.380 23.910 22.740 37.700 39.810 10.080 9.430 938.00 291.10 16.800 16.560 14.650 11.290 14.130 26.090 24.770 24.660 24.310 23.370 13.750 10.430 943.00 292.50 1.2150   25.060 23.870 24.110 23.660 22.330 8.530 8.650     318     0.5660 225.60 76.80   0.000 0.000 32.862 12.345 20.473 29.675 11.818 17.861
WS7MET_125 2018-07-19 12:20:00 125 30483.0 26.320 24.890 24.790 24.040 23.500 40.320 39.400 11.650 9.400 937.00 290.60 16.800 16.560 14.650 11.290 14.120 26.460 25.310 25.280 24.350 24.220 14.570 10.310 942.00 292.50 2.5090   26.150 24.600 24.460 23.830 22.780 8.230 8.590     318     0.9960 182.50 67.31   0.000 0.000 34.251 13.704 20.441 29.907 11.794 18.124
WS7MET_125 2018-07-19 12:15:00 125 30483.0 27.000 24.880 24.650 23.930 22.930 34.830 38.150 10.070 8.800 938.00 290.70 16.790 16.560 14.650 11.290 14.130 27.520 25.280 25.060 24.040 23.710 13.190 10.700 943.00 292.50 2.0380   26.530 24.710 24.400 23.830 22.380 7.624 7.264     318     0.9510 207.10 66.07   0.000 0.000 35.649 12.336 23.232 29.710 11.326 18.376
WS7MET_125 2018-07-19 12:10:00 125 30483.0 26.940 25.040 24.730 23.830 23.300 38.340 36.090 11.530 7.902 934.00 288.80 16.790 16.560 14.650 11.290 14.130 27.490 25.280 24.970 23.970 23.600 13.120 9.370 943.00 291.20 1.7380   26.560 24.660 24.460 23.700 22.660 8.420 6.936     318     0.9360 147.40 35.63   0.000 0.000 35.523 13.596 21.904 29.532 10.656 18.874
WS7MET_125 2018-07-19 12:05:00 125 30483.0 27.080 24.990 24.700 23.750 23.220 35.830 36.360 10.550 7.944 931.00 287.70 16.790 16.570 14.650 11.290 14.160 27.420 25.160 24.970 23.900 23.600 12.790 9.140 935.00 289.90 1.7120   26.630 24.620 24.400 23.630 22.480 7.575 6.951     318     0.9220 172.10 46.09   0.000 0.000 35.816 12.739 22.983 29.391 10.686 18.704
WS7MET_125 2018-07-19 12:00:00 125 30483.0 25.840 24.480 24.360 23.430 22.780 41.810 36.470 11.890 7.705 933.00 288.50 16.790 16.570 14.660 11.290 14.160 26.560 24.890 24.670 23.630 23.320 13.590 8.740 935.00 288.50 1.4370   25.200 24.090 24.060 23.250 22.190 9.680 6.162     318     0.8790 141.80 16.05   0.000 0.000 33.293 13.923 19.373 28.830 10.513 18.316
WS7MET_125 2018-07-19 11:55:00 125 30483.0 25.470 24.020 24.100 23.420 22.460 31.950 31.240 7.448 5.440 934.00 289.10 16.790 16.570 14.660 11.290 14.160 25.680 24.140 24.220 23.660 22.640 11.200 7.611 937.00 289.90 1.5550   25.130 23.880 23.970 23.320 22.260 5.592 3.866     318     0.7550 181.30 96.50   0.000 0.000 32.571 10.330 22.165 28.812 8.994 19.811
WS7MET_125 2018-07-19 11:50:00 125 30483.0 26.100 24.020 24.100 23.250 22.490 34.920 34.500 9.280 6.728 929.00 287.30 16.780 16.570 14.650 11.290 14.160 26.600 24.210 24.250 23.490 22.860 12.540 8.230 931.00 288.50 1.7770   25.640 23.810 23.920 23.020 22.160 5.943 5.298     318     1.2200 172.40 53.61   0.000 0.000 33.809 11.699 22.003 28.519 9.832 18.680
WS7MET_125 2018-07-19 11:45:00 125 30483.0 26.770 24.060 24.250 23.200 22.300 35.140 35.220 10.000 6.979 923.00 285.20 16.780 16.580 14.660 11.290 14.160 26.970 24.170 24.380 23.290 22.530 12.230 8.090 927.00 287.20 1.9010   26.530 23.940 24.160 23.050 22.070 6.681 5.219     318     1.0090 162.50 25.30   0.000 0.000 35.170 12.279 22.812 28.433 10.004 18.419
WS7MET_125 2018-07-19 11:40:00 125 30483.0 27.200 24.360 24.270 23.220 22.470 34.510 39.730 10.090 8.760 918.00 284.00 16.780 16.580 14.660 11.290 14.160 27.790 24.630 24.380 23.430 22.850 14.430 11.570 921.00 284.50 1.2610   26.630 24.180 24.100 23.050 22.280 7.175 7.369     318     0.7190 189.30 48.96   0.000 0.000 36.069 12.353 23.622 28.467 11.295 17.157
WS7MET_125 2018-07-19 11:35:00 125 30483.0 27.750 24.690 24.290 23.050 22.390 40.480 43.490 13.080 9.970 911.00 281.80 16.780 16.590 14.660 11.280 14.160 27.930 24.930 24.380 23.320 22.690 15.690 11.640 915.00 283.20 1.2610   27.550 24.440 24.180 22.740 22.020 11.180 8.990     318     0.8170 146.20 35.32   0.000 0.000 37.247 15.055 22.170 28.176 12.254 15.922
WS7MET_125 2018-07-19 11:30:00 125 30483.0 27.700 24.740 24.320 23.320 22.740 41.070 43.100 13.240 10.090 907.00 280.20 16.770 16.590 14.660 11.290 14.160 28.000 24.960 24.480 23.430 23.020 15.190 11.240 913.00 281.80 1.9270   27.350 24.610 24.180 23.250 22.550 9.800 8.530     318     0.9000 163.50 41.77   0.000 0.000 37.139 15.213 21.886 28.639 12.353 16.296
WS7MET_125 2018-07-19 11:25:00 125 30483.0 26.810 24.720 24.180 23.250 22.620 44.070 44.310 13.520 10.430 903.00 279.30 16.770 16.590 14.660 11.280 14.160 27.350 24.930 24.400 23.360 22.990 15.830 12.080 907.00 280.50 1.2280   26.120 24.510 23.960 23.150 22.240 11.690 9.470     318     0.7880 118.60 23.90   0.000 0.000 35.253 15.494 19.717 28.519 12.637 15.882
WS7MET_125 2018-07-19 11:20:00 125 30483.0 25.520 24.380 24.230 23.490 22.460 50.060 46.000 14.350 11.230 895.00 276.50 16.770 16.590 14.660 11.280 14.180 26.020 24.480 24.340 23.700 23.220 15.760 12.040 898.00 277.80 1.4110   25.060 24.220 23.990 23.190 22.030 12.850 10.590     318     0.8210 135.90 32.82   0.000 0.000 32.668 16.351 16.314 28.934 13.328 15.625
WS7MET_125 2018-07-19 11:15:00 125 30483.0 24.720 23.530 23.510 22.890 22.440 47.110 47.300 12.670 11.090 891.00 275.20 16.770 16.590 14.660 11.280 14.190 24.960 24.160 24.120 23.490 23.270 14.500 12.530 898.00 277.80 1.8100   24.450 23.120 23.140 22.570 21.910 10.040 10.260     318     0.8600 180.80 78.22   0.000 0.000 31.149 14.656 16.475 27.905 13.205 14.706
WS7MET_125 2018-07-19 11:10:00 125 30483.0 24.550 23.440 23.340 22.670 21.640 41.860 44.130 10.670 9.850 883.00 272.30 16.770 16.590 14.660 11.280 14.190 24.860 23.590 23.460 22.850 22.020 13.710 11.160 888.00 273.80 1.8420   24.280 23.190 23.120 22.540 21.330 8.350 8.610     318     0.7960 198.70 70.33   0.000 0.000 30.835 12.841 17.927 27.535 12.156 15.384
WS7MET_125 2018-07-19 11:05:00 125 30483.0 25.080 23.510 23.420 22.650 21.630 37.490 39.410 9.520 8.140 881.00 271.60 16.780 16.590 14.660 11.280 14.190 25.570 23.940 23.860 22.880 22.330 11.860 10.350 888.00 273.80 2.2740   24.820 23.230 23.140 22.500 21.310 7.386 7.404     318     0.9740 159.20 60.43   0.000 0.000 31.825 11.889 19.894 27.502 10.830 16.663
WS7MET_125 2018-07-19 11:00:00 125 30483.0 25.320 23.850 23.720 22.780 22.160 48.220 46.170 13.550 10.620 877.00 269.50 16.780 16.590 14.660 11.280 14.140 25.680 24.120 23.990 22.950 22.560 15.350 11.890 883.00 271.10 1.8420   25.100 23.540 23.450 22.640 21.860 9.530 9.260     318     0.7490 168.50 45.80   0.000 0.000 32.282 15.524 16.716 27.719 12.798 14.921
WS7MET_125 2018-07-19 10:55:00 125 30483.0 24.880 23.670 23.520 22.660 21.960 48.920 49.400 13.370 11.530 868.00 266.30 16.780 16.600 14.660 11.280 14.090 25.170 23.780 23.750 22.780 22.400 15.450 13.070 871.00 267.10 1.0980   24.590 23.520 23.240 22.540 21.680 11.270 10.730     318     0.5840 148.80 61.38   0.000 0.000 31.448 15.343 16.064 27.518 13.596 13.924
WS7MET_125 2018-07-19 10:50:00 125 30483.0 24.890 23.650 23.540 22.780 22.390 50.140 50.250 13.780 11.910 866.00 265.10 16.790 16.610 14.660 11.280 14.070 24.990 23.940 23.770 22.950 23.050 15.660 13.160 871.00 267.10 1.6140   24.760 23.350 23.270 22.610 21.760 11.170 10.860     318     0.6870 206.40 29.68   0.000 0.000 31.467 15.758 15.689 27.719 13.941 13.790
WS7MET_125 2018-07-19 10:45:00 125 30483.0 24.370 23.500 23.360 22.490 21.790 54.240 52.610 14.480 12.330 858.00 262.30 16.790 16.610 14.660 11.280 14.060 24.790 23.750 23.650 22.640 22.080 16.000 13.290 866.00 264.40 1.8030   23.700 23.270 23.170 22.300 21.460 12.100 11.290     318     0.7410 112.90 37.72   0.000 0.000 30.504 16.489 13.959 27.236 14.333 12.907
WS7MET_125 2018-07-19 10:40:00 125 30483.0 23.540 23.070 22.930 22.370 21.390 52.870 54.080 13.360 12.640 851.00 259.80 16.790 16.620 14.660 11.280 14.070 23.730 23.270 23.140 22.500 22.230 15.620 13.600 856.00 261.70 0.9150   23.390 22.840 22.710 22.130 20.860 11.610 11.810     318     0.4580 213.20 60.33   0.000 0.000 29.022 15.333 13.678 27.038 14.627 12.416
WS7MET_125 2018-07-19 10:35:00 125 30483.0 23.350 22.590 22.460 21.860 21.040 52.420 53.760 13.050 12.070 844.00 257.10 16.790 16.620 14.660 11.280 14.060 23.460 22.890 22.690 22.060 21.490 15.140 14.050 848.00 257.70 1.4570   23.220 22.430 22.350 21.690 20.750 11.410 11.450     318     0.6720 134.70 71.82   0.000 0.000 28.691 15.025 13.651 26.211 14.089 12.120
WS7MET_125 2018-07-19 10:30:00 125 30483.0 23.220 22.290 22.330 21.840 20.790 52.980 55.350 13.100 12.500 835.00 253.50 16.790 16.620 14.660 11.280 14.120 23.360 22.510 22.490 21.920 21.140 15.410 14.150 841.00 255.00 1.1890   23.080 22.090 22.130 21.690 20.550 11.580 11.890     318     0.5160 144.80 54.72   0.000 0.000 28.467 15.075 13.385 26.180 14.494 11.689
WS7MET_125 2018-07-19 10:25:00 125 30483.0 23.560 22.460 22.420 21.720 21.230 53.890 55.720 13.660 12.490 825.00 249.40 16.790 16.620 14.660 11.280 14.170 23.770 22.650 22.640 21.820 21.590 15.320 13.560 831.00 251.00 2.0710   23.360 22.160 22.110 21.510 20.910 11.610 11.830     318     1.0550 218.80 27.64   0.000 0.000 29.057 15.635 13.398 25.988 14.484 11.508
WS7MET_125 2018-07-19 10:20:00 125 30483.0 23.510 22.130 22.060 21.560 20.600 53.560 55.290 13.510 12.230 815.00 245.50 16.790 16.620 14.660 11.280 14.330 23.870 22.440 22.380 21.690 21.100 15.360 12.910 820.00 246.90 1.4440   23.320 21.790 21.720 21.480 19.990 11.580 11.780     318     0.6480 205.30 31.34   0.000 0.000 28.969 15.483 13.453 25.736 14.239 11.506
WS7MET_125 2018-07-19 10:15:00 125 30483.0 24.100 22.090 22.140 21.460 20.450 51.200 54.710 13.390 11.980 807.00 241.60 16.800 16.620 14.660 11.280 14.380 24.240 22.290 22.390 21.620 20.880 15.080 12.890 812.00 242.90 1.2020   23.970 21.940 21.970 21.310 20.180 11.740 11.300     318     0.7100 122.60 42.32   0.000 0.000 30.015 15.363 14.647 25.579 14.006 11.585
WS7MET_125 2018-07-19 10:10:00 125 30483.0 23.970 21.920 22.020 21.410 20.430 51.680 55.780 13.410 12.230 797.60 237.10 16.810 16.630 14.660 11.280 14.400 24.140 22.250 22.360 21.690 20.910 14.860 13.430 803.00 238.90 1.5420   23.730 21.610 21.650 21.170 20.000 11.780 11.620     318     0.5710 185.40 69.37   0.000 0.000 29.782 15.383 14.391 25.500 14.239 11.276
WS7MET_125 2018-07-19 10:05:00 125 30483.0 23.540 21.580 21.680 21.100 20.120 53.610 55.960 13.580 11.980 788.70 232.20 16.810 16.630 14.660 11.280 14.430 23.730 21.700 21.830 21.340 20.260 14.910 12.920 794.50 234.90 1.0980   23.360 21.450 21.540 20.930 19.980 11.690 11.570     318     0.6770 119.40 57.27   0.000 0.000 29.022 15.554 13.463 25.020 14.006 11.019
WS7MET_125 2018-07-19 10:00:00 125 30483.0 23.660 21.510 21.480 20.950 20.010 51.210 56.780 12.980 12.070 776.30 226.70 16.810 16.630 14.660 11.280 14.450 24.210 21.720 21.820 21.140 20.500 14.520 12.990 783.80 229.50 0.8360   23.460 21.270 21.090 20.830 19.460 11.260 11.440     318     0.3600 194.30 41.35   0.000 0.000 29.232 14.957 14.262 24.791 14.089 10.715
WS7MET_125 2018-07-19 09:55:00 125 30483.0 24.230 21.610 21.280 20.730 19.800 53.400 58.180 14.150 12.230 766.60 221.10 16.820 16.630 14.660 11.270 14.440 24.550 21.760 21.560 20.970 20.330 15.420 13.130 771.70 224.10 1.1560   23.870 21.450 21.120 20.590 19.460 11.300 11.430     318     0.5900 149.40 42.27   0.000 0.000 30.250 16.141 14.096 24.458 14.239 10.228
WS7MET_125 2018-07-19 09:50:00 125 30483.0 23.780 21.170 21.080 20.570 19.200 53.240 59.160 13.690 12.330 755.80 215.50 16.830 16.630 14.660 11.270 14.300 23.870 21.430 21.180 20.700 19.600 14.870 13.500 760.90 217.40 1.0190   23.660 21.090 20.920 20.390 18.810 11.990 11.830     318     0.5750 129.10 44.98   0.000 0.000 29.444 15.666 13.768 24.218 14.333 9.891
WS7MET_125 2018-07-19 09:45:00 125 30483.0 23.600 21.060 20.930 20.490 19.170 52.470 58.890 13.320 12.200 745.40 210.60 16.830 16.630 14.660 11.270 14.080 23.870 21.220 21.060 20.700 19.370 14.680 12.980 750.20 213.40 1.6140   23.360 20.850 20.680 20.320 18.790 12.410 11.900     318     0.4290 107.50 40.80   0.000 0.000 29.127 15.293 13.844 24.099 14.211 9.907
WS7MET_125 2018-07-19 09:40:00 125 30483.0 22.850 21.120 21.060 20.360 19.390 57.330 59.720 13.980 12.290 734.00 205.20 16.840 16.640 14.660 11.260 13.830 23.320 21.280 21.250 20.460 19.670 15.050 13.330 739.50 208.00 1.3260   22.330 21.030 20.880 20.220 19.280 13.050 11.840     318     0.7670 125.80 34.76   0.000 0.000 27.837 15.964 11.878 23.906 14.295 9.629
WS7MET_125 2018-07-19 09:35:00 125 30483.0 21.900 20.840 20.930 20.220 19.500 60.010 60.760 13.790 12.410 721.30 200.10 16.840 16.640 14.660 11.260 13.440 22.300 21.090 21.160 20.390 19.840 15.040 12.940 727.40 202.60 0.7320   21.650 20.620 20.630 20.120 19.170 12.570 11.950     318     0.3900 172.70 39.19   0.000 0.000 26.276 15.768 10.508 23.701 14.408 9.300
WS7MET_125 2018-07-19 09:30:00 125 30483.0 21.850 20.780 20.690 20.160 19.160 56.700 60.930 12.870 12.400 709.90 195.10 16.840 16.640 14.660 11.260 13.240 22.060 20.970 20.880 20.390 19.610 14.150 13.360 716.70 197.30 0.9730   21.720 20.630 20.480 19.980 18.870 11.920 11.970     318     0.6170 198.60 24.94   0.000 0.000 26.195 14.850 11.343 23.613 14.399 9.226
WS7MET_125 2018-07-19 09:25:00 125 30483.0 21.640 20.370 20.150 19.830 18.350 57.800 61.590 12.970 12.260 697.40 189.40 16.840 16.640 14.660 11.260 13.170 21.820 20.630 20.460 20.010 19.000 14.100 12.830 703.20 191.90 1.5880   21.550 20.140 19.920 19.710 17.990 11.950 11.960     318     0.5230 140.00 51.32   0.000 0.000 25.862 14.947 10.914 23.135 14.267 8.886
WS7MET_125 2018-07-19 09:20:00 125 30483.0 21.340 20.050 19.790 19.580 18.020 58.050 62.210 12.760 12.170 684.70 183.90 16.860 16.640 14.660 11.260 13.130 21.580 20.230 19.970 19.710 18.170 13.620 12.520 691.20 186.50 1.0260   21.070 19.900 19.640 19.470 17.850 11.840 11.980     318     0.4200 109.00 40.30   0.000 0.000 25.391 14.743 10.652 22.779 14.182 8.608
WS7MET_125 2018-07-19 09:15:00 125 30483.0 20.670 20.070 19.990 19.720 18.270 60.670 62.200 12.810 12.300 670.80 178.40 16.860 16.640 14.660 11.260 13.080 21.040 20.180 20.170 19.840 18.810 13.620 12.730 676.40 181.20 1.0710   20.150 19.870 19.750 19.570 17.950 12.150 12.090     318     0.2350 168.90 56.75   0.000 0.000 24.368 14.791 9.584 22.978 14.304 8.686
WS7MET_125 2018-07-19 09:10:00 125 30483.0 19.780 19.410 19.320 19.320 18.010 61.170 62.700 12.110 12.040 658.90 172.60 16.860 16.640 14.660 11.260 13.050 20.120 19.790 19.710 19.600 18.250 12.670 12.340 664.30 175.80 0.8620   19.470 19.180 19.090 19.130 17.870 11.850 11.930     318     0.4600 99.80 36.00   0.000 0.000 23.064 14.127 8.956 22.414 14.062 8.360
WS7MET_125 2018-07-19 09:05:00 125 30483.0 19.150 19.150 19.180 19.350 17.620 63.400 61.990 12.050 11.900 646.70 166.50 16.860 16.640 14.660 11.260 13.020 19.500 19.190 19.310 19.570 17.890 12.760 12.150 652.20 169.10 1.0320   18.920 19.130 19.060 19.090 17.430 11.470 11.760     318     0.5550 74.82 26.34   0.000 0.000 22.178 14.071 8.117 22.456 13.932 8.535
WS7MET_125 2018-07-19 09:00:00 125 30483.0 18.570 19.130 19.380 19.360 17.570 65.830 62.790 12.070 12.100 633.50 160.30 16.880 16.650 14.660 11.260 13.000 18.960 19.200 19.520 19.470 17.720 12.480 12.340 641.50 163.70 1.0780   18.210 19.030 19.310 19.260 17.230 11.530 11.620     318     0.5470 123.70 32.90   0.000 0.000 21.389 14.089 7.309 22.470 14.117 8.361
WS7MET_125 2018-07-19 08:55:00 125 30483.0 17.580 18.670 18.940 19.160 17.260 70.390 63.510 12.140 12.080 619.20 152.90 16.880 16.650 14.660 11.260 12.970 18.140 19.030 19.430 19.370 17.510 12.980 12.550 626.70 157.00 0.5230   17.110 18.320 18.480 18.890 17.160 11.650 11.830     318     0.2110 94.30 40.25   0.000 0.000 20.099 14.154 5.951 22.192 14.099 8.098
WS7MET_125 2018-07-19 08:50:00 125 30483.0 16.770 18.060 18.160 18.610 17.040 71.640 64.700 11.630 11.840 605.80 145.40 16.880 16.650 14.660 11.260 12.950 17.080 18.300 18.460 18.890 17.380 12.300 12.450 612.00 149.00 0.7190   16.470 17.760 17.900 18.340 16.740 11.250 11.520     318     0.2530 100.90 49.48   0.000 0.000 19.095 13.686 5.415 21.443 13.877 7.569
WS7MET_125 2018-07-19 08:45:00 125 30483.0 16.340 17.390 17.690 18.220 16.660 73.650 66.120 11.640 11.800 592.70 137.70 16.890 16.660 14.660 11.260 12.920 16.470 17.690 17.860 18.340 16.710 12.050 12.000 598.60 140.90 0.6080   16.230 17.240 17.510 18.070 16.600 11.450 11.640     318     0.2140 71.29 30.28   0.000 0.000 18.580 13.695 4.896 20.925 13.841 7.089
WS7MET_125 2018-07-19 08:40:00 125 30483.0 16.150 17.060 17.310 17.900 16.800 74.220 67.430 11.570 11.800 578.70 129.20 16.900 16.660 14.650 11.260 12.900 16.260 17.220 17.510 18.030 17.020 11.780 12.060 586.50 132.90 0.7380   16.020 16.930 17.130 17.690 16.580 11.150 11.570     318     0.3880 56.65 33.19   0.000 0.000 18.356 13.632 4.732 20.508 13.841 6.680
WS7MET_125 2018-07-19 08:35:00 125 30483.0 15.910 16.750 16.990 17.510 16.560 75.200 69.270 11.540 11.840 565.10 119.80 16.910 16.670 14.660 11.260 12.880 16.060 16.920 17.110 17.690 16.820 12.050 12.160 571.70 124.80 1.2410   15.820 16.550 16.800 17.280 16.380 11.360 11.500     318     0.2460 163.80 55.15   0.000 0.000 18.077 13.605 4.483 20.010 13.877 6.149
WS7MET_125 2018-07-19 08:30:00 125 30483.0 15.650 16.320 16.580 17.040 16.360 76.240 70.270 11.490 11.600 550.20 108.90 16.920 16.670 14.660 11.260 12.850 15.820 16.530 16.800 17.280 16.800 11.700 11.840 558.30 114.10 0.8490   15.510 16.140 16.380 16.810 16.030 11.160 11.430     318     0.2060 50.91 22.71   0.000 0.000 17.779 13.560 4.224 19.425 13.659 5.775
WS7MET_125 2018-07-19 08:25:00 125 30483.0 15.470 16.080 16.310 16.710 16.070 76.580 71.870 11.390 11.620 504.70 96.60 16.930 16.670 14.650 11.260 12.830 15.610 16.140 16.360 16.910 16.310 11.630 11.820 540.90 103.40 0.9730   15.310 15.990 16.220 16.530 15.960 11.170 11.440     318     0.5000 51.68 30.08   0.000 0.000 17.575 13.470 4.116 19.022 13.677 5.351
WS7MET_125 2018-07-19 08:20:00 125 30483.0 15.250 15.840 16.050 16.320 15.800 76.970 73.010 11.260 11.490 408.50 82.40 16.940 16.680 14.650 11.260 12.800 15.370 15.990 16.210 16.530 16.240 11.450 11.690 496.70 89.90 0.7250   15.170 15.750 15.950 16.120 15.590 11.150 11.320     318     0.2670 69.86 25.21   0.000 0.000 17.328 13.355 3.991 18.556 13.560 5.008
WS7MET_125 2018-07-19 08:15:00 125 30483.0 15.090 15.730 15.930 16.110 15.670 78.080 73.830 11.310 11.460 485.90 68.19 16.940 16.680 14.650 11.260 12.780 15.200 15.760 15.990 16.260 15.960 11.580 11.630 506.10 75.17 0.6600   14.970 15.640 15.860 16.020 15.510 11.100 11.260     318     0.3430 52.34 36.83   0.000 0.000 17.151 13.399 3.759 18.309 13.533 4.792
WS7MET_125 2018-07-19 08:10:00 125 30483.0 14.850 15.600 15.890 16.020 15.830 79.910 74.250 11.430 11.450 407.80 55.03 16.950 16.680 14.650 11.260 12.770 14.970 15.700 15.990 16.130 16.190 11.730 11.740 457.70 61.75 0.6930   14.690 15.470 15.790 15.890 15.550 10.930 10.800     318     0.2850 54.03 20.19   0.000 0.000 16.888 13.506 3.393 18.204 13.524 4.688
WS7MET_125 2018-07-19 08:05:00 125 30483.0 14.700 15.270 15.570 15.630 15.590 81.500 76.350 11.570 11.500 437.30 43.15 16.960 16.680 14.650 11.260 12.760 14.760 15.470 15.770 15.850 16.010 11.690 11.690 472.50 48.32 0.6270   14.630 15.140 15.420 15.440 15.260 11.450 11.240     318     0.1480 129.40 67.62   0.000 0.000 16.725 13.632 3.094 17.756 13.569 4.199
WS7MET_125 2018-07-19 08:00:00 125 30483.0 14.660 15.140 15.350 15.430 15.170 81.500 77.910 11.530 11.610 357.40 33.76 16.960 16.680 14.650 11.260 12.740 14.730 15.160 15.450 15.510 15.400 11.670 11.730 465.80 37.58 0.5490   14.530 15.120 15.310 15.340 15.080 11.310 11.330     318     0.1520 20.84 7.16   0.000 0.000 16.682 13.596 3.086 17.530 13.668 3.872
WS7MET_125 2018-07-19 07:55:00 125 30483.0 14.630 15.150 15.350 15.370 15.370 80.800 77.450 11.370 11.460 151.90 26.91 16.970 16.680 14.650 11.260 12.730 14.760 15.200 15.420 15.510 15.640 11.620 11.740 197.30 29.53 0.4570   14.490 14.990 15.170 15.210 15.080 11.080 11.180     318     0.1320 359.50 59.56   0.000 0.000 16.650 13.452 3.197 17.462 13.533 3.938
WS7MET_125 2018-07-19 07:50:00 125 30483.0 14.420 14.910 15.070 15.080 15.140 80.600 78.200 11.140 11.330 98.30 22.28 16.980 16.680 14.650 11.260 12.720 14.520 14.990 15.150 15.210 15.420 11.310 11.510 139.60 24.16 0.5750   14.290 14.800 14.970 14.930 14.860 10.910 11.130     318     0.2590 43.12 29.42   0.000 0.000 16.426 13.249 3.187 17.140 13.417 3.737
WS7MET_125 2018-07-19 07:45:00 125 30483.0 14.250 14.750 14.910 14.910 14.850 81.600 79.080 11.160 11.330 41.88 18.93 16.980 16.690 14.650 11.260 12.710 14.390 14.800 14.970 14.970 15.080 11.360 11.420 48.32 20.13 0.6660   14.120 14.650 14.830 14.830 14.660 10.930 11.150     318     0.2800 62.23 11.44   0.000 0.000 16.246 13.266 2.989 16.953 13.417 3.547
WS7MET_125 2018-07-19 07:40:00 125 30483.0 13.990 14.550 14.740 14.670 14.770 82.700 79.730 11.110 11.220 29.80 16.51 16.980 16.690 14.650 11.260 12.700 14.180 14.670 14.870 14.870 15.090 11.240 11.370 30.87 17.45 0.7190   13.840 14.440 14.590 14.490 14.540 10.940 11.050     318     0.1480 342.20 71.46   0.000 0.000 15.974 13.222 2.764 16.693 13.319 3.384
WS7MET_125 2018-07-19 07:35:00 125 30483.0 13.780 14.350 14.490 14.450 14.530 83.700 81.100 11.080 11.250 28.46 14.97 16.990 16.690 14.650 11.260 12.690 13.910 14.440 14.580 14.530 14.840 11.210 11.350 29.53 16.11 0.7320   13.670 14.250 14.380 14.360 14.340 10.880 11.140     318     0.2210 41.06 29.38   0.000 0.000 15.758 13.196 2.569 16.457 13.346 3.110
WS7MET_125 2018-07-19 07:30:00 125 30483.0 13.590 14.170 14.290 14.260 14.310 84.500 81.800 11.040 11.200 27.38 13.62 17.000 16.690 14.650 11.260 12.680 13.670 14.250 14.380 14.390 14.420 11.140 11.320 28.19 14.76 0.5620   13.430 14.100 14.230 14.150 14.260 10.920 11.120     318     0.2340 11.09 18.53   0.000 0.000 15.564 13.161 2.412 16.256 13.302 2.959
WS7MET_125 2018-07-19 07:25:00 125 30483.0 13.450 14.050 14.170 14.120 14.180 85.400 82.700 11.060 11.230 26.38 12.68 17.010 16.690 14.650 11.260 12.670 13.540 14.090 14.220 14.220 14.290 11.190 11.330 26.85 13.42 0.6140   13.330 14.000 14.120 13.980 14.120 10.930 11.130     318     0.2520 24.59 22.78   0.000 0.000 15.423 13.179 2.252 16.110 13.328 2.787
WS7MET_125 2018-07-19 07:20:00 125 30483.0 13.330 13.940 14.070 14.010 14.060 85.800 83.200 11.010 11.210 25.50 11.81 17.020 16.690 14.650 11.260 12.660 13.400 13.990 14.120 14.080 14.120 11.090 11.290 25.50 12.08 0.7250   13.230 13.890 14.020 13.950 13.990 10.900 11.100     318     0.2720 28.60 30.49   0.000 0.000 15.303 13.135 2.173 15.995 13.310 2.687
WS7MET_125 2018-07-19 07:15:00 125 30483.0 13.230 13.850 13.970 13.920 13.990 86.300 83.500 11.010 11.180 24.16 10.13 17.020 16.700 14.650 11.250 12.650 13.330 13.890 14.010 14.050 14.080 11.080 11.280 24.16 10.74 0.7060   13.090 13.780 13.860 13.810 13.890 10.920 11.050     318     0.4540 34.61 21.74   0.000 0.000 15.203 13.135 2.083 15.902 13.284 2.624
WS7MET_125 2018-07-19 07:10:00 125 30483.0 13.110 13.740 13.820 13.770 13.840 86.900 84.300 10.990 11.180 23.15 8.19 17.020 16.700 14.650 11.250 12.640 13.160 13.780 13.860 13.840 13.890 11.070 11.240 24.16 9.40 0.8230   13.030 13.700 13.780 13.710 13.800 10.880 11.120     318     0.5180 26.79 15.76   0.000 0.000 15.085 13.117 1.976 15.748 13.284 2.472
WS7MET_125 2018-07-19 07:05:00 125 30483.0 13.100 13.640 13.720 13.650 13.770 86.700 84.500 10.930 11.100 22.21 6.78 17.040 16.700 14.650 11.250 12.640 13.200 13.700 13.780 13.740 13.820 11.070 11.170 22.82 8.05 0.4050   13.020 13.570 13.680 13.570 13.740 10.850 11.020     318     0.2370 48.38 13.63   0.000 0.000 15.075 13.065 2.005 15.625 13.214 2.422
WS7MET_125 2018-07-19 07:00:00 125 30483.0 13.040 13.530 13.620 13.530 13.670 86.400 84.900 10.820 11.060 20.81 5.97 17.050 16.700 14.650 11.260 12.630 13.130 13.570 13.680 13.610 13.730 10.900 11.120 21.48 6.71 0.6790   12.960 13.480 13.560 13.470 13.610 10.720 10.990     318     0.5010 10.82 5.02   0.000 0.000 15.016 12.970 2.042 15.504 13.179 2.341
WS7MET_125 2018-07-19 06:55:00 125 30483.0 13.000 13.420 13.500 13.400 13.590 86.100 85.100 10.740 10.970 19.40 4.97 17.050 16.710 14.650 11.260 12.620 13.100 13.480 13.560 13.510 13.640 10.860 11.060 20.13 5.37 0.7060   12.960 13.360 13.430 13.300 13.510 10.680 10.870     318     0.4330 20.99 6.01   0.000 0.000 14.976 12.901 2.082 15.373 13.100 2.291
WS7MET_125 2018-07-19 06:50:00 125 30483.0 12.960 13.300 13.360 13.230 13.410 85.900 85.900 10.680 10.930 17.85 4.03 17.060 16.710 14.650 11.260 12.620 13.060 13.360 13.420 13.370 13.490 10.780 11.040 18.79 4.03 0.6930   12.890 13.240 13.300 13.090 13.350 10.600 10.860     318     0.3190 17.06 9.82   0.000 0.000 14.937 12.850 2.106 15.203 13.065 2.144
WS7MET_125 2018-07-19 06:45:00 125 30483.0 12.880 13.170 13.240 13.120 13.310 86.100 86.300 10.620 10.900 15.77 4.03 17.070 16.710 14.650 11.250 12.610 12.990 13.240 13.300 13.200 13.350 10.730 10.980 17.45 4.03 0.5620   12.790 13.110 13.180 13.060 13.250 10.530 10.820     318     0.2170 18.29 9.14   0.000 0.000 14.859 12.798 2.065 15.094 13.039 2.068
WS7MET_125 2018-07-19 06:40:00 125 30483.0 12.790 13.050 13.130 13.020 13.180 86.300 86.500 10.580 10.840 13.56 3.09 17.070 16.710 14.650 11.250 12.610 12.860 13.110 13.170 13.130 13.260 10.640 10.960 14.76 4.03 0.4310   12.750 13.010 13.090 12.920 13.120 10.550 10.760     318     0.1670 357.00 5.94   0.000 0.000 14.772 12.764 2.024 14.996 12.987 2.024
WS7MET_125 2018-07-19 06:35:00 125 30483.0 12.740 12.980 13.080 12.990 13.080 86.500 86.500 10.550 10.810 11.48 2.28 17.080 16.710 14.640 11.250 12.600 12.820 13.010 13.090 13.090 13.110 10.610 10.920 12.08 2.68 0.5810   12.650 12.940 13.070 12.920 13.060 10.480 10.730     318     0.4400 343.60 3.93   0.000 0.000 14.724 12.739 1.988 14.967 12.961 2.020
WS7MET_125 2018-07-19 06:30:00 125 30483.0 12.680 12.910 13.060 12.990 13.080 86.600 86.200 10.510 10.750 9.93 1.34 17.090 16.710 14.640 11.250 12.600 12.750 12.940 13.070 13.060 13.110 10.590 10.840 10.74 1.34 0.5420   12.580 12.880 13.050 12.920 13.050 10.420 10.670     318     0.4540 341.70 0.54   0.000 0.000 14.666 12.705 1.965 14.967 12.910 2.065
WS7MET_125 2018-07-19 06:25:00 125 30483.0 12.690 12.880 13.030 12.980 13.060 86.300 86.000 10.470 10.700 8.79 1.34 17.090 16.720 14.640 11.250 12.600 12.750 12.880 13.050 13.030 13.090 10.560 10.770 9.40 1.34 0.4770   12.580 12.870 13.020 12.890 13.050 10.340 10.600     318     0.4240 344.20 2.87   0.000 0.000 14.675 12.671 2.011 14.957 12.867 2.094
WS7MET_125 2018-07-19 06:20:00 125 30483.0 12.660 12.880 13.000 12.960 13.000 85.900 85.800 10.370 10.660 8.05 0.94 17.100 16.720 14.630 11.250 12.600 12.750 12.890 13.030 13.030 13.050 10.480 10.740 8.05 1.34 0.4640   12.580 12.870 12.980 12.890 12.940 10.280 10.590     318     0.4080 348.60 0.38   0.000 0.000 14.647 12.586 2.065 14.937 12.832 2.121
WS7MET_125 2018-07-19 06:15:00 125 30483.0 12.650 12.880 13.030 12.990 13.020 85.900 85.500 10.360 10.620 8.05 0.07 17.110 16.720 14.640 11.250 12.590 12.750 12.890 13.050 13.090 13.050 10.460 10.710 8.05 1.34 0.5160   12.550 12.880 13.020 12.890 13.000 10.240 10.540     318     0.4130 349.00 1.43   0.000 0.000 14.637 12.578 2.064 14.967 12.798 2.170
WS7MET_125 2018-07-19 06:10:00 125 30483.0 12.670 12.920 13.050 13.020 13.070 85.700 85.000 10.360 10.580 7.11 0.00 17.110 16.720 14.630 11.250 12.600 12.750 12.950 13.060 13.060 13.110 10.410 10.630 8.05 0.00 0.3990   12.620 12.880 13.050 12.960 13.030 10.300 10.510     318     0.3490 350.00 0.38   0.000 0.000 14.656 12.578 2.096 14.996 12.764 2.249
WS7MET_125 2018-07-19 06:05:00 125 30483.0 12.710 12.940 13.050 13.000 13.100 85.400 85.300 10.340 10.590 6.71 0.00 17.120 16.720 14.630 11.250 12.600 12.750 12.950 13.070 13.060 13.130 10.410 10.660 6.71 0.00 0.4770   12.620 12.920 13.050 12.920 13.050 10.240 10.510     318     0.4050 344.30 5.82   0.000 0.000 14.695 12.561 2.145 14.976 12.773 2.202
WS7MET_125 2018-07-19 06:00:00 125 30483.0 12.720 12.920 13.050 13.010 13.040 85.200 85.000 10.310 10.560 6.71 0.00 17.130 16.720 14.630 11.250 12.600 12.790 12.940 13.070 13.060 13.090 10.370 10.620 6.71 0.00 0.4770   12.620 12.910 13.030 12.920 12.990 10.200 10.500     318     0.4020 340.20 3.40   0.000 0.000 14.704 12.536 2.176 14.986 12.747 2.248
WS7MET_125 2018-07-19 05:55:00 125 30483.0 12.770 12.940 13.060 13.020 13.090 84.800 84.800 10.290 10.540 6.71 0.00 17.140 16.720 14.630 11.250 12.600 12.820 12.940 13.070 13.060 13.130 10.360 10.590 6.71 0.00 0.4700   12.720 12.940 13.050 12.960 13.010 10.200 10.480     318     0.4100 339.40 5.40   0.000 0.000 14.753 12.519 2.242 14.996 12.730 2.279
WS7MET_125 2018-07-19 05:50:00 125 30483.0 12.750 12.950 13.080 13.030 13.040 84.700 84.600 10.240 10.500 6.44 0.00 17.150 16.730 14.630 11.250 12.600 12.790 12.960 13.110 13.090 13.070 10.290 10.610 6.71 0.00 0.4380   12.690 12.940 13.050 12.960 13.020 10.190 10.400     318     0.3150 343.90 6.09   0.000 0.000 14.733 12.478 2.254 15.006 12.696 2.311
WS7MET_125 2018-07-19 05:45:00 125 30483.0 12.730 12.960 13.130 13.120 13.130 84.800 84.000 10.240 10.480 5.37 0.00 17.160 16.730 14.630 11.250 12.600 12.750 12.980 13.140 13.200 13.150 10.270 10.550 5.37 0.00 0.4770   12.680 12.950 13.110 13.030 13.080 10.180 10.400     318     0.3470 340.00 6.98   0.000 0.000 14.714 12.478 2.237 15.094 12.679 2.415
WS7MET_125 2018-07-19 05:40:00 125 30483.0 12.750 13.010 13.160 13.170 13.170 84.500 83.700 10.220 10.480 5.37 0.00 17.160 16.730 14.630 11.250 12.610 12.790 13.030 13.170 13.230 13.190 10.280 10.550 5.37 0.00 0.3720   12.680 12.980 13.140 13.090 13.150 10.140 10.380     318     0.3220 338.30 0.43   0.000 0.000 14.733 12.461 2.284 15.144 12.679 2.468
WS7MET_125 2018-07-19 05:35:00 125 30483.0 12.810 13.050 13.190 13.160 13.200 84.100 83.600 10.220 10.460 5.37 0.00 17.160 16.740 14.630 11.250 12.610 12.850 13.070 13.190 13.230 13.230 10.280 10.540 5.37 0.00 0.4510   12.750 13.030 13.170 13.090 13.170 10.150 10.390     318     0.3570 338.80 0.32   0.000 0.000 14.791 12.461 2.352 15.134 12.662 2.482
WS7MET_125 2018-07-19 05:30:00 125 30483.0 12.810 13.050 13.180 13.130 13.210 83.700 83.600 10.140 10.430 4.56 0.00 17.170 16.730 14.630 11.250 12.610 12.850 13.070 13.200 13.230 13.260 10.200 10.540 5.37 0.00 0.4250   12.720 13.040 13.170 13.060 13.170 10.030 10.350     318     0.3660 339.10 1.32   0.000 0.000 14.791 12.394 2.411 15.104 12.637 2.477
WS7MET_125 2018-07-19 05:25:00 125 30483.0 12.790 13.040 13.180 13.140 13.200 83.700 83.500 10.120 10.410 4.03 0.00 17.180 16.740 14.630 11.250 12.610 12.920 13.040 13.190 13.200 13.230 10.250 10.480 4.03 0.00 0.3720   12.720 13.040 13.170 13.090 13.170 10.020 10.370     318     0.3180 339.80 2.60   0.000 0.000 14.772 12.378 2.408 15.114 12.620 2.494
WS7MET_125 2018-07-19 05:20:00 125 30483.0 12.780 13.060 13.200 13.180 13.200 83.800 83.200 10.130 10.410 4.03 0.00 17.180 16.740 14.630 11.250 12.610 12.850 13.080 13.220 13.300 13.240 10.210 10.490 4.03 0.00 0.4250   12.720 13.040 13.190 13.090 13.170 10.080 10.350     318     0.3200 341.80 0.91   0.000 0.000 14.762 12.386 2.391 15.154 12.620 2.546
WS7MET_125 2018-07-19 05:15:00 125 30483.0 12.820 13.090 13.220 13.230 13.260 83.500 82.900 10.100 10.390 4.03 0.00 17.200 16.740 14.630 11.250 12.610 12.890 13.090 13.240 13.300 13.280 10.170 10.470 4.03 0.00 0.4180   12.750 13.090 13.210 13.130 13.240 10.030 10.310     318     0.3560 341.80 0.34   0.000 0.000 14.801 12.361 2.442 15.203 12.603 2.600
WS7MET_125 2018-07-19 05:10:00 125 30483.0 12.860 13.100 13.250 13.240 13.260 82.900 82.600 10.040 10.350 4.03 0.00 17.200 16.740 14.630 11.250 12.610 12.950 13.110 13.280 13.300 13.280 10.160 10.440 4.03 0.00 0.4440   12.820 13.090 13.220 13.160 13.240 9.950 10.240     318     0.4070 341.70 0.45   0.000 0.000 14.840 12.312 2.538 15.213 12.570 2.647
WS7MET_125 2018-07-19 05:05:00 125 30483.0 12.920 13.110 13.290 13.270 13.320 82.600 82.200 10.040 10.310 3.89 0.00 17.200 16.740 14.630 11.250 12.610 12.960 13.110 13.300 13.330 13.340 10.090 10.380 4.03 0.00 0.3920   12.850 13.110 13.280 13.200 13.280 9.970 10.240     318     0.3300 339.20 2.06   0.000 0.000 14.898 12.312 2.592 15.243 12.536 2.713
WS7MET_125 2018-07-19 05:00:00 125 30483.0 12.900 13.120 13.300 13.300 13.310 82.500 82.000 10.000 10.310 2.68 0.00 17.210 16.740 14.630 11.250 12.620 12.990 13.130 13.300 13.370 13.320 10.090 10.380 2.68 0.00 0.4510   12.850 13.110 13.300 13.230 13.300 9.940 10.230     318     0.3790 340.30 2.52   0.000 0.000 14.879 12.279 2.604 15.273 12.536 2.749
WS7MET_125 2018-07-19 04:55:00 125 30483.0 12.960 13.150 13.320 13.300 13.340 82.400 81.900 10.030 10.290 2.68 0.00 17.220 16.740 14.620 11.250 12.620 13.060 13.170 13.330 13.360 13.360 10.130 10.370 2.68 0.00 0.4250   12.850 13.130 13.300 13.230 13.300 9.950 10.220     318     0.3450 343.80 0.91   0.000 0.000 14.937 12.303 2.629 15.273 12.519 2.764
WS7MET_125 2018-07-19 04:50:00 125 30483.0 12.970 13.180 13.340 13.320 13.350 82.300 82.000 10.030 10.320 1.48 0.00 17.220 16.740 14.620 11.250 12.620 13.020 13.190 13.360 13.400 13.360 10.080 10.410 2.68 0.00 0.4120   12.890 13.160 13.330 13.260 13.340 9.950 10.260     318     0.3390 344.90 0.42   0.000 0.000 14.947 12.303 2.646 15.293 12.545 2.753
WS7MET_125 2018-07-19 04:45:00 125 30483.0 13.040 13.220 13.380 13.340 13.390 82.000 81.700 10.060 10.290 1.34 0.00 17.240 16.740 14.620 11.250 12.620 13.160 13.260 13.400 13.400 13.420 10.130 10.370 1.34 0.00 0.4770   12.990 13.190 13.360 13.300 13.360 10.010 10.240     318     0.4100 343.20 3.16   0.000 0.000 15.016 12.328 2.703 15.313 12.519 2.802
WS7MET_125 2018-07-19 04:40:00 125 30483.0 13.110 13.280 13.410 13.370 13.420 81.500 81.700 10.020 10.320 0.13 0.00 17.250 16.740 14.620 11.240 12.620 13.190 13.300 13.420 13.430 13.460 10.110 10.390 1.34 0.00 0.4700   13.020 13.260 13.400 13.300 13.370 9.900 10.240     318     0.3550 336.10 2.32   0.000 0.000 15.085 12.295 2.791 15.343 12.545 2.808
WS7MET_125 2018-07-19 04:35:00 125 30483.0 13.110 13.320 13.450 13.410 13.460 81.300 81.400 9.990 10.300 0.00 0.00 17.250 16.740 14.620 11.240 12.620 13.160 13.330 13.460 13.470 13.480 10.030 10.380 0.00 0.00 0.4700   13.020 13.300 13.420 13.330 13.400 9.900 10.220     318     0.3800 342.00 4.67   0.000 0.000 15.085 12.271 2.821 15.383 12.528 2.861
WS7MET_125 2018-07-19 04:30:00 125 30483.0 13.170 13.360 13.490 13.490 13.480 81.100 81.000 10.020 10.310 0.00 0.00 17.250 16.750 14.620 11.240 12.620 13.230 13.400 13.530 13.600 13.530 10.060 10.390 0.00 0.00 0.4700   13.090 13.340 13.460 13.370 13.440 9.960 10.210     318     0.3650 339.80 3.50   0.000 0.000 15.144 12.295 2.862 15.463 12.536 2.938
WS7MET_125 2018-07-19 04:25:00 125 30483.0 13.230 13.430 13.560 13.560 13.550 80.900 80.700 10.030 10.330 0.00 0.00 17.260 16.750 14.620 11.240 12.620 13.330 13.460 13.590 13.640 13.570 10.120 10.390 0.00 0.00 0.5230   13.130 13.400 13.530 13.500 13.530 9.910 10.270     318     0.4330 343.40 0.51   0.000 0.000 15.203 12.303 2.904 15.534 12.553 2.998
WS7MET_125 2018-07-19 04:20:00 125 30483.0 13.300 13.510 13.620 13.610 13.640 80.400 80.500 10.020 10.330 0.00 0.00 17.270 16.750 14.620 11.240 12.620 13.400 13.530 13.640 13.670 13.670 10.080 10.410 0.00 0.00 0.5750   13.230 13.460 13.590 13.500 13.590 9.940 10.210     318     0.4230 346.00 3.28   0.000 0.000 15.273 12.295 2.993 15.585 12.553 3.039
WS7MET_125 2018-07-19 04:15:00 125 30483.0 13.370 13.540 13.660 13.650 13.660 80.200 80.300 10.040 10.330 0.00 0.00 17.270 16.750 14.620 11.240 12.620 13.430 13.560 13.690 13.710 13.700 10.090 10.410 0.00 0.00 0.4830   13.330 13.530 13.630 13.540 13.630 9.990 10.240     318     0.4320 346.00 4.69   0.000 0.000 15.343 12.312 3.038 15.625 12.553 3.078
WS7MET_125 2018-07-19 04:10:00 125 30483.0 13.380 13.590 13.720 13.690 13.740 80.000 80.100 10.020 10.340 0.00 0.00 17.290 16.760 14.620 11.240 12.630 13.430 13.590 13.730 13.740 13.780 10.070 10.380 0.00 0.00 0.4700   13.300 13.570 13.700 13.640 13.670 9.930 10.280     318     0.3820 342.70 4.96   0.000 0.000 15.353 12.295 3.071 15.666 12.561 3.118
WS7MET_125 2018-07-19 04:05:00 125 30483.0 13.450 13.620 13.740 13.700 13.760 79.860 80.100 10.050 10.340 0.00 0.00 17.290 16.760 14.620 11.240 12.630 13.500 13.650 13.750 13.740 13.780 10.090 10.380 0.00 0.00 0.4640   13.400 13.590 13.730 13.640 13.740 9.990 10.270     318     0.3860 346.50 3.33   0.000 0.000 15.423 12.320 3.106 15.676 12.561 3.120
WS7MET_125 2018-07-19 04:00:00 125 30483.0 13.470 13.660 13.760 13.750 13.750 79.670 79.930 10.040 10.360 0.00 0.00 17.290 16.760 14.620 11.240 12.630 13.530 13.690 13.800 13.840 13.800 10.090 10.420 0.00 0.00 0.5360   13.400 13.630 13.740 13.670 13.720 9.960 10.280     318     0.4610 349.30 0.88   0.000 0.000 15.443 12.312 3.140 15.727 12.578 3.156
WS7MET_125 2018-07-19 03:55:00 125 30483.0 13.480 13.710 13.810 13.780 13.820 79.640 79.710 10.050 10.350 0.00 0.00 17.300 16.750 14.620 11.240 12.630 13.570 13.710 13.820 13.840 13.860 10.160 10.420 0.00 0.00 0.5160   13.430 13.690 13.800 13.700 13.800 9.990 10.280     318     0.4380 348.30 1.32   0.000 0.000 15.453 12.320 3.146 15.758 12.570 3.197
WS7MET_125 2018-07-19 03:50:00 125 30483.0 13.490 13.710 13.830 13.780 13.830 79.650 79.600 10.050 10.320 0.00 0.00 17.310 16.750 14.610 11.240 12.630 13.570 13.710 13.840 13.870 13.860 10.130 10.400 0.00 0.00 0.5100   13.430 13.700 13.810 13.700 13.790 9.980 10.250     318     0.4220 346.20 1.97   0.000 0.000 15.463 12.320 3.147 15.758 12.545 3.215
WS7MET_125 2018-07-19 03:45:00 125 30483.0 13.490 13.700 13.840 13.800 13.900 79.580 79.640 10.040 10.360 0.00 0.00 17.310 16.750 14.610 11.240 12.630 13.570 13.710 13.850 13.870 13.900 10.110 10.420 0.00 0.00 0.5810   13.390 13.680 13.830 13.740 13.880 9.970 10.300     318     0.4550 342.60 5.71   0.000 0.000 15.463 12.312 3.158 15.778 12.578 3.212
WS7MET_125 2018-07-19 03:40:00 125 30483.0 13.580 13.710 13.840 13.830 13.790 79.060 79.330 10.030 10.330 0.00 0.00 17.320 16.750 14.610 11.240 12.640 13.670 13.770 13.890 13.970 13.860 10.100 10.420 0.00 0.00 0.6080   13.460 13.680 13.810 13.740 13.770 9.960 10.250     318     0.4770 345.00 3.47   0.000 0.000 15.554 12.303 3.257 15.809 12.553 3.268
WS7MET_125 2018-07-19 03:35:00 125 30483.0 13.600 13.830 13.970 13.950 13.950 78.910 78.750 10.030 10.330 0.00 0.00 17.330 16.750 14.610 11.240 12.640 13.670 13.860 14.010 14.010 14.050 10.100 10.390 0.00 0.00 0.5230   13.530 13.780 13.900 13.840 13.820 9.940 10.260     318     0.4640 347.20 3.72   0.000 0.000 15.574 12.303 3.285 15.933 12.553 3.386
WS7MET_125 2018-07-19 03:30:00 125 30483.0 13.640 13.860 14.000 13.960 14.040 79.080 78.780 10.090 10.350 0.00 0.00 17.330 16.750 14.610 11.240 12.640 13.740 13.860 14.010 14.080 14.070 10.220 10.510 0.00 0.00 0.5550   13.570 13.850 13.990 13.870 14.030 10.010 10.280     318     0.4860 348.70 4.92   0.000 0.000 15.615 12.353 3.267 15.943 12.570 3.383
WS7MET_125 2018-07-19 03:25:00 125 30483.0 13.670 13.860 13.990 13.980 14.000 78.820 78.750 10.070 10.370 0.00 0.00 17.340 16.750 14.610 11.240 12.640 13.740 13.870 14.000 14.080 14.030 10.150 10.460 0.00 0.00 0.4830   13.600 13.840 13.980 13.910 13.940 9.980 10.280     318     0.3630 337.60 0.48   0.000 0.000 15.646 12.336 3.314 15.964 12.586 3.392
WS7MET_125 2018-07-19 03:20:00 125 30483.0 13.710 13.900 14.040 14.010 14.050 78.460 78.440 10.040 10.340 0.00 0.00 17.340 16.750 14.610 11.240 12.640 13.770 13.910 14.050 14.110 14.090 10.100 10.420 0.00 0.00 0.4250   13.630 13.870 14.000 13.940 13.940 9.950 10.260     318     0.3200 336.40 4.07   0.000 0.000 15.686 12.312 3.379 15.995 12.561 3.449
WS7MET_125 2018-07-19 03:15:00 125 30483.0 13.750 13.910 14.050 14.030 14.080 78.140 78.400 10.020 10.350 0.00 0.00 17.350 16.750 14.610 11.240 12.640 13.810 13.920 14.060 14.080 14.090 10.100 10.420 0.00 0.00 0.4970   13.670 13.900 14.040 13.980 14.060 9.970 10.270     318     0.4160 342.60 3.56   0.000 0.000 15.727 12.295 3.438 16.016 12.570 3.459
WS7MET_125 2018-07-19 03:10:00 125 30483.0 13.860 13.970 14.090 14.120 14.040 77.550 77.940 10.010 10.340 0.00 0.00 17.350 16.750 14.600 11.230 12.650 13.980 14.040 14.180 14.180 14.110 10.100 10.390 0.00 0.00 0.4900   13.770 13.920 14.060 13.940 13.960 9.960 10.240     318     0.2770 332.30 7.15   0.000 0.000 15.840 12.287 3.556 16.110 12.561 3.554
WS7MET_125 2018-07-19 03:05:00 125 30483.0 13.990 14.120 14.230 14.240 14.250 77.160 77.380 10.060 10.350 0.00 0.00 17.370 16.750 14.600 11.240 12.650 14.050 14.170 14.280 14.320 14.370 10.130 10.420 0.00 0.00 0.0000   13.940 14.050 14.180 14.150 14.130 9.980 10.270     318     0.0000 0.00 0.00   0.000 0.000 15.974 12.328 3.649 16.235 12.570 3.672
WS7MET_125 2018-07-19 03:00:00 125 30483.0 13.990 14.170 14.290 14.230 14.320 76.940 77.330 10.020 10.330 0.00 0.00 17.370 16.750 14.600 11.230 12.650 14.080 14.180 14.300 14.280 14.370 10.120 10.380 0.00 0.00 0.4380   13.910 14.170 14.280 14.180 14.280 9.940 10.280     318     0.2070 338.30 4.51   0.000 0.000 15.974 12.295 3.684 16.225 12.553 3.678
WS7MET_125 2018-07-19 02:55:00 125 30483.0 14.010 14.180 14.310 14.250 14.360 77.150 77.380 10.080 10.370 0.00 0.00 17.370 16.750 14.600 11.240 12.650 14.080 14.210 14.310 14.350 14.450 10.160 10.450 0.00 0.00 0.4250   13.970 14.170 14.290 14.180 14.280 10.030 10.280     318     0.3250 339.10 10.22   0.000 0.000 15.995 12.345 3.655 16.246 12.586 3.675
WS7MET_125 2018-07-19 02:50:00 125 30483.0 14.040 14.210 14.310 14.280 14.310 76.830 77.290 10.050 10.370 0.00 0.00 17.380 16.750 14.600 11.230 12.650 14.110 14.220 14.340 14.350 14.350 10.150 10.510 0.00 0.00 0.4310   13.970 14.200 14.300 14.210 14.280 9.970 10.290     318     0.3040 317.40 11.47   0.000 0.000 16.026 12.320 3.713 16.277 12.586 3.697
WS7MET_125 2018-07-19 02:45:00 125 30483.0 14.080 14.240 14.370 14.330 14.340 76.590 76.910 10.040 10.350 0.00 0.00 17.390 16.750 14.600 11.230 12.650 14.110 14.250 14.390 14.420 14.370 10.090 10.400 0.00 0.00 0.5360   14.010 14.220 14.340 14.250 14.290 9.980 10.290     318     0.4270 330.20 4.74   0.000 0.000 16.068 12.312 3.761 16.330 12.570 3.771
WS7MET_125 2018-07-19 02:40:00 125 30483.0 14.170 14.310 14.440 14.420 14.360 76.040 76.500 10.020 10.360 0.00 0.00 17.400 16.750 14.600 11.230 12.650 14.280 14.400 14.520 14.520 14.450 10.110 10.410 0.00 0.00 0.5160   14.040 14.250 14.390 14.320 14.320 9.920 10.310     318     0.4560 333.40 9.64   0.000 0.000 16.162 12.295 3.872 16.426 12.578 3.860
WS7MET_125 2018-07-19 02:35:00 125 30483.0 14.250 14.440 14.570 14.520 14.570 76.080 76.060 10.100 10.370 0.00 0.00 17.400 16.750 14.600 11.230 12.650 14.350 14.450 14.580 14.620 14.620 10.210 10.480 0.00 0.00 0.5950   14.210 14.400 14.530 14.490 14.450 10.040 10.300     318     0.4580 326.10 1.65   0.000 0.000 16.246 12.361 3.886 16.532 12.586 3.958
WS7MET_125 2018-07-19 02:30:00 125 30483.0 14.280 14.470 14.600 14.550 14.610 75.710 75.870 10.070 10.350 0.00 0.00 17.410 16.750 14.600 11.230 12.660 14.350 14.490 14.610 14.660 14.640 10.170 10.430 0.00 0.00 0.4770   14.210 14.440 14.570 14.490 14.560 10.010 10.300     318     0.4050 337.70 4.82   0.000 0.000 16.277 12.336 3.954 16.564 12.570 3.997
WS7MET_125 2018-07-19 02:25:00 125 30483.0 14.330 14.500 14.610 14.590 14.610 75.510 75.640 10.070 10.350 0.00 0.00 17.420 16.750 14.600 11.230 12.660 14.420 14.520 14.620 14.690 14.640 10.180 10.410 0.00 0.00 0.5620   14.280 14.490 14.600 14.490 14.580 9.990 10.280     318     0.4290 339.10 10.86   0.000 0.000 16.330 12.336 3.999 16.607 12.570 4.045
WS7MET_125 2018-07-19 02:20:00 125 30483.0 14.340 14.530 14.670 14.650 14.660 75.470 75.330 10.070 10.350 0.00 0.00 17.420 16.750 14.600 11.230 12.660 14.420 14.550 14.700 14.690 14.710 10.170 10.420 0.00 0.00 0.6530   14.250 14.500 14.630 14.590 14.600 10.000 10.300     318     0.5200 347.80 4.84   0.000 0.000 16.341 12.336 4.008 16.671 12.570 4.113
WS7MET_125 2018-07-19 02:15:00 125 30483.0 14.370 14.560 14.700 14.650 14.700 75.340 75.280 10.080 10.340 0.00 0.00 17.420 16.760 14.600 11.230 12.650 14.450 14.570 14.720 14.730 14.720 10.140 10.410 0.00 0.00 0.4970   14.280 14.550 14.690 14.590 14.700 10.000 10.280     318     0.4570 337.10 2.03   0.000 0.000 16.372 12.345 4.037 16.671 12.561 4.121
WS7MET_125 2018-07-19 02:10:00 125 30483.0 14.380 14.570 14.710 14.670 14.710 75.170 75.200 10.050 10.340 0.00 0.00 17.430 16.750 14.600 11.230 12.660 14.450 14.580 14.730 14.760 14.750 10.140 10.430 0.00 0.00 0.6340   14.250 14.560 14.700 14.590 14.690 9.920 10.260     318     0.4680 332.50 6.42   0.000 0.000 16.383 12.320 4.068 16.693 12.561 4.140
WS7MET_125 2018-07-19 02:05:00 125 30483.0 14.390 14.620 14.760 14.740 14.750 75.070 74.800 10.040 10.330 0.00 0.00 17.440 16.750 14.600 11.230 12.660 14.450 14.640 14.800 14.790 14.840 10.110 10.370 0.00 0.00 0.5030   14.350 14.590 14.730 14.660 14.710 9.980 10.280     318     0.4390 341.90 4.47   0.000 0.000 16.394 12.312 4.087 16.769 12.553 4.226
WS7MET_125 2018-07-19 02:00:00 125 30483.0 14.390 14.650 14.800 14.780 14.820 75.100 74.630 10.050 10.330 0.00 0.00 17.440 16.750 14.590 11.230 12.670 14.450 14.660 14.810 14.900 14.840 10.110 10.430 0.00 0.00 0.5160   14.320 14.640 14.790 14.690 14.790 9.980 10.270     318     0.4490 344.90 4.03   0.000 0.000 16.394 12.320 4.082 16.812 12.553 4.265
WS7MET_125 2018-07-19 01:55:00 125 30483.0 14.460 14.690 14.840 14.880 14.840 75.140 74.360 10.120 10.370 0.00 0.00 17.450 16.750 14.590 11.230 12.670 14.550 14.730 14.880 14.960 14.880 10.190 10.450 0.00 0.00 0.6140   14.380 14.660 14.810 14.790 14.810 10.010 10.290     318     0.4970 342.30 6.36   0.000 0.000 16.468 12.378 4.094 16.921 12.586 4.338
WS7MET_125 2018-07-19 01:50:00 125 30483.0 14.580 14.770 14.910 14.910 14.900 74.690 74.380 10.150 10.410 0.00 0.00 17.460 16.750 14.590 11.230 12.670 14.660 14.810 14.950 15.000 14.920 10.200 10.490 0.00 0.00 0.5290   14.520 14.730 14.890 14.830 14.880 10.090 10.290     318     0.4020 334.20 3.54   0.000 0.000 16.596 12.403 4.201 16.953 12.620 4.343
WS7MET_125 2018-07-19 01:45:00 125 30483.0 14.660 14.880 15.000 15.010 14.970 74.190 73.950 10.130 10.410 0.00 0.00 17.460 16.750 14.590 11.230 12.670 14.730 14.920 15.050 15.070 15.060 10.190 10.480 0.00 0.00 0.5950   14.590 14.820 14.950 14.930 14.900 10.060 10.360     318     0.5060 343.30 2.27   0.000 0.000 16.682 12.386 4.306 17.063 12.620 4.445
WS7MET_125 2018-07-19 01:40:00 125 30483.0 14.690 14.930 15.050 15.040 15.070 74.280 73.910 10.180 10.440 0.00 0.00 17.470 16.750 14.590 11.230 12.670 14.730 14.930 15.060 15.100 15.090 10.240 10.500 0.00 0.00 0.5880   14.620 14.920 15.040 14.960 15.050 10.120 10.400     318     0.4490 342.50 4.85   0.000 0.000 16.715 12.428 4.299 17.096 12.645 4.460
WS7MET_125 2018-07-19 01:35:00 125 30483.0 14.730 14.950 15.080 15.080 15.070 74.060 73.770 10.170 10.450 0.00 0.00 17.470 16.750 14.590 11.230 12.670 14.830 14.970 15.110 15.170 15.090 10.260 10.520 0.00 0.00 0.6080   14.620 14.930 15.060 15.000 15.040 10.060 10.370     318     0.4690 340.50 1.63   0.000 0.000 16.758 12.419 4.347 17.140 12.654 4.496
WS7MET_125 2018-07-19 01:30:00 125 30483.0 14.830 15.000 15.150 15.130 15.130 73.520 73.530 10.150 10.450 0.00 0.00 17.480 16.750 14.590 11.230 12.680 14.900 15.030 15.180 15.200 15.160 10.260 10.520 0.00 0.00 0.5810   14.760 14.970 15.110 15.030 15.090 10.100 10.370     318     0.4250 337.40 3.02   0.000 0.000 16.866 12.403 4.466 17.195 12.654 4.552
WS7MET_125 2018-07-19 01:25:00 125 30483.0 14.940 15.070 15.210 15.190 15.180 72.910 73.110 10.140 10.420 0.00 0.00 17.480 16.750 14.590 11.230 12.680 15.000 15.100 15.240 15.310 15.220 10.200 10.490 0.00 0.00 0.5230   14.860 15.030 15.180 15.070 15.140 10.050 10.330     318     0.4570 335.50 3.96   0.000 0.000 16.986 12.394 4.602 17.262 12.629 4.642
WS7MET_125 2018-07-19 01:20:00 125 30483.0 15.000 15.140 15.280 15.270 15.260 72.630 72.790 10.140 10.430 0.00 0.00 17.490 16.750 14.590 11.230 12.680 15.070 15.170 15.310 15.340 15.290 10.220 10.510 0.00 0.00 0.5360   14.900 15.100 15.240 15.170 15.220 10.040 10.340     318     0.4090 343.90 3.50   0.000 0.000 17.052 12.394 4.667 17.351 12.637 4.721
WS7MET_125 2018-07-19 01:15:00 125 30483.0 15.030 15.220 15.350 15.370 15.300 72.420 72.370 10.120 10.440 0.00 0.00 17.500 16.750 14.590 11.230 12.680 15.070 15.270 15.400 15.410 15.340 10.180 10.500 0.00 0.00 0.4570   14.930 15.170 15.310 15.240 15.270 10.040 10.330     318     0.4060 344.80 3.97   0.000 0.000 17.085 12.378 4.712 17.462 12.645 4.825
WS7MET_125 2018-07-19 01:10:00 125 30483.0 15.080 15.310 15.480 15.470 15.450 72.370 71.850 10.160 10.430 0.00 0.00 17.510 16.750 14.590 11.230 12.680 15.170 15.350 15.520 15.510 15.570 10.260 10.510 0.00 0.00 0.5880   15.030 15.270 15.400 15.410 15.350 10.090 10.370     318     0.3960 342.10 2.29   0.000 0.000 17.140 12.411 4.736 17.575 12.637 4.947
WS7MET_125 2018-07-19 01:05:00 125 30483.0 15.090 15.360 15.530 15.490 15.560 72.100 71.490 10.120 10.370 0.00 0.00 17.510 16.750 14.590 11.230 12.690 15.200 15.370 15.550 15.580 15.610 10.200 10.430 0.00 0.00 0.5490   15.030 15.350 15.520 15.440 15.510 10.060 10.290     318     0.4100 342.20 5.48   0.000 0.000 17.151 12.378 4.785 17.597 12.586 5.017
WS7MET_125 2018-07-19 01:00:00 125 30483.0 15.100 15.350 15.540 15.520 15.590 72.220 71.200 10.140 10.340 0.00 0.00 17.510 16.750 14.590 11.230 12.690 15.170 15.360 15.550 15.610 15.610 10.260 10.440 0.00 0.00 0.5360   15.000 15.340 15.510 15.440 15.570 10.000 10.250     318     0.4510 349.10 5.79   0.000 0.000 17.162 12.394 4.768 17.631 12.561 5.078
WS7MET_125 2018-07-19 00:55:00 125 30483.0 15.080 15.350 15.510 15.510 15.560 71.950 71.080 10.070 10.300 0.00 0.00 17.520 16.750 14.590 11.230 12.690 15.130 15.350 15.520 15.580 15.590 10.180 10.400 0.00 0.00 0.5750   14.960 15.340 15.500 15.410 15.520 9.950 10.230     318     0.4410 351.10 1.50   0.000 0.000 17.140 12.336 4.808 17.620 12.528 5.096
WS7MET_125 2018-07-19 00:50:00 125 30483.0 15.130 15.380 15.540 15.560 15.530 71.710 70.900 10.070 10.310 0.00 0.00 17.520 16.750 14.580 11.230 12.690 15.200 15.430 15.580 15.610 15.610 10.180 10.390 0.00 0.00 0.5550   15.000 15.340 15.500 15.480 15.470 9.970 10.250     318     0.4210 350.70 9.16   0.000 0.000 17.195 12.336 4.865 17.676 12.536 5.144
WS7MET_125 2018-07-19 00:45:00 125 30483.0 15.170 15.440 15.590 15.580 15.650 71.340 70.600 10.030 10.280 0.00 0.00 17.530 16.750 14.580 11.230 12.700 15.240 15.450 15.600 15.650 15.650 10.110 10.380 0.00 0.00 0.4250   15.130 15.430 15.590 15.510 15.610 9.940 10.180     318     0.3780 347.20 6.09   0.000 0.000 17.239 12.303 4.941 17.699 12.511 5.204
WS7MET_125 2018-07-19 00:40:00 125 30483.0 15.230 15.450 15.600 15.620 15.650 71.210 70.410 10.060 10.270 0.00 0.00 17.530 16.750 14.580 11.230 12.700 15.270 15.480 15.620 15.680 15.650 10.150 10.330 0.00 0.00 0.4970   15.130 15.440 15.590 15.540 15.630 9.940 10.190     318     0.4290 353.90 0.85   0.000 0.000 17.306 12.328 4.982 17.745 12.503 5.251
WS7MET_125 2018-07-19 00:35:00 125 30483.0 15.240 15.480 15.640 15.680 15.670 70.820 70.030 9.990 10.240 0.00 0.00 17.540 16.750 14.580 11.230 12.700 15.310 15.490 15.650 15.750 15.720 10.070 10.300 0.00 0.00 0.5030   15.170 15.480 15.620 15.610 15.640 9.890 10.130     318     0.3860 352.00 0.52   0.000 0.000 17.317 12.271 5.053 17.813 12.478 5.339
WS7MET_125 2018-07-19 00:30:00 125 30483.0 15.280 15.510 15.650 15.680 15.690 70.800 70.040 10.030 10.250 0.00 0.00 17.550 16.750 14.580 11.230 12.700 15.340 15.530 15.650 15.780 15.720 10.070 10.360 0.00 0.00 0.4830   15.200 15.490 15.640 15.610 15.650 9.900 10.180     318     0.3880 344.90 5.19   0.000 0.000 17.362 12.303 5.070 17.813 12.486 5.337
WS7MET_125 2018-07-19 00:25:00 125 30483.0 15.290 15.540 15.670 15.680 15.700 71.030 70.290 10.080 10.310 0.00 0.00 17.550 16.750 14.580 11.230 12.700 15.340 15.560 15.670 15.750 15.720 10.140 10.440 0.00 0.00 0.4830   15.200 15.530 15.650 15.610 15.670 9.950 10.220     318     0.4330 341.90 0.51   0.000 0.000 17.373 12.345 5.033 17.813 12.536 5.292
WS7MET_125 2018-07-19 00:20:00 125 30483.0 15.270 15.540 15.680 15.670 15.710 71.070 70.370 10.080 10.300 0.00 0.00 17.550 16.750 14.570 11.230 12.700 15.340 15.560 15.700 15.750 15.730 10.140 10.370 0.00 0.00 0.6400   15.200 15.530 15.670 15.610 15.700 10.010 10.240     318     0.4960 346.00 2.53   0.000 0.000 17.351 12.345 5.020 17.801 12.528 5.275
WS7MET_125 2018-07-19 00:15:00 125 30483.0 15.280 15.570 15.700 15.710 15.730 71.430 70.700 10.160 10.420 0.00 0.00 17.560 16.740 14.570 11.230 12.700 15.340 15.600 15.720 15.750 15.740 10.220 10.480 0.00 0.00 0.4900   15.200 15.560 15.690 15.650 15.720 10.080 10.290     318     0.4310 339.60 1.10   0.000 0.000 17.362 12.411 4.960 17.847 12.629 5.229
WS7MET_125 2018-07-19 00:10:00 125 30483.0 15.380 15.610 15.730 15.700 15.730 70.690 70.450 10.100 10.360 0.00 0.00 17.560 16.740 14.570 11.230 12.710 15.480 15.630 15.760 15.820 15.760 10.240 10.460 0.00 0.00 0.5420   15.270 15.600 15.720 15.580 15.700 10.020 10.260     318     0.4690 341.00 0.96   0.000 0.000 17.474 12.361 5.121 17.836 12.578 5.270
WS7MET_125 2018-07-19 00:05:00 125 30483.0 15.460 15.640 15.770 15.750 15.730 69.960 69.870 10.020 10.280 0.00 0.00 17.570 16.740 14.570 11.230 12.710 15.580 15.690 15.820 15.850 15.780 10.110 10.380 0.00 0.00 0.4570   15.410 15.620 15.760 15.650 15.690 9.950 10.170     318     0.4140 339.10 1.00   0.000 0.000 17.563 12.295 5.276 17.893 12.511 5.391
WS7MET_125 2018-07-19 00:00:00 125 30483.0 15.560 15.760 15.880 15.890 15.870 69.570 69.400 10.030 10.310 0.00 0.00 17.570 16.740 14.570 11.230 12.720 15.650 15.780 15.910 15.950 15.980 10.140 10.370 0.00 0.00 0.4900   15.480 15.700 15.830 15.780 15.760 9.950 10.220     318     0.3670 328.90 10.07   0.000 0.000 17.676 12.303 5.379 18.054 12.536 5.524
WS7MET_125 2018-07-18 23:55:00 125 30483.0 15.560 15.770 15.920 15.890 15.920 69.480 69.320 10.010 10.290 0.00 0.00 17.570 16.740 14.570 11.230 12.720 15.680 15.790 15.950 15.990 15.980 10.130 10.420 0.00 0.00 0.5360   15.510 15.750 15.900 15.780 15.850 9.930 10.190     318     0.4060 347.90 2.68   0.000 0.000 17.676 12.287 5.395 18.054 12.519 5.539
WS7MET_125 2018-07-18 23:50:00 125 30483.0 15.610 15.830 15.990 15.950 15.970 69.050 68.930 9.970 10.270 0.00 0.00 17.580 16.730 14.570 11.230 12.720 15.680 15.860 16.020 16.020 16.020 10.100 10.320 0.00 0.00 0.5230   15.540 15.790 15.950 15.850 15.910 9.880 10.210     318     0.3970 343.30 5.03   0.000 0.000 17.733 12.254 5.488 18.123 12.503 5.631
WS7MET_125 2018-07-18 23:45:00 125 30483.0 15.690 15.890 16.050 16.030 16.060 69.050 68.630 10.040 10.280 0.00 0.00 17.590 16.730 14.570 11.230 12.720 15.750 15.910 16.080 16.090 16.090 10.150 10.350 0.00 0.00 0.5030   15.650 15.860 16.020 15.950 16.020 9.940 10.190     318     0.3950 346.50 2.79   0.000 0.000 17.824 12.312 5.517 18.216 12.511 5.714
WS7MET_125 2018-07-18 23:40:00 125 30483.0 15.750 15.930 16.100 16.060 16.100 68.790 68.550 10.040 10.290 0.00 0.00 17.600 16.730 14.570 11.230 12.720 15.820 15.950 16.110 16.120 16.130 10.190 10.350 0.00 0.00 0.5620   15.680 15.910 16.080 15.990 16.070 9.960 10.220     318     0.4690 350.40 2.58   0.000 0.000 17.893 12.312 5.584 18.251 12.519 5.740
WS7MET_125 2018-07-18 23:35:00 125 30483.0 15.840 15.970 16.130 16.110 16.110 68.600 68.470 10.090 10.320 0.00 0.00 17.600 16.730 14.570 11.230 12.730 15.920 16.000 16.160 16.190 16.130 10.150 10.410 0.00 0.00 0.6210   15.780 15.940 16.110 16.020 16.090 9.990 10.240     318     0.5360 351.60 3.94   0.000 0.000 17.996 12.353 5.651 18.309 12.545 5.773
WS7MET_125 2018-07-18 23:30:00 125 30483.0 15.890 16.060 16.210 16.200 16.170 68.010 68.000 10.010 10.310 0.00 0.00 17.600 16.730 14.570 11.230 12.730 15.920 16.110 16.260 16.260 16.230 10.120 10.410 0.00 0.00 0.4900   15.820 16.000 16.160 16.120 16.130 9.860 10.200     318     0.4090 343.30 8.06   0.000 0.000 18.054 12.287 5.775 18.415 12.536 5.893
WS7MET_125 2018-07-18 23:25:00 125 30483.0 15.940 16.160 16.310 16.260 16.320 67.860 67.630 10.020 10.280 0.00 0.00 17.600 16.730 14.570 11.230 12.730 15.990 16.190 16.320 16.330 16.370 10.080 10.340 0.00 0.00 0.3920   15.890 16.120 16.270 16.190 16.240 9.940 10.210     318     0.3440 336.90 4.93   0.000 0.000 18.112 12.295 5.821 18.485 12.511 5.984
WS7MET_125 2018-07-18 23:20:00 125 30483.0 15.940 16.170 16.320 16.290 16.330 67.830 67.450 10.010 10.270 0.00 0.00 17.610 16.730 14.570 11.230 12.740 15.990 16.180 16.340 16.360 16.370 10.100 10.350 0.00 0.00 0.5680   15.850 16.160 16.300 16.190 16.310 9.920 10.210     318     0.4410 341.10 3.76   0.000 0.000 18.112 12.287 5.826 18.521 12.503 6.028
WS7MET_125 2018-07-18 23:15:00 125 30483.0 15.950 16.180 16.350 16.320 16.360 67.730 67.110 10.000 10.220 0.00 0.00 17.610 16.730 14.570 11.230 12.730 15.990 16.190 16.360 16.400 16.370 10.140 10.300 0.00 0.00 0.4440   15.850 16.160 16.340 16.260 16.340 9.910 10.120     318     0.3450 341.20 2.13   0.000 0.000 18.123 12.279 5.848 18.556 12.461 6.103
WS7MET_125 2018-07-18 23:10:00 125 30483.0 15.990 16.200 16.370 16.320 16.390 67.240 66.760 9.930 10.140 0.00 0.00 17.610 16.730 14.570 11.230 12.740 16.060 16.210 16.370 16.400 16.420 10.010 10.320 0.00 0.00 0.5420   15.920 16.190 16.360 16.260 16.370 9.840 10.060     318     0.4820 342.70 1.93   0.000 0.000 18.170 12.221 5.952 18.556 12.394 6.168
WS7MET_125 2018-07-18 23:05:00 125 30483.0 15.980 16.200 16.340 16.280 16.400 67.640 67.070 10.020 10.170 0.00 0.00 17.610 16.730 14.570 11.230 12.740 16.020 16.210 16.370 16.330 16.430 10.250 10.280 0.00 0.00 0.6340   15.920 16.190 16.320 16.190 16.310 9.910 10.090     318     0.4890 340.40 3.63   0.000 0.000 18.158 12.295 5.876 18.509 12.419 6.095
WS7MET_125 2018-07-18 23:00:00 125 30483.0 16.020 16.210 16.330 16.280 16.320 67.720 67.680 10.070 10.300 0.00 0.00 17.620 16.730 14.570 11.230 12.750 16.090 16.210 16.340 16.360 16.350 10.260 10.410 0.00 0.00 0.6730   15.950 16.200 16.320 16.190 16.310 9.970 10.200     318     0.4770 336.40 4.98   0.000 0.000 18.204 12.336 5.876 18.509 12.528 5.982
WS7MET_125 2018-07-18 22:55:00 125 30483.0 16.050 16.230 16.350 16.330 16.340 67.560 67.570 10.060 10.340 0.00 0.00 17.620 16.730 14.570 11.230 12.750 16.120 16.250 16.370 16.400 16.380 10.220 10.540 0.00 0.00 0.5680   15.920 16.210 16.340 16.190 16.330 9.950 10.210     318     0.5030 339.20 5.69   0.000 0.000 18.239 12.328 5.917 18.568 12.561 6.022
WS7MET_125 2018-07-18 22:50:00 125 30483.0 16.130 16.290 16.410 16.410 16.380 67.360 67.330 10.100 10.350 0.00 0.00 17.630 16.730 14.570 11.230 12.750 16.190 16.350 16.470 16.470 16.460 10.230 10.550 0.00 0.00 0.5230   15.990 16.240 16.370 16.330 16.330 9.950 10.280     318     0.4140 337.10 6.43   0.000 0.000 18.333 12.361 5.984 18.663 12.570 6.097
WS7MET_125 2018-07-18 22:45:00 125 30483.0 16.200 16.390 16.510 16.490 16.500 67.400 66.980 10.170 10.360 0.00 0.00 17.630 16.720 14.570 11.220 12.750 16.260 16.430 16.540 16.600 16.550 10.260 10.440 0.00 0.00 0.5680   16.120 16.350 16.470 16.400 16.460 10.050 10.250     318     0.4510 344.40 5.45   0.000 0.000 18.415 12.419 6.003 18.758 12.578 6.194
WS7MET_125 2018-07-18 22:40:00 125 30483.0 16.230 16.440 16.560 16.530 16.550 66.960 66.730 10.100 10.340 0.00 0.00 17.630 16.710 14.570 11.220 12.760 16.290 16.440 16.580 16.600 16.590 10.270 10.420 0.00 0.00 0.6080   16.160 16.430 16.540 16.500 16.520 9.990 10.280     318     0.4470 333.70 10.78   0.000 0.000 18.450 12.361 6.096 18.806 12.561 6.257
WS7MET_125 2018-07-18 22:35:00 125 30483.0 16.240 16.450 16.610 16.570 16.590 67.080 66.580 10.140 10.340 0.00 0.00 17.630 16.710 14.570 11.220 12.760 16.330 16.460 16.640 16.640 16.620 10.270 10.420 0.00 0.00 0.5230   16.120 16.440 16.580 16.530 16.570 9.970 10.290     318     0.4170 343.80 2.15   0.000 0.000 18.462 12.394 6.078 18.854 12.561 6.301
WS7MET_125 2018-07-18 22:30:00 125 30483.0 16.310 16.480 16.650 16.600 16.630 66.680 66.440 10.120 10.330 0.00 0.00 17.640 16.700 14.570 11.220 12.760 16.360 16.510 16.660 16.670 16.660 10.210 10.410 0.00 0.00 0.5100   16.190 16.460 16.630 16.500 16.620 10.000 10.240     318     0.4570 340.90 0.78   0.000 0.000 18.544 12.378 6.179 18.890 12.553 6.339
WS7MET_125 2018-07-18 22:25:00 125 30483.0 16.330 16.540 16.710 16.660 16.710 66.630 66.310 10.130 10.370 0.00 0.00 17.640 16.700 14.570 11.220 12.770 16.430 16.560 16.740 16.740 16.790 10.360 10.500 0.00 0.00 0.6400   16.260 16.520 16.660 16.600 16.620 10.010 10.290     318     0.5150 341.30 1.42   0.000 0.000 18.568 12.386 6.196 18.962 12.586 6.388
WS7MET_125 2018-07-18 22:20:00 125 30483.0 16.350 16.560 16.710 16.640 16.700 66.340 66.400 10.080 10.370 0.00 0.00 17.640 16.700 14.570 11.220 12.770 16.500 16.590 16.710 16.700 16.730 10.180 10.410 0.00 0.00 0.5290   16.290 16.540 16.690 16.600 16.680 10.010 10.310     318     0.4900 341.00 1.17   0.000 0.000 18.592 12.345 6.258 18.938 12.586 6.363
WS7MET_125 2018-07-18 22:15:00 125 30483.0 16.440 16.620 16.760 16.720 16.740 66.490 66.320 10.190 10.420 0.00 0.00 17.640 16.700 14.570 11.220 12.770 16.530 16.640 16.780 16.770 16.770 10.270 10.470 0.00 0.00 0.6210   16.330 16.600 16.730 16.600 16.690 10.080 10.320     318     0.4920 338.90 4.41   0.000 0.000 18.698 12.436 6.266 19.034 12.629 6.411
WS7MET_125 2018-07-18 22:10:00 125 30483.0 16.460 16.650 16.810 16.780 16.810 66.660 66.410 10.250 10.500 0.00 0.00 17.640 16.700 14.570 11.220 12.780 16.530 16.660 16.830 16.840 16.850 10.350 10.560 0.00 0.00 0.6790   16.360 16.630 16.780 16.740 16.750 10.180 10.420     318     0.4460 343.70 3.38   0.000 0.000 18.722 12.486 6.242 19.107 12.696 6.418
WS7MET_125 2018-07-18 22:05:00 125 30483.0 16.510 16.700 16.820 16.760 16.810 66.780 66.700 10.330 10.550 0.00 0.00 17.640 16.700 14.570 11.220 12.780 16.570 16.740 16.840 16.840 16.840 10.500 10.640 0.00 0.00 0.6730   16.400 16.660 16.810 16.700 16.770 10.200 10.470     318     0.4940 349.80 3.23   0.000 0.000 18.782 12.553 6.239 19.083 12.739 6.355
WS7MET_125 2018-07-18 22:00:00 125 30483.0 16.550 16.770 16.890 16.850 16.820 66.880 66.700 10.390 10.640 0.00 0.00 17.650 16.700 14.570 11.220 12.790 16.640 16.830 16.980 16.980 16.950 10.530 10.710 0.00 0.00 0.5750   16.500 16.730 16.830 16.770 16.730 10.320 10.550     318     0.5040 342.70 6.79   0.000 0.000 18.830 12.603 6.236 19.192 12.815 6.391
WS7MET_125 2018-07-18 21:55:00 125 30483.0 16.590 16.830 17.000 16.940 17.020 67.330 66.390 10.530 10.650 0.00 0.00 17.650 16.700 14.570 11.220 12.790 16.670 16.850 17.000 16.980 17.060 10.710 10.720 0.00 0.00 0.7060   16.530 16.810 16.980 16.870 16.950 10.360 10.590     318     0.5640 346.90 5.04   0.000 0.000 18.878 12.722 6.167 19.302 12.824 6.487
WS7MET_125 2018-07-18 21:50:00 125 30483.0 16.630 16.840 17.000 16.940 17.000 66.630 66.330 10.410 10.640 0.00 0.00 17.650 16.690 14.570 11.220 12.790 16.740 16.850 17.010 17.050 17.050 10.500 10.740 0.00 0.00 0.5880   16.530 16.830 16.980 16.840 16.970 10.340 10.540     318     0.4690 340.40 4.14   0.000 0.000 18.926 12.620 6.316 19.302 12.815 6.499
WS7MET_125 2018-07-18 21:45:00 125 30483.0 16.630 16.860 17.010 16.930 17.040 66.690 66.470 10.430 10.660 0.00 0.00 17.650 16.690 14.570 11.220 12.800 16.700 16.870 17.040 17.010 17.080 10.530 10.790 0.00 0.00 0.5880   16.570 16.850 17.000 16.840 16.990 10.310 10.540     318     0.4860 343.30 3.87   0.000 0.000 18.926 12.637 6.304 19.290 12.832 6.468
WS7MET_125 2018-07-18 21:40:00 125 30483.0 16.640 16.840 16.990 16.890 17.030 67.040 67.070 10.510 10.750 0.00 0.00 17.650 16.680 14.570 11.220 12.800 16.700 16.850 17.000 16.940 17.060 10.600 10.860 0.00 0.00 0.6400   16.570 16.830 16.960 16.810 16.980 10.430 10.660     318     0.5370 344.00 2.77   0.000 0.000 18.938 12.705 6.242 19.241 12.910 6.336
WS7MET_125 2018-07-18 21:35:00 125 30483.0 16.630 16.810 16.960 16.870 16.970 67.060 67.080 10.500 10.740 0.00 0.00 17.650 16.680 14.570 11.220 12.800 16.700 16.830 16.970 16.940 17.000 10.590 10.820 0.00 0.00 0.6340   16.530 16.790 16.960 16.810 16.950 10.380 10.670     318     0.5130 336.20 1.88   0.000 0.000 18.926 12.696 6.234 19.216 12.901 6.326
WS7MET_125 2018-07-18 21:30:00 125 30483.0 16.630 16.800 16.960 16.890 16.980 66.950 66.870 10.480 10.710 0.00 0.00 17.650 16.680 14.560 11.220 12.810 16.700 16.800 16.960 16.940 17.010 10.540 10.750 0.00 0.00 0.5550   16.570 16.790 16.950 16.840 16.950 10.400 10.630     318     0.4710 347.90 3.19   0.000 0.000 18.926 12.679 6.255 19.241 12.875 6.374
WS7MET_125 2018-07-18 21:25:00 125 30483.0 16.670 16.830 16.970 16.940 16.950 67.000 66.890 10.530 10.760 0.00 0.00 17.650 16.680 14.560 11.220 12.810 16.740 16.870 17.010 17.010 17.010 10.630 10.840 0.00 0.00 0.6660   16.570 16.800 16.960 16.870 16.890 10.460 10.670     318     0.5750 347.70 3.51   0.000 0.000 18.974 12.722 6.261 19.302 12.918 6.391
WS7MET_125 2018-07-18 21:20:00 125 30483.0 16.680 16.860 16.990 16.970 17.000 67.270 67.250 10.600 10.870 0.00 0.00 17.650 16.680 14.560 11.220 12.820 16.700 16.870 17.010 17.050 17.060 10.710 10.950 0.00 0.00 0.5550   16.600 16.850 16.980 16.910 16.910 10.500 10.820     318     0.4820 340.60 4.85   0.000 0.000 18.986 12.781 6.214 19.339 13.013 6.333
WS7MET_125 2018-07-18 21:15:00 125 30483.0 16.690 16.890 17.020 17.020 16.990 67.340 67.100 10.630 10.890 0.00 0.00 17.650 16.680 14.560 11.220 12.810 16.810 16.910 17.060 17.080 17.040 10.750 10.980 0.00 0.00 0.5750   16.600 16.870 16.990 16.940 16.950 10.530 10.780     318     0.4860 350.70 9.37   0.000 0.000 18.998 12.807 6.205 19.400 13.030 6.383
WS7MET_125 2018-07-18 21:10:00 125 30483.0 16.760 16.990 17.140 17.120 17.090 67.450 66.920 10.720 10.940 0.00 0.00 17.650 16.680 14.560 11.220 12.820 16.840 17.030 17.180 17.220 17.170 10.870 11.040 0.00 0.00 0.5810   16.700 16.910 17.070 17.050 16.980 10.640 10.870     318     0.4390 343.40 10.06   0.000 0.000 19.083 12.884 6.211 19.523 13.074 6.458
WS7MET_125 2018-07-18 21:05:00 125 30483.0 16.780 17.030 17.200 17.190 17.270 67.910 67.000 10.830 11.020 0.00 0.00 17.650 16.680 14.560 11.220 12.830 16.840 17.050 17.210 17.280 17.340 10.980 11.100 0.00 0.00 0.4900   16.700 17.030 17.180 17.110 17.190 10.710 10.940     318     0.3870 336.90 7.36   0.000 0.000 19.107 12.979 6.131 19.610 13.144 6.471
WS7MET_125 2018-07-18 21:00:00 125 30483.0 16.830 17.010 17.170 17.130 17.220 67.800 67.410 10.860 11.060 0.00 0.00 17.650 16.680 14.560 11.220 12.830 16.870 17.030 17.180 17.220 17.260 10.960 11.200 0.00 0.00 0.4700   16.770 17.000 17.160 17.010 17.190 10.800 10.950     318     0.3770 348.20 3.73   0.000 0.000 19.168 13.004 6.172 19.536 13.179 6.367
WS7MET_125 2018-07-18 20:55:00 125 30483.0 16.870 17.030 17.170 17.150 17.140 67.350 67.490 10.800 11.100 0.00 0.00 17.650 16.680 14.560 11.220 12.840 16.980 17.070 17.210 17.220 17.200 10.890 11.180 0.00 0.00 0.5550   16.770 17.000 17.140 17.080 17.100 10.680 11.010     318     0.4370 352.30 5.10   0.000 0.000 19.216 12.953 6.274 19.560 13.214 6.359
WS7MET_125 2018-07-18 20:50:00 125 30483.0 16.950 17.090 17.230 17.190 17.230 67.430 67.480 10.890 11.140 0.00 0.00 17.650 16.670 14.560 11.220 12.840 17.050 17.090 17.230 17.280 17.250 11.000 11.220 0.00 0.00 0.5750   16.840 17.080 17.210 17.110 17.200 10.790 11.040     318     0.4530 344.00 5.75   0.000 0.000 19.314 13.030 6.291 19.610 13.249 6.377
WS7MET_125 2018-07-18 20:45:00 125 30483.0 17.050 17.150 17.270 17.240 17.210 67.270 67.440 10.960 11.180 0.00 0.00 17.650 16.670 14.550 11.220 12.850 17.110 17.230 17.340 17.390 17.290 11.060 11.310 0.00 0.00 0.5950   16.940 17.100 17.230 17.150 17.170 10.880 11.090     318     0.4890 348.10 8.90   0.000 0.000 19.437 13.091 6.362 19.672 13.284 6.405
WS7MET_125 2018-07-18 20:40:00 125 30483.0 17.130 17.280 17.400 17.390 17.370 67.070 67.040 10.990 11.230 0.00 0.00 17.650 16.670 14.560 11.220 12.850 17.220 17.320 17.450 17.490 17.420 11.100 11.320 0.00 0.00 0.5880   17.010 17.240 17.360 17.280 17.330 10.840 11.130     318     0.4800 343.30 4.76   0.000 0.000 19.536 13.117 6.433 19.859 13.328 6.546
WS7MET_125 2018-07-18 20:35:00 125 30483.0 17.210 17.380 17.500 17.490 17.430 66.840 66.860 11.010 11.280 0.00 0.00 17.650 16.660 14.550 11.220 12.850 17.320 17.450 17.580 17.630 17.520 11.110 11.420 0.00 0.00 0.5950   17.150 17.340 17.450 17.350 17.380 10.890 11.140     318     0.4440 335.80 7.68   0.000 0.000 19.635 13.135 6.511 19.985 13.372 6.623
WS7MET_125 2018-07-18 20:30:00 125 30483.0 17.300 17.520 17.650 17.640 17.630 67.120 66.590 11.150 11.360 0.00 0.00 17.640 16.660 14.550 11.220 12.860 17.350 17.560 17.700 17.760 17.740 11.280 11.540 0.00 0.00 0.4970   17.220 17.450 17.580 17.520 17.540 11.000 11.220     318     0.3320 349.10 15.88   0.000 0.000 19.747 13.258 6.493 20.175 13.444 6.741
WS7MET_125 2018-07-18 20:25:00 125 30483.0 17.390 17.580 17.730 17.720 17.760 66.980 66.280 11.210 11.370 0.00 0.00 17.630 16.660 14.560 11.220 12.860 17.450 17.580 17.740 17.830 17.800 11.340 11.480 0.00 0.00 0.5490   17.280 17.560 17.700 17.660 17.690 11.040 11.260     318     0.4460 353.80 9.56   0.000 0.000 19.859 13.310 6.558 20.277 13.452 6.837
WS7MET_125 2018-07-18 20:20:00 125 30483.0 17.470 17.620 17.760 17.770 17.790 67.130 66.590 11.330 11.480 0.00 0.00 17.630 16.660 14.550 11.220 12.860 17.560 17.650 17.790 17.830 17.820 11.520 11.610 0.00 0.00 0.5360   17.390 17.580 17.740 17.660 17.760 11.160 11.410     318     0.3400 357.90 19.96   0.000 0.000 19.960 13.417 6.561 20.341 13.551 6.796
WS7MET_125 2018-07-18 20:15:00 125 30483.0 17.570 17.700 17.840 17.840 17.790 66.650 66.530 11.310 11.540 0.00 0.00 17.630 16.650 14.550 11.220 12.870 17.690 17.760 17.900 17.970 17.830 11.420 11.660 0.00 0.00 0.4900   17.490 17.650 17.790 17.690 17.760 11.190 11.430     318     0.3480 358.40 25.18   0.000 0.000 20.086 13.399 6.699 20.431 13.605 6.838
WS7MET_125 2018-07-18 20:10:00 125 30483.0 17.730 17.840 17.970 17.960 17.940 66.700 66.630 11.470 11.680 0.00 0.00 17.630 16.650 14.550 11.220 12.880 17.930 17.890 18.010 18.030 18.020 11.640 11.790 0.00 0.00 0.5100   17.590 17.780 17.910 17.860 17.850 11.290 11.490     318     0.3510 2.13 20.86   0.000 0.000 20.290 13.542 6.757 20.586 13.731 6.870
WS7MET_125 2018-07-18 20:05:00 125 30483.0 17.840 17.980 18.110 18.130 18.080 66.250 66.260 11.470 11.750 0.00 0.00 17.630 16.650 14.550 11.220 12.890 17.900 18.020 18.170 18.240 18.190 11.620 11.870 0.00 0.00 0.6340   17.760 17.900 18.010 18.000 17.920 11.390 11.650     318     0.3120 338.60 16.63   0.000 0.000 20.431 13.542 6.895 20.807 13.795 7.020
WS7MET_125 2018-07-18 20:00:00 125 30483.0 17.960 18.090 18.230 18.260 18.170 65.430 65.270 11.410 11.650 0.00 0.00 17.620 16.650 14.550 11.220 12.900 18.030 18.150 18.310 18.340 18.220 11.650 11.750 0.00 0.00 0.5290   17.830 18.040 18.170 18.140 18.120 11.240 11.490     318     0.3530 8.67 33.83   0.000 0.000 20.586 13.488 7.117 20.978 13.704 7.286
WS7MET_125 2018-07-18 19:55:00 125 30483.0 18.110 18.260 18.400 18.440 18.340 65.540 65.140 11.570 11.790 0.00 0.00 17.620 16.650 14.550 11.220 12.900 18.210 18.330 18.470 18.550 18.430 11.710 11.870 0.00 0.00 0.4180   18.030 18.170 18.310 18.340 18.220 11.460 11.710     318     0.3070 350.70 10.32   0.000 0.000 20.781 13.632 7.161 21.216 13.831 7.396
WS7MET_125 2018-07-18 19:50:00 125 30483.0 18.170 18.360 18.520 18.500 18.580 65.170 64.760 11.550 11.760 1.27 0.00 17.610 16.650 14.560 11.220 12.910 18.270 18.380 18.540 18.610 18.640 11.660 11.870 1.34 0.00 0.4440   18.100 18.330 18.490 18.480 18.420 11.370 11.610     318     0.2850 354.00 11.25   0.000 0.000 20.859 13.614 7.265 21.296 13.804 7.505
WS7MET_125 2018-07-18 19:45:00 125 30483.0 18.310 18.430 18.570 18.590 18.550 65.100 64.670 11.660 11.820 1.48 0.00 17.610 16.650 14.560 11.220 12.910 18.410 18.480 18.630 18.720 18.580 11.890 11.980 2.68 0.00 0.6600   18.170 18.380 18.510 18.480 18.510 11.490 11.670     318     0.3180 6.24 22.76   0.000 0.000 21.043 13.713 7.344 21.416 13.859 7.566
WS7MET_125 2018-07-18 19:40:00 125 30483.0 18.490 18.580 18.720 18.750 18.630 64.900 64.540 11.790 11.950 2.68 0.00 17.610 16.650 14.560 11.220 12.920 18.610 18.670 18.810 18.850 18.730 11.910 12.020 2.68 0.00 0.4640   18.340 18.490 18.630 18.610 18.560 11.650 11.820     318     0.3280 353.50 7.74   0.000 0.000 21.282 13.831 7.470 21.631 13.978 7.670
WS7MET_125 2018-07-18 19:35:00 125 30483.0 18.690 18.770 18.910 18.940 18.830 64.930 64.650 11.980 12.150 2.95 0.00 17.610 16.650 14.560 11.220 12.930 18.790 18.850 19.000 19.090 18.970 12.110 12.270 4.03 0.00 0.4180   18.610 18.670 18.810 18.890 18.700 11.880 12.030     318     0.1680 356.50 25.29   0.000 0.000 21.550 14.006 7.558 21.889 14.164 7.738
WS7MET_125 2018-07-18 19:30:00 125 30483.0 18.740 18.890 19.030 19.020 19.060 64.670 64.260 11.970 12.130 4.03 0.00 17.600 16.650 14.560 11.220 12.930 18.820 18.930 19.050 19.060 19.110 12.080 12.240 4.03 0.00 0.3660   18.680 18.860 19.000 18.960 18.970 11.850 11.980     318     0.1560 343.40 23.76   0.000 0.000 21.618 13.997 7.638 21.999 14.145 7.862
WS7MET_125 2018-07-18 19:25:00 125 30483.0 18.810 18.940 19.080 19.100 19.020 64.360 64.000 11.960 12.150 4.03 0.00 17.590 16.650 14.560 11.220 12.940 18.920 19.010 19.150 19.230 19.090 12.190 12.310 4.03 0.00 0.6730   18.720 18.900 19.040 18.990 18.970 11.800 12.010     318     0.3460 16.62 41.76   0.000 0.000 21.713 13.988 7.738 22.109 14.164 7.959
WS7MET_125 2018-07-18 19:20:00 125 30483.0 18.970 19.140 19.280 19.330 19.150 64.730 64.100 12.200 12.390 4.03 0.00 17.580 16.640 14.560 11.220 12.940 19.060 19.260 19.410 19.500 19.340 12.330 12.470 4.03 0.00 0.8360   18.850 19.020 19.160 19.130 19.000 11.980 12.190     318     0.3940 350.70 29.10   0.000 0.000 21.930 14.211 7.735 22.428 14.389 8.052
WS7MET_125 2018-07-18 19:15:00 125 30483.0 19.090 19.330 19.500 19.520 19.450 64.950 63.940 12.360 12.530 4.03 0.00 17.580 16.630 14.550 11.220 12.950 19.160 19.390 19.550 19.600 19.550 12.610 12.770 4.03 0.00 0.5160   19.020 19.260 19.430 19.400 19.340 12.180 12.380     318     0.3070 349.50 16.26   0.000 0.000 22.095 14.361 7.744 22.695 14.522 8.184
WS7MET_125 2018-07-18 19:10:00 125 30483.0 19.180 19.440 19.610 19.610 19.610 65.340 64.260 12.540 12.700 4.63 0.00 17.570 16.630 14.560 11.220 12.960 19.300 19.470 19.640 19.670 19.670 12.800 12.940 5.37 0.00 0.3590   19.020 19.390 19.570 19.540 19.540 12.300 12.410     318     0.0750 0.16 7.89   0.000 0.000 22.220 14.532 7.701 22.822 14.685 8.156
WS7MET_125 2018-07-18 19:05:00 125 30483.0 19.330 19.550 19.720 19.730 19.680 64.910 63.340 12.580 12.590 5.37 0.00 17.560 16.630 14.560 11.220 12.970 19.400 19.620 19.800 19.840 19.860 12.950 12.870 5.37 0.00 1.1110   19.260 19.480 19.650 19.570 19.540 12.380 11.630     318     0.3210 27.01 49.75   0.000 0.000 22.428 14.570 7.870 22.992 14.579 8.429
WS7MET_125 2018-07-18 19:00:00 125 30483.0 19.390 19.650 19.820 19.850 19.830 64.480 63.230 12.540 12.670 5.37 0.00 17.560 16.630 14.560 11.220 12.980 19.430 19.680 19.860 19.910 19.980 12.720 12.830 5.37 0.00 0.5950   19.330 19.600 19.790 19.740 19.770 12.390 12.480     318     0.3380 351.80 44.80   0.000 0.000 22.512 14.532 7.996 23.164 14.656 8.517
WS7MET_125 2018-07-18 18:55:00 125 30483.0 19.540 19.710 19.880 19.900 19.940 63.490 61.770 12.440 12.370 5.77 0.00 17.550 16.630 14.550 11.230 12.990 19.640 19.730 19.920 19.980 20.050 12.920 12.730 6.71 0.00 0.4570   19.470 19.660 19.850 19.840 19.860 12.020 11.980     318     0.1560 358.90 62.01   0.000 0.000 22.723 14.437 8.296 23.236 14.370 8.883
WS7MET_125 2018-07-18 18:50:00 125 30483.0 19.720 19.840 19.990 20.040 19.910 63.860 62.840 12.700 12.760 6.71 0.00 17.540 16.630 14.550 11.230 13.000 19.810 19.920 20.080 20.150 19.990 13.030 13.010 6.71 0.00 0.8040   19.600 19.750 19.890 19.910 19.820 12.250 12.440     318     0.3230 40.10 73.75   0.000 0.000 22.978 14.685 8.304 23.438 14.743 8.710
WS7MET_125 2018-07-18 18:45:00 125 30483.0 19.930 20.030 20.200 20.290 20.100 63.510 62.460 12.820 12.910 6.71 0.00 17.530 16.630 14.550 11.230 13.010 20.080 20.130 20.310 20.420 20.200 13.100 13.040 6.71 0.00 0.7380   19.770 19.940 20.120 20.120 20.000 12.580 12.490     318     0.1820 357.50 63.68   0.000 0.000 23.279 14.801 8.495 23.803 14.889 8.936
WS7MET_125 2018-07-18 18:40:00 125 30483.0 20.120 20.250 20.450 20.570 20.240 62.670 61.710 12.800 12.980 7.58 0.00 17.530 16.630 14.550 11.230 13.020 20.220 20.370 20.580 20.660 20.390 12.980 13.220 8.05 0.00 0.3460   19.980 20.150 20.320 20.420 20.070 12.600 12.780     318     0.0630 33.77 24.89   0.000 0.000 23.554 14.782 8.793 24.218 14.957 9.273
WS7MET_125 2018-07-18 18:35:00 125 30483.0 20.320 20.500 20.750 20.840 20.630 61.400 59.360 12.670 12.640 9.06 1.34 17.530 16.620 14.550 11.230 13.040 20.490 20.600 20.840 20.970 21.000 12.890 12.980 10.74 1.34 0.5750   20.180 20.390 20.600 20.700 20.390 12.400 11.880     318     0.1450 166.90 65.79   0.000 0.000 23.847 14.656 9.205 24.624 14.627 10.007
WS7MET_125 2018-07-18 18:30:00 125 30483.0 20.600 20.720 20.930 20.990 20.780 61.700 58.900 13.010 12.670 11.41 2.01 17.510 16.620 14.550 11.230 13.050 20.730 20.840 21.040 21.140 20.960 13.330 13.180 13.42 2.68 0.9340   20.420 20.600 20.830 20.870 20.680 12.600 12.180     318     0.3970 126.50 36.97   0.000 0.000 24.263 14.986 9.293 24.852 14.656 10.214
WS7MET_125 2018-07-18 18:25:00 125 30483.0 20.840 20.980 21.170 21.270 20.910 60.340 59.100 12.890 12.980 15.03 3.76 17.500 16.620 14.540 11.220 13.060 20.970 21.120 21.330 21.480 21.110 13.100 13.180 16.10 4.03 0.3270   20.730 20.840 21.040 21.110 20.750 12.310 12.400     318     0.0790 294.80 66.09   0.000 0.000 24.624 14.869 9.766 25.283 14.957 10.341
WS7MET_125 2018-07-18 18:20:00 125 30483.0 21.030 21.260 21.470 21.560 21.210 58.650 56.090 12.640 12.460 17.11 4.03 17.500 16.620 14.540 11.220 13.070 21.170 21.370 21.590 21.750 21.490 13.260 12.890 17.45 4.03 0.5420   20.900 21.130 21.350 21.380 21.000 12.230 12.210     318     0.1970 138.40 59.62   0.000 0.000 24.913 14.627 10.302 25.736 14.456 11.300
WS7MET_125 2018-07-18 18:15:00 125 30483.0 21.190 21.450 21.670 21.810 21.520 58.680 55.530 12.800 12.530 18.79 4.56 17.490 16.610 14.540 11.220 13.080 21.310 21.520 21.760 21.920 21.620 13.080 12.930 20.13 5.37 0.5810   21.110 21.400 21.620 21.690 21.430 12.360 12.190     318     0.1530 46.12 51.00   0.000 0.000 25.159 14.782 10.396 26.132 14.522 11.621
WS7MET_125 2018-07-18 18:10:00 125 30483.0 21.320 21.520 21.810 21.990 21.650 57.780 54.450 12.680 12.400 20.67 5.37 17.480 16.610 14.540 11.220 13.100 21.450 21.590 21.890 22.160 22.020 13.260 12.850 21.47 5.37 0.7120   21.210 21.440 21.760 21.820 21.370 11.940 11.940     318     0.2080 121.90 36.50   0.000 0.000 25.360 14.666 10.707 26.420 14.399 12.034
WS7MET_125 2018-07-18 18:05:00 125 30483.0 21.540 21.680 22.090 22.310 21.490 58.370 54.800 13.050 12.800 24.42 6.57 17.480 16.610 14.540 11.220 13.110 21.690 22.030 22.440 22.640 21.810 13.910 13.120 29.52 6.71 1.1240   21.380 21.540 21.910 22.130 21.270 12.700 12.240     318     0.2520 329.50 76.04   0.000 0.000 25.704 15.025 10.701 26.940 14.782 12.177
WS7MET_125 2018-07-18 18:00:00 125 30483.0 21.960 22.260 22.700 22.900 21.820 56.640 50.850 12.980 12.200 65.82 8.19 17.460 16.610 14.540 11.220 13.120 22.270 22.650 23.100 23.120 22.030 13.770 12.880 178.50 9.39 0.8430   21.690 22.060 22.450 22.670 21.550 12.420 11.820     318     0.3560 144.40 38.86   0.000 0.000 26.372 14.957 11.435 27.922 14.211 13.723
WS7MET_125 2018-07-18 17:55:00 125 30483.0 22.430 23.010 23.470 23.190 22.010 54.030 49.950 12.690 12.200 268.70 11.47 17.450 16.610 14.540 11.220 13.140 22.640 23.230 23.690 23.290 22.120 13.310 12.630 299.20 14.76 0.7910   22.160 22.730 23.170 23.080 21.920 12.340 11.900     318     0.1730 107.20 31.43   0.000 0.000 27.137 14.675 12.475 28.415 14.211 14.222
WS7MET_125 2018-07-18 17:50:00 125 30483.0 22.790 23.510 23.960 23.450 22.490 52.040 48.170 12.440 11.880 309.80 18.18 17.450 16.610 14.540 11.220 13.160 22.980 23.640 24.080 23.800 23.020 13.330 12.440 316.70 21.47 1.5480   22.570 23.250 23.680 23.120 21.920 11.450 11.330     318     0.6090 135.00 28.83   0.000 0.000 27.736 14.437 13.302 28.865 13.914 14.961
WS7MET_125 2018-07-18 17:45:00 125 30483.0 23.090 23.880 24.630 24.050 22.730 54.170 47.090 13.330 12.080 325.10 26.50 17.430 16.610 14.550 11.220 13.180 23.250 24.060 24.930 24.210 23.070 14.550 13.000 331.40 30.86 1.6730   22.980 23.570 24.150 23.700 22.470 11.870 11.450     318     0.5590 107.10 56.67   0.000 0.000 28.244 15.303 12.944 29.925 14.099 15.833
WS7MET_125 2018-07-18 17:40:00 125 30483.0 23.390 24.020 24.740 24.120 22.660 51.660 48.360 12.890 12.560 333.80 37.57 17.430 16.610 14.550 11.220 13.200 23.530 24.080 24.970 24.280 22.830 14.190 13.660 338.20 42.94 0.3790   23.190 23.930 24.460 24.010 22.500 12.100 12.030     318     0.0880 162.00 63.86   0.000 0.000 28.760 14.869 13.903 30.051 14.551 15.518
WS7MET_125 2018-07-18 17:35:00 125 30483.0 23.610 24.030 24.370 24.070 22.880 55.460 48.190 14.170 12.460 345.70 49.78 17.430 16.610 14.550 11.220 13.220 23.730 24.250 24.520 24.210 22.990 15.190 13.480 362.30 56.36 0.9730   23.460 23.850 24.210 23.940 22.670 12.880 11.840     318     0.2510 122.70 42.05   0.000 0.000 29.144 16.162 12.981 29.961 14.456 15.523
WS7MET_125 2018-07-18 17:30:00 125 30483.0 23.870 24.420 24.480 24.060 22.850 51.950 47.840 13.410 12.340 371.00 61.99 17.410 16.610 14.550 11.220 13.230 23.970 24.580 24.640 24.180 23.070 14.120 13.740 378.40 65.75 0.9020   23.630 24.210 24.340 23.900 22.700 12.450 11.780     318     0.3530 64.92 69.00   0.000 0.000 29.603 15.383 14.224 29.943 14.342 15.618
WS7MET_125 2018-07-18 17:25:00 125 30483.0 23.960 24.610 24.680 24.250 23.170 52.420 47.350 13.630 12.350 386.20 69.98 17.410 16.610 14.550 11.220 13.250 24.110 24.680 24.760 24.450 23.440 15.370 13.870 394.50 73.80 1.3790   23.870 24.510 24.600 24.070 22.880 11.950 11.640     318     0.4030 119.90 63.93   0.000 0.000 29.764 15.605 14.162 30.286 14.351 15.946
WS7MET_125 2018-07-18 17:20:00 125 30483.0 24.100 24.630 24.720 24.310 23.120 50.620 46.650 13.220 12.180 401.50 75.01 17.400 16.610 14.550 11.220 13.260 24.310 24.760 24.890 24.520 23.500 14.680 13.040 407.90 76.48 0.8230   23.970 24.520 24.600 24.140 22.840 12.070 11.810     318     0.3610 163.70 64.84   0.000 0.000 30.015 15.193 14.821 30.395 14.192 16.216
WS7MET_125 2018-07-18 17:15:00 125 30483.0 24.370 24.800 24.790 24.400 23.290 49.890 47.940 13.240 12.670 416.60 77.63 17.390 16.610 14.550 11.220 13.280 24.480 24.870 24.920 24.550 23.640 14.510 14.150 424.00 77.83 0.7250   24.280 24.690 24.710 24.280 23.030 11.970 11.910     318     0.3480 106.00 53.02   0.000 0.000 30.504 15.213 15.286 30.559 14.656 15.909
WS7MET_125 2018-07-18 17:10:00 125 30483.0 24.640 25.130 24.860 24.460 23.320 50.300 46.100 13.620 12.140 431.70 79.03 17.390 16.610 14.550 11.220 13.310 24.820 25.780 25.200 24.690 23.650 14.950 12.740 438.80 79.17 1.2150   24.410 24.630 24.580 24.210 23.080 12.130 11.710     318     0.5910 143.80 37.19   0.000 0.000 31.001 15.595 15.407 30.669 14.154 16.531
WS7MET_125 2018-07-18 17:05:00 125 30483.0 24.830 25.720 25.120 24.730 23.470 49.000 46.000 13.400 12.350 446.10 80.70 17.370 16.610 14.550 11.220 13.320 24.890 25.840 25.260 24.860 23.680 14.500 13.110 453.50 81.90 0.7910   24.760 25.590 25.020 24.620 23.220 12.150 11.900     318     0.3660 141.00 29.66   0.000 0.000 31.354 15.373 15.991 31.168 14.351 16.831
WS7MET_125 2018-07-18 17:00:00 125 30483.0 24.970 25.820 25.180 24.810 23.710 48.830 47.170 13.480 12.800 461.80 83.90 17.360 16.610 14.550 11.220 13.340 25.130 25.990 25.350 25.060 24.120 14.720 13.650 468.30 85.90 0.9150   24.790 25.590 25.010 24.520 23.310 12.570 12.190     318     0.4850 167.00 39.29   0.000 0.000 31.617 15.453 16.179 31.317 14.782 16.545
WS7MET_125 2018-07-18 16:55:00 125 30483.0 25.190 25.590 25.450 24.840 23.720 50.860 46.530 14.290 12.630 477.10 89.80 17.360 16.610 14.550 11.220 13.350 25.270 25.790 25.720 24.960 24.010 15.670 13.590 484.40 92.60 1.1300   25.100 25.450 25.160 24.650 23.380 12.340 12.160     318     0.5740 131.10 40.31   0.000 0.000 32.034 16.288 15.741 31.373 14.618 16.775
WS7MET_125 2018-07-18 16:50:00 125 30483.0 25.400 25.790 25.910 25.070 24.080 48.670 46.180 13.810 12.720 492.00 98.20 17.340 16.610 14.550 11.220 13.360 25.570 25.880 25.990 25.230 24.520 15.400 13.550 500.50 102.00 0.8560   25.270 25.670 25.750 24.890 23.740 12.140 12.340     318     0.2810 146.20 20.27   0.000 0.000 32.436 15.789 16.650 31.806 14.704 17.118
WS7MET_125 2018-07-18 16:45:00 125 30483.0 25.600 25.570 25.940 25.260 24.340 48.540 45.940 13.940 12.810 506.50 106.30 17.340 16.610 14.550 11.220 13.370 25.710 25.670 25.990 25.440 24.840 15.170 13.570 513.90 110.00 0.9670   25.440 25.480 25.860 25.060 23.920 12.110 12.340     318     0.4490 144.20 44.88   0.000 0.000 32.823 15.923 16.891 32.168 14.791 17.390
WS7MET_125 2018-07-18 16:40:00 125 30483.0 26.010 25.700 26.200 25.470 24.580 47.220 44.630 13.890 12.560 521.30 114.30 17.330 16.610 14.550 11.220 13.370 26.190 25.940 26.420 25.810 24.940 15.670 14.020 527.30 119.40 1.9930   25.710 25.450 26.020 25.230 24.440 12.120 11.720     318     0.9370 174.30 41.36   0.000 0.000 33.630 15.871 17.750 32.571 14.551 18.035
WS7MET_125 2018-07-18 16:35:00 125 30483.0 26.220 25.950 26.450 25.690 24.930 44.870 45.270 13.310 12.980 535.40 123.40 17.320 16.610 14.550 11.220 13.360 26.330 26.180 26.600 25.920 25.330 15.240 14.010 542.10 127.50 1.0850   26.120 25.670 26.180 25.440 24.330 12.450 12.410     318     0.3120 118.30 90.00   0.000 0.000 34.050 15.283 18.772 32.999 14.957 18.060
WS7MET_125 2018-07-18 16:30:00 125 30483.0 26.520 25.750 26.180 25.610 24.790 47.010 45.690 14.270 13.040 549.90 131.40 17.310 16.610 14.550 11.220 13.360 26.940 25.830 26.320 25.750 25.040 15.640 14.120 556.80 135.50 0.9210   26.360 25.640 26.050 25.400 24.340 12.130 12.330     318     0.4680 123.20 63.23   0.000 0.000 34.657 16.267 18.365 32.843 15.016 17.837
WS7MET_125 2018-07-18 16:25:00 125 30483.0 27.160 25.950 26.200 25.710 24.950 46.570 45.930 14.730 13.220 564.50 139.20 17.290 16.600 14.550 11.220 13.340 27.310 26.060 26.310 25.850 25.260 15.890 14.500 570.30 142.20 1.0450   26.840 25.750 26.070 25.610 24.630 12.360 12.090     318     0.5220 101.10 68.09   0.000 0.000 35.985 16.758 19.227 33.038 15.193 17.864
WS7MET_125 2018-07-18 16:20:00 125 30483.0 27.550 25.980 26.180 25.600 24.910 45.280 45.860 14.630 13.080 577.20 145.20 17.290 16.600 14.550 11.220 13.320 27.930 26.100 26.310 25.750 25.200 16.600 14.610 583.70 147.60 2.4890   27.210 25.870 26.070 25.440 24.610 12.220 12.360     318     0.8130 170.00 59.46   0.000 0.000 36.815 16.650 20.145 32.823 15.055 17.771
WS7MET_125 2018-07-18 16:15:00 125 30483.0 28.010 26.250 26.340 25.800 24.860 42.940 43.880 14.190 12.600 591.70 152.30 17.280 16.600 14.550 11.220 13.290 28.710 26.490 26.490 26.020 25.130 16.050 13.080 598.40 155.60 1.0650   27.790 26.020 26.160 25.610 24.680 11.860 12.390     318     0.5200 147.40 43.17   0.000 0.000 37.816 16.183 21.578 33.215 14.589 18.640
WS7MET_125 2018-07-18 16:10:00 125 30483.0 28.880 26.490 26.310 25.680 24.830 41.250 45.090 14.400 12.900 605.50 160.00 17.270 16.600 14.550 11.220 13.280 28.990 26.570 26.430 25.850 25.020 15.980 13.680 611.90 165.00 0.9210   28.680 26.380 26.130 25.540 24.680 11.750 12.420     318     0.4800 140.80 63.48   0.000 0.000 39.774 16.404 23.367 32.979 14.879 18.109
WS7MET_125 2018-07-18 16:05:00 125 30483.0 28.740 26.600 26.390 25.770 24.740 43.050 44.540 14.940 12.800 619.70 169.30 17.250 16.600 14.550 11.220 13.260 28.880 26.710 26.490 26.150 24.880 15.830 13.820 626.60 173.10 1.1630   28.470 26.490 26.270 25.570 24.600 13.740 12.200     318     0.6690 149.10 29.05   0.000 0.000 39.453 16.986 22.469 33.156 14.782 18.388
WS7MET_125 2018-07-18 16:00:00 125 30483.0 28.220 26.690 26.460 26.090 25.100 44.060 44.180 14.830 12.970 632.50 177.70 17.250 16.610 14.550 11.220 13.260 28.510 26.870 26.650 26.390 25.260 16.360 13.850 638.70 181.10 0.9020   28.030 26.460 26.210 25.780 24.850 12.790 12.360     318     0.2860 163.50 42.05   0.000 0.000 38.281 16.866 21.414 33.789 14.947 18.861
WS7MET_125 2018-07-18 15:55:00 125 30483.0 28.000 26.600 26.370 26.020 25.140 44.820 44.240 14.900 12.920 644.60 185.40 17.240 16.600 14.550 11.220 13.240 28.130 26.690 26.570 26.260 25.480 16.300 14.050 650.80 189.20 1.7180   27.860 26.460 26.130 25.850 24.980 13.110 12.450     318     0.9440 153.20 58.54   0.000 0.000 37.794 16.942 20.855 33.650 14.898 18.763
WS7MET_125 2018-07-18 15:50:00 125 30483.0 28.250 26.800 26.570 26.240 25.500 43.730 44.440 14.720 13.190 657.00 192.20 17.230 16.610 14.550 11.220 13.230 28.410 26.990 26.760 26.330 25.790 16.210 13.950 662.90 194.60 3.1950   28.070 26.570 26.320 26.150 25.280 12.410 12.570     318     1.0040 176.30 66.57   0.000 0.000 38.348 16.747 21.578 34.090 15.164 18.940
WS7MET_125 2018-07-18 15:45:00 125 30483.0 28.380 26.440 26.230 25.930 25.340 42.010 44.620 14.240 12.970 669.70 198.30 17.220 16.600 14.550 11.220 13.200 28.610 26.680 26.350 26.050 25.680 15.380 13.520 676.30 199.90 1.9080   28.130 26.270 26.160 25.810 25.170 12.550 12.660     318     0.8150 148.90 58.83   0.000 0.000 38.638 16.235 22.406 33.471 14.947 18.536
WS7MET_125 2018-07-18 15:40:00 125 30483.0 28.790 26.790 26.500 26.140 25.360 41.190 44.220 14.230 13.030 681.60 203.40 17.210 16.600 14.550 11.220 13.200 29.500 27.010 26.800 26.430 25.640 16.100 13.700 688.40 206.60 1.5090   28.510 26.670 26.270 25.920 25.250 12.010 12.570     318     0.9180 122.10 58.60   0.000 0.000 39.568 16.225 23.270 33.889 15.006 18.903
WS7MET_125 2018-07-18 15:35:00 125 30483.0 29.380 27.010 26.930 26.190 25.370 41.980 43.880 15.120 12.950 693.20 207.90 17.200 16.600 14.550 11.220 13.200 29.600 27.080 27.150 26.530 25.550 16.360 13.800 697.70 209.30 1.6790   29.160 26.960 26.790 25.980 25.260 13.070 12.560     318     0.6090 148.70 46.56   0.000 0.000 40.939 17.184 23.753 33.989 14.928 19.075
WS7MET_125 2018-07-18 15:30:00 125 30483.0 29.450 26.980 26.990 26.230 25.560 41.490 44.520 15.000 13.210 703.70 212.00 17.190 16.600 14.550 11.220 13.180 29.570 27.140 27.150 26.330 25.800 16.320 15.010 709.80 214.70 2.1100   29.260 26.790 26.850 25.950 25.380 12.510 12.790     318     0.7970 141.60 66.56   0.000 0.000 41.104 17.052 24.050 34.070 15.183 18.902
WS7MET_125 2018-07-18 15:25:00 125 30483.0 29.400 27.210 27.200 26.340 25.680 42.440 43.750 15.310 13.040 717.00 216.50 17.180 16.600 14.550 11.220 13.160 29.570 27.380 27.310 26.500 25.980 17.070 14.040 721.90 218.70 1.4440   29.290 26.990 27.100 26.120 25.360 13.040 12.600     318     0.7970 153.30 42.38   0.000 0.000 40.986 17.395 23.592 34.291 15.016 19.289
WS7MET_125 2018-07-18 15:20:00 125 30483.0 29.640 27.410 27.310 26.370 25.760 40.190 43.610 14.670 13.020 727.60 220.10 17.180 16.600 14.550 11.220 13.190 29.770 27.580 27.490 26.600 26.060 16.600 14.230 734.00 221.40 1.4700   29.530 27.270 27.180 26.220 25.570 12.390 12.480     318     0.7400 151.80 53.66   0.000 0.000 41.556 16.693 24.855 34.352 14.996 19.371
WS7MET_125 2018-07-18 15:15:00 125 30483.0 29.450 27.410 27.260 26.310 25.840 41.740 44.350 15.090 13.220 738.10 223.40 17.170 16.600 14.550 11.220 13.200 29.670 27.620 27.460 26.560 26.220 16.510 13.930 743.40 225.40 1.3460   29.230 27.290 27.010 26.150 25.640 12.660 12.790     318     0.6350 153.10 43.44   0.000 0.000 41.104 17.151 23.947 34.231 15.193 19.049
WS7MET_125 2018-07-18 15:10:00 125 30483.0 29.130 27.060 26.860 26.100 25.580 42.490 44.770 15.090 13.170 750.10 227.40 17.160 16.610 14.550 11.210 13.200 29.260 27.310 27.040 26.220 26.090 15.940 14.580 756.80 229.40 1.8290   29.020 26.790 26.600 25.980 25.250 13.240 12.480     318     1.0470 146.90 28.60   0.000 0.000 40.353 17.151 23.207 33.809 15.144 18.673
WS7MET_125 2018-07-18 15:05:00 125 30483.0 29.620 27.360 27.300 26.440 25.510 38.900 42.640 14.120 12.740 760.50 230.50 17.150 16.600 14.550 11.210 13.200 30.010 27.690 27.610 26.630 25.760 16.120 13.860 766.20 232.10 1.7840   29.020 26.920 26.870 26.220 25.170 11.600 12.040     318     0.7310 151.10 45.47   0.000 0.000 41.509 16.110 25.362 34.494 14.724 19.786
WS7MET_125 2018-07-18 15:00:00 125 30483.0 30.060 27.730 27.810 26.930 26.080 39.660 41.220 14.830 12.670 770.90 233.70 17.140 16.600 14.550 11.210 13.220 30.350 28.040 28.020 27.110 26.360 16.150 13.470 778.20 236.20 1.9800   29.810 27.550 27.550 26.630 25.680 12.260 12.030     318     0.8390 150.40 53.59   0.000 0.000 42.571 16.866 25.687 35.502 14.656 20.868
WS7MET_125 2018-07-18 14:55:00 125 30483.0 30.060 27.900 27.780 26.880 26.080 39.650 41.840 14.840 12.840 780.50 236.80 17.140 16.610 14.550 11.210 13.230 30.490 28.110 28.120 27.140 26.460 16.540 13.420 785.00 238.80 1.1760   29.670 27.780 27.610 26.730 25.870 12.490 12.400     318     0.6470 105.60 52.94   0.000 0.000 42.571 16.877 25.691 35.398 14.820 20.588
WS7MET_125 2018-07-18 14:50:00 125 30483.0 29.580 27.770 27.860 27.030 26.060 40.500 41.950 14.710 13.020 787.80 239.20 17.130 16.610 14.550 11.210 13.240 29.840 28.020 28.120 27.380 26.460 16.550 14.340 793.00 240.20 1.0650   29.460 27.560 27.710 26.800 25.710 11.760 12.390     318     0.5240 155.30 41.08   0.000 0.000 41.413 16.736 24.641 35.711 14.996 20.730
WS7MET_125 2018-07-18 14:45:00 125 30483.0 30.350 27.990 27.930 27.000 26.320 36.160 41.320 13.640 12.760 798.60 242.60 17.120 16.600 14.550 11.210 13.260 30.560 28.250 28.280 27.420 26.660 15.830 13.680 801.00 242.90 1.4440   30.010 27.720 27.590 26.630 26.010 11.810 11.990     318     0.5230 155.80 57.99   0.000 0.000 43.284 15.615 27.632 35.649 14.743 20.919
WS7MET_125 2018-07-18 14:40:00 125 30483.0 30.670 27.720 27.620 26.680 26.100 38.660 42.100 15.000 12.770 804.00 244.50 17.110 16.610 14.550 11.210 13.270 30.760 27.850 27.820 26.840 26.250 16.040 13.470 808.00 245.60 1.2410   30.560 27.580 27.280 26.500 25.920 13.440 12.370     318     0.7490 157.40 22.14   0.000 0.000 44.082 17.052 27.040 34.985 14.753 20.256
WS7MET_125 2018-07-18 14:35:00 125 30483.0 30.500 27.430 27.250 26.530 25.950 39.760 42.110 15.290 12.630 813.00 246.90 17.110 16.610 14.550 11.210 13.270 30.620 27.560 27.390 26.700 26.030 16.510 12.880 820.00 248.20 1.8100   30.350 27.340 27.110 26.390 25.870 14.130 12.340     318     0.8920 130.60 26.77   0.000 0.000 43.656 17.373 26.299 34.677 14.618 20.075
WS7MET_125 2018-07-18 14:30:00 125 30483.0 30.090 27.380 27.170 26.360 25.790 40.480 42.710 15.210 12.690 823.00 250.70 17.100 16.610 14.550 11.210 13.270 30.350 27.520 27.280 26.530 26.010 15.760 13.600 829.00 252.30 1.4900   29.870 27.240 26.940 26.220 25.600 14.220 12.420     318     0.8230 138.30 26.51   0.000 0.000 42.644 17.284 25.382 34.332 14.675 19.669
WS7MET_125 2018-07-18 14:25:00 125 30483.0 29.790 27.240 27.300 26.530 25.820 39.680 42.080 14.580 12.610 834.00 254.10 17.100 16.610 14.550 11.210 13.290 30.040 27.350 27.390 26.630 25.950 16.740 13.790 839.00 256.30 1.5030   29.600 27.070 27.150 26.390 25.560 11.710 12.100     318     0.9320 144.70 38.60   0.000 0.000 41.916 16.596 25.284 34.677 14.599 20.085
WS7MET_125 2018-07-18 14:20:00 125 30483.0 30.180 27.440 27.510 26.600 25.770 38.120 41.400 14.310 12.440 842.00 257.00 17.090 16.610 14.550 11.210 13.290 30.450 27.690 27.710 26.800 25.880 16.620 13.050 845.00 257.60 2.1360   30.010 27.240 27.310 26.360 25.630 11.810 11.920     318     0.8840 147.00 43.43   0.000 0.000 42.864 16.309 26.525 34.821 14.437 20.405
WS7MET_125 2018-07-18 14:15:00 125 30483.0 30.410 27.540 27.570 26.760 26.060 37.240 41.500 14.120 12.610 847.00 258.70 17.080 16.610 14.550 11.210 13.300 31.030 27.650 27.780 26.870 26.390 16.290 13.900 853.00 260.30 1.5810   30.080 27.370 27.340 26.600 25.790 11.490 11.780     318     0.7800 163.30 54.53   0.000 0.000 43.432 16.110 27.258 35.150 14.599 20.563
WS7MET_125 2018-07-18 14:10:00 125 30483.0 30.970 27.570 27.370 26.570 25.850 37.800 41.040 14.910 12.270 853.00 261.00 17.070 16.610 14.560 11.210 13.330 31.070 27.650 27.550 26.700 25.960 16.040 13.040 859.00 263.00 1.5290   30.900 27.450 27.300 26.390 25.680 13.270 11.810     318     0.7940 142.90 44.75   0.000 0.000 44.843 16.953 27.892 34.759 14.276 20.494
WS7MET_125 2018-07-18 14:05:00 125 30483.0 30.770 27.530 27.370 26.550 25.940 38.260 41.800 14.930 12.520 862.00 262.70 17.070 16.620 14.560 11.210 13.330 30.930 27.690 27.490 26.730 26.390 16.850 14.360 865.00 264.30 1.6920   30.620 27.380 27.220 26.360 25.670 13.290 11.840     318     0.7420 120.20 46.26   0.000 0.000 44.334 16.975 27.372 34.718 14.513 20.206
WS7MET_125 2018-07-18 14:00:00 125 30483.0 30.660 27.550 27.310 26.530 25.910 37.610 41.240 14.550 12.310 870.00 265.80 17.060 16.620 14.550 11.210 13.330 30.760 27.790 27.440 26.600 26.010 16.040 13.760 875.00 267.00 1.6530   30.520 27.350 27.170 26.460 25.760 11.640 11.650     318     0.9960 146.10 26.30   0.000 0.000 44.057 16.564 27.487 34.677 14.314 20.376
WS7MET_125 2018-07-18 13:55:00 125 30483.0 30.360 27.700 27.370 26.590 26.040 38.000 40.320 14.470 12.020 873.00 266.70 17.060 16.620 14.560 11.210 13.330 30.620 27.750 27.480 26.730 26.270 15.500 12.920 880.00 268.40 1.4570   30.040 27.620 27.270 26.460 25.870 13.500 11.450     318     1.0050 142.00 20.31   0.000 0.000 43.308 16.479 26.851 34.800 14.043 20.769
WS7MET_125 2018-07-18 13:50:00 125 30483.0 30.120 27.390 27.190 26.510 25.940 37.920 39.730 14.180 11.730 885.00 270.80 17.050 16.620 14.560 11.210 13.360 30.280 27.690 27.550 26.730 26.110 15.980 13.400 888.00 272.40 1.8690   29.980 27.220 27.000 26.360 25.680 11.240 11.120     318     0.8700 144.60 44.41   0.000 0.000 42.717 16.172 26.519 34.637 13.777 20.875
WS7MET_125 2018-07-18 13:45:00 125 30483.0 30.450 27.580 27.240 26.550 26.150 37.410 39.670 14.280 11.740 887.00 271.70 17.040 16.620 14.560 11.210 13.350 30.620 27.740 27.370 26.630 26.380 15.480 12.580 892.00 273.70 2.4040   30.180 27.370 27.060 26.360 26.060 12.260 11.100     318     1.2200 152.40 23.27   0.000 0.000 43.532 16.277 27.247 34.718 13.786 20.946
WS7MET_125 2018-07-18 13:40:00 125 30483.0 30.130 27.470 27.050 26.430 25.990 37.850 39.600 14.190 11.610 891.00 272.90 17.040 16.620 14.560 11.210 13.360 30.280 27.560 27.170 26.530 26.100 15.450 12.130 894.00 273.70 1.6990   29.940 27.380 26.920 26.360 25.880 12.770 11.260     318     1.2270 132.00 17.12   0.000 0.000 42.742 16.183 26.564 34.474 13.668 20.822
WS7MET_125 2018-07-18 13:35:00 125 30483.0 29.710 27.540 27.450 26.610 26.000 38.230 38.820 13.990 11.470 896.00 274.70 17.030 16.620 14.560 11.210 13.360 29.940 27.640 27.680 26.770 26.220 14.760 12.500 903.00 276.40 2.2470   29.330 27.490 27.110 26.500 25.720 13.220 10.870     318     1.3020 134.00 19.29   0.000 0.000 41.724 15.974 25.773 34.841 13.542 21.316
WS7MET_125 2018-07-18 13:30:00 125 30483.0 28.900 27.700 27.630 26.960 26.090 39.680 37.460 13.800 11.240 902.00 276.10 17.030 16.620 14.560 11.210 13.360 29.260 27.790 27.760 27.180 26.390 16.270 11.720 904.00 277.80 1.1370   28.650 27.510 27.510 26.770 25.840 11.340 10.670     318     0.6060 145.90 43.06   0.000 0.000 39.820 15.778 24.020 35.565 13.337 22.242
WS7MET_125 2018-07-18 13:25:00 125 30483.0 29.070 27.500 27.520 26.820 26.020 35.730 36.510 12.270 10.720 907.00 278.10 17.020 16.620 14.560 11.210 13.360 29.430 27.710 27.710 27.180 26.560 15.490 11.880 911.00 279.10 1.8360   28.920 27.310 27.390 26.630 25.570 9.980 9.520     318     0.9840 149.50 58.83   0.000 0.000 40.213 14.276 25.845 35.274 12.884 22.395
WS7MET_125 2018-07-18 13:20:00 125 30483.0 30.120 28.150 28.220 27.190 26.350 34.170 34.980 12.550 10.410 910.00 279.30 17.020 16.620 14.560 11.210 13.460 30.590 28.690 28.660 27.420 26.670 15.380 11.980 915.00 280.40 2.8290   29.460 27.480 27.640 26.870 25.820 10.190 9.820     318     1.5980 196.30 27.10   0.000 0.000 42.717 14.541 28.121 36.048 12.620 23.438
WS7MET_125 2018-07-18 13:15:00 125 30483.0 29.830 28.470 28.360 27.240 26.560 38.500 36.570 14.170 11.100 915.00 280.00 17.020 16.630 14.560 11.210 14.030 30.250 28.720 28.660 27.450 26.960 15.830 13.470 919.00 280.40 0.9210   29.400 28.200 27.950 26.970 26.120 12.250 10.030     318     0.4530 139.10 42.26   0.000 0.000 42.013 16.162 25.838 36.154 13.214 22.932
WS7MET_125 2018-07-18 13:10:00 125 30483.0 29.080 27.840 27.490 26.660 26.090 36.460 35.770 12.670 10.260 911.00 279.30 17.010 16.630 14.560 11.210 14.040 29.430 28.180 27.910 26.870 26.610 15.550 12.180 915.00 280.40 1.3790   28.680 27.570 27.260 26.460 25.780 10.600 8.810     318     0.5880 156.80 42.34   0.000 0.000 40.237 14.656 25.566 34.944 12.494 22.444
WS7MET_125 2018-07-18 13:05:00 125 30483.0 28.550 27.780 27.660 26.980 26.110 34.400 33.420 11.280 9.520 914.00 280.50 17.000 16.630 14.560 11.210 14.060 28.650 28.050 27.940 27.350 27.050 13.740 12.380 919.00 281.80 1.2150   28.470 27.600 27.450 26.670 25.350 9.090 8.470     318     0.8510 209.10 59.03   0.000 0.000 39.021 13.372 25.598 35.607 11.889 23.707
WS7MET_125 2018-07-18 13:00:00 125 30483.0 29.060 27.530 27.440 26.710 25.850 29.960 32.160 9.630 8.710 920.00 282.50 17.000 16.630 14.560 11.210 14.070 29.630 27.710 27.610 26.870 26.220 13.930 10.710 923.00 283.10 1.5880   28.470 27.310 27.230 26.500 25.510 7.269 7.194     318     0.6690 55.25 75.08   0.000 0.000 40.190 11.978 28.149 35.047 11.257 23.776
WS7MET_125 2018-07-18 12:55:00 125 30483.0 29.220 27.500 27.450 26.460 25.720 35.740 35.720 12.480 10.080 920.00 282.50 17.000 16.640 14.560 11.210 14.060 29.430 27.630 27.680 26.600 25.980 14.240 11.160 923.00 283.10 3.0380   29.120 27.370 27.190 26.290 25.420 10.160 9.490     318     1.1610 179.80 29.66   0.000 0.000 40.563 14.475 26.066 34.535 12.345 22.199
WS7MET_125 2018-07-18 12:50:00 125 30483.0 28.710 27.480 27.630 26.650 26.060 37.180 35.600 12.640 10.180 926.00 283.60 16.990 16.640 14.560 11.210 14.060 29.160 27.650 27.880 26.910 26.270 14.650 13.280 930.00 284.50 1.7180   28.370 27.150 27.290 26.220 25.780 9.920 9.120     318     0.8020 183.40 34.89   0.000 0.000 39.385 14.627 24.742 34.923 12.428 22.491
WS7MET_125 2018-07-18 12:45:00 125 30483.0 28.790 26.990 27.130 26.190 25.150 32.770 33.560 10.760 8.900 925.00 283.30 16.990 16.640 14.560 11.200 14.070 29.290 27.430 27.430 26.360 25.730 14.100 10.710 930.00 284.50 1.2670   28.370 26.730 26.980 25.980 24.790 8.280 7.931     318     0.7570 159.70 59.63   0.000 0.000 39.568 12.918 26.601 33.989 11.402 22.582
WS7MET_125 2018-07-18 12:40:00 125 30483.0 29.300 27.340 27.370 26.290 25.490 34.870 36.230 12.140 10.150 925.00 282.70 16.990 16.640 14.560 11.200 14.080 29.530 27.430 27.530 26.430 25.780 14.630 10.730 930.00 283.10 2.2280   29.120 27.170 27.170 26.050 25.240 9.920 9.560     318     1.1810 196.60 35.27   0.000 0.000 40.751 14.154 26.541 34.190 12.403 21.803
WS7MET_125 2018-07-18 12:35:00 125 30483.0 29.000 27.190 26.990 26.000 25.290 34.780 33.120 11.900 8.550 928.00 284.30 16.980 16.640 14.560 11.200 14.110 29.400 27.370 27.230 26.330 25.560 13.470 10.430 933.00 285.80 2.4170   28.580 27.010 26.800 25.780 25.030 10.280 7.778     318     0.9420 159.90 44.08   0.000 0.000 40.051 13.932 26.121 33.610 11.135 22.478
WS7MET_125 2018-07-18 12:30:00 125 30483.0 28.060 27.360 27.310 26.370 25.830 40.320 37.180 13.260 10.570 933.00 285.50 16.980 16.640 14.560 11.200 14.100 28.580 27.630 27.570 26.530 26.130 15.730 13.100 938.00 287.20 1.6010   27.760 27.060 27.010 26.190 25.590 10.130 8.240     318     1.0210 176.00 34.37   0.000 0.000 37.926 15.233 22.634 34.352 12.756 21.580
WS7MET_125 2018-07-18 12:25:00 125 30483.0 27.530 26.840 26.810 25.970 25.410 42.300 37.510 13.500 10.380 927.00 283.50 16.980 16.650 14.560 11.200 14.100 27.860 27.030 26.950 26.190 25.550 15.580 11.110 929.00 284.50 2.1300   26.940 26.370 26.450 25.750 25.300 10.220 9.800     318     0.7840 170.20 37.49   0.000 0.000 36.772 15.473 21.218 33.550 12.595 20.966
WS7MET_125 2018-07-18 12:20:00 125 30483.0 26.800 25.710 26.040 25.520 24.410 39.280 36.820 11.740 9.690 928.00 283.90 16.970 16.650 14.560 11.200 14.090 27.210 26.270 26.370 25.680 25.240 14.550 11.770 933.00 285.80 1.1960   26.600 25.390 25.780 25.300 23.930 9.040 8.670     318     0.7060 151.10 61.69   0.000 0.000 35.232 13.786 21.393 32.668 12.026 20.640
WS7MET_125 2018-07-18 12:15:00 125 30483.0 28.290 26.890 26.960 26.400 25.190 33.040 35.040 10.510 9.730 932.00 285.50 16.970 16.650 14.560 11.200 14.090 28.780 27.730 27.530 26.870 25.880 12.360 11.530 934.00 285.80 2.4500   27.310 25.610 26.080 25.850 24.160 8.900 8.760     318     0.5690 298.60 82.90   0.000 0.000 38.437 12.705 25.737 34.413 12.058 22.355
WS7MET_125 2018-07-18 12:10:00 125 30483.0 27.840 27.070 27.090 26.250 25.160 41.400 39.550 13.460 11.400 929.00 283.50 16.970 16.650 14.560 11.200 14.100 28.370 27.660 27.590 26.630 25.610 15.680 13.130 935.00 284.50 0.2550   27.520 26.420 26.520 25.880 24.500 9.660 10.100     318     0.0410 26.07 2.07   0.000 0.000 37.443 15.433 21.942 34.110 13.479 20.619
WS7MET_125 2018-07-18 12:05:00 125 30483.0 28.140 26.890 26.870 26.110 24.960 33.450 35.870 10.520 9.820 927.00 282.50 16.960 16.660 14.560 11.200 14.090 28.510 27.500 27.530 26.430 25.770 14.020 12.210 930.00 283.10 1.7380   27.590 26.450 26.520 25.850 24.270 8.740 8.770     318     0.7520 185.90 70.36   0.000 0.000 38.103 12.713 25.358 33.829 12.131 21.695
WS7MET_125 2018-07-18 12:00:00 125 30483.0 28.030 27.090 27.170 26.210 25.520 39.740 37.700 13.030 10.650 928.00 282.60 16.960 16.660 14.560 11.210 14.090 28.300 27.350 27.370 26.390 25.840 14.720 13.130 930.00 283.20 1.9340   27.660 26.760 26.870 26.090 25.290 9.940 9.470     318     0.7080 191.80 44.97   0.000 0.000 37.860 15.006 22.815 34.029 12.824 21.200
WS7MET_125 2018-07-18 11:55:00 125 30483.0 27.750 26.750 26.860 26.260 25.270 35.030 36.710 10.900 10.300 926.00 282.50 16.960 16.660 14.560 11.210 14.090 27.860 26.870 27.090 26.500 26.040 13.260 12.350 930.00 283.20 1.7900   27.660 26.560 26.630 26.120 24.930 9.600 9.230     318     0.6550 219.50 78.40   0.000 0.000 37.247 13.039 24.200 34.130 12.528 21.601
WS7MET_125 2018-07-18 11:50:00 125 30483.0 27.980 26.590 26.850 25.870 25.190 36.440 38.890 11.680 10.810 923.00 281.50 16.960 16.670 14.560 11.210 14.100 28.200 26.830 27.160 26.190 25.730 14.410 12.960 927.00 281.80 0.7970   27.760 26.300 26.550 25.680 24.650 9.830 9.400     318     0.4210 298.30 64.24   0.000 0.000 37.750 13.731 23.994 33.353 12.961 20.382
WS7MET_125 2018-07-18 11:45:00 125 30483.0 27.910 26.440 26.760 25.670 24.690 41.090 38.870 13.460 10.650 920.00 280.50 16.960 16.670 14.570 11.210 14.090 28.170 26.650 26.970 25.780 25.250 15.740 11.650 923.00 280.50 2.1820   27.660 26.220 26.390 25.570 24.270 10.930 9.800     318     0.7050 171.90 56.72   0.000 0.000 37.596 15.433 22.148 32.960 12.824 20.148
WS7MET_125 2018-07-18 11:40:00 125 30483.0 28.140 26.440 26.490 25.450 24.360 36.180 38.830 11.610 10.410 916.00 279.20 16.960 16.680 14.570 11.210 14.090 28.370 26.660 26.720 25.680 24.860 16.270 12.270 921.00 280.50 0.8430   27.790 26.140 26.220 25.170 24.010 9.350 9.240     318     0.3330 201.90 58.01   0.000 0.000 38.103 13.668 24.317 32.533 12.620 19.900
WS7MET_125 2018-07-18 11:35:00 125 30483.0 28.120 26.140 26.060 24.930 24.160 34.620 38.380 10.950 9.790 912.00 278.30 16.960 16.680 14.570 11.210 14.120 28.510 26.330 26.210 25.100 24.740 14.970 11.220 915.00 279.10 1.4830   27.790 26.010 25.960 24.720 23.920 8.780 8.940     318     0.7840 183.90 47.98   0.000 0.000 38.059 13.083 24.883 31.542 12.107 19.436
WS7MET_125 2018-07-18 11:30:00 125 30483.0 28.130 25.930 25.980 24.650 23.920 37.840 38.310 12.370 9.520 910.00 277.40 16.960 16.680 14.570 11.210 14.130 28.440 26.170 26.220 24.860 24.320 14.260 10.920 911.00 277.80 1.1760   27.890 25.710 25.670 24.350 23.550 9.300 9.040     318     0.8900 168.60 33.40   0.000 0.000 38.081 14.370 23.671 31.019 11.889 19.136
WS7MET_125 2018-07-18 11:25:00 125 30483.0 27.330 25.770 25.820 24.730 24.120 44.670 40.530 14.200 10.430 906.00 276.00 16.960 16.680 14.570 11.210 14.130 27.830 26.140 26.250 24.860 24.610 17.320 12.000 910.00 276.50 1.0390   27.010 25.410 25.260 24.590 23.680 9.810 9.520     318     0.5670 172.40 24.84   0.000 0.000 36.345 16.193 20.109 31.168 12.637 18.536
WS7MET_125 2018-07-18 11:20:00 125 30483.0 27.500 25.480 25.270 24.370 23.740 36.370 39.750 11.150 9.800 901.00 274.90 16.960 16.680 14.570 11.210 14.130 27.790 25.680 25.460 24.620 24.250 15.780 13.160 905.00 275.10 1.8620   27.210 25.280 25.060 24.210 23.450 9.120 9.030     318     1.0640 209.30 35.49   0.000 0.000 36.708 13.258 23.357 30.504 12.115 18.379
WS7MET_125 2018-07-18 11:15:00 125 30483.0 27.180 25.860 25.450 24.410 23.620 44.010 39.900 13.860 9.920 896.00 272.90 16.960 16.680 14.570 11.210 14.150 27.720 25.990 25.540 24.620 23.830 15.200 10.870 901.00 273.80 1.9670   26.460 25.730 25.330 24.280 23.460 12.250 9.310     318     0.9520 163.40 29.65   0.000 0.000 36.027 15.840 20.171 30.578 12.213 18.377
WS7MET_125 2018-07-18 11:10:00 125 30483.0 26.150 25.600 25.460 24.760 23.640 40.270 38.770 11.500 9.800 890.00 271.20 16.960 16.680 14.570 11.210 14.140 26.360 25.880 25.670 24.990 24.140 14.750 11.170 895.00 272.40 2.5090   25.920 25.280 25.210 24.550 23.190 8.780 8.860     318     0.7270 186.20 56.01   0.000 0.000 33.909 13.569 20.254 31.224 12.115 19.118
WS7MET_125 2018-07-18 11:05:00 125 30483.0 25.850 25.240 25.180 24.450 23.740 43.600 41.260 12.400 10.430 885.00 269.30 16.960 16.680 14.570 11.210 14.110 26.120 25.750 25.650 24.890 24.140 16.680 12.880 890.00 271.10 1.2540   25.440 24.740 24.690 23.970 23.170 9.120 9.180     318     0.3050 173.10 68.91   0.000 0.000 33.313 14.399 18.789 30.651 12.637 18.004
WS7MET_125 2018-07-18 11:00:00 125 30483.0 25.200 24.260 24.480 24.040 22.980 42.690 39.280 11.610 9.350 880.00 267.00 16.970 16.690 14.570 11.210 14.060 25.470 24.720 24.680 24.140 23.240 14.230 10.090 882.00 268.40 1.1630   25.030 23.960 24.400 23.900 22.640 9.150 8.510     318     0.6560 100.90 48.57   0.000 0.000 32.053 13.668 18.370 29.907 11.754 18.160
WS7MET_125 2018-07-18 10:55:00 125 30483.0 25.410 24.810 24.830 24.430 23.210 38.270 38.860 10.150 9.530 875.00 265.10 16.970 16.700 14.570 11.210 14.000 25.540 25.220 25.040 24.690 23.730 12.350 11.150 878.00 267.10 1.0000   25.230 23.960 24.420 24.140 22.660 8.390 8.120     318     0.3030 8.75 65.24   0.000 0.000 32.455 12.403 20.035 30.614 11.897 18.718
WS7MET_125 2018-07-18 10:50:00 125 30483.0 25.450 25.110 25.080 24.380 23.240 42.400 42.630 11.700 10.860 869.00 262.80 16.970 16.700 14.570 11.200 13.980 25.750 25.370 25.280 24.590 23.700 13.990 12.370 875.00 264.40 1.5680   24.960 24.780 24.810 24.140 22.890 8.980 9.300     318     0.5490 186.00 62.17   0.000 0.000 32.533 13.749 18.739 30.523 13.004 17.511
WS7MET_125 2018-07-18 10:45:00 125 30483.0 24.950 24.350 24.450 23.850 22.820 42.330 43.370 11.200 10.640 862.00 260.90 16.970 16.700 14.570 11.200 13.960 25.300 24.720 24.770 24.110 23.140 15.210 13.140 866.00 261.70 0.9080   24.790 24.120 24.250 23.700 22.490 9.440 9.780     318     0.3850 171.80 92.20   0.000 0.000 31.580 13.302 18.212 29.568 12.815 16.744
WS7MET_125 2018-07-18 10:40:00 125 30483.0 25.190 24.470 24.490 23.670 22.860 43.460 43.520 11.820 10.540 855.00 257.50 16.970 16.700 14.570 11.200 13.950 25.470 24.680 24.690 23.870 23.100 14.270 11.810 860.00 259.00 2.0650   24.930 24.250 24.270 23.530 22.350 9.310 9.680     318     0.8300 207.30 36.59   0.000 0.000 32.034 13.859 18.112 29.250 12.730 16.520
WS7MET_125 2018-07-18 10:35:00 125 30483.0 24.780 24.110 24.190 23.440 22.480 41.040 41.960 10.630 9.800 848.00 254.70 16.970 16.700 14.570 11.200 13.940 24.890 24.260 24.350 23.660 22.650 12.880 11.050 852.00 256.30 1.7840   24.690 23.910 24.010 23.290 22.260 8.960 8.830     318     0.5940 101.50 81.20   0.000 0.000 31.261 12.807 18.432 28.847 12.115 16.743
WS7MET_125 2018-07-18 10:30:00 125 30483.0 24.510 24.030 24.120 23.310 22.470 44.620 41.710 11.620 9.590 839.00 251.00 16.970 16.700 14.570 11.200 14.000 24.760 24.090 24.220 23.390 22.650 13.880 11.160 843.00 252.30 1.5220   24.140 23.910 23.880 23.190 22.280 9.470 8.930     318     0.8580 202.90 31.39   0.000 0.000 30.761 13.677 17.035 28.622 11.945 16.684
WS7MET_125 2018-07-18 10:25:00 125 30483.0 23.830 23.560 23.530 23.040 22.270 44.830 43.880 11.110 10.110 830.00 247.60 16.980 16.700 14.560 11.200 14.090 24.180 23.870 23.830 23.250 22.650 13.620 10.950 836.00 249.60 1.7440   23.530 23.290 23.330 22.850 22.070 9.200 9.410     318     0.7850 135.70 44.88   0.000 0.000 29.532 13.222 16.293 28.159 12.370 15.803
WS7MET_125 2018-07-18 10:20:00 125 30483.0 23.510 23.160 23.350 22.950 22.000 41.840 42.030 9.790 9.380 822.00 244.90 16.980 16.710 14.560 11.200 14.260 23.630 23.400 23.560 23.190 22.450 12.130 10.850 825.00 246.90 1.7770   23.430 22.940 23.190 22.670 21.490 8.590 8.430     318     0.8970 206.80 68.39   0.000 0.000 28.969 12.107 16.848 28.006 11.778 16.235
WS7MET_125 2018-07-18 10:15:00 125 30483.0 23.830 23.170 23.380 22.890 21.840 42.880 43.460 10.350 9.760 816.00 241.60 16.990 16.710 14.560 11.200 14.340 24.070 23.470 23.650 23.120 22.400 14.590 13.230 821.00 242.90 1.4050   23.490 22.960 23.220 22.670 21.550 8.100 8.300     318     0.4380 251.60 48.62   0.000 0.000 29.532 12.570 16.869 27.905 12.083 15.777
WS7MET_125 2018-07-18 10:10:00 125 30483.0 23.660 23.030 23.120 22.610 21.570 44.660 44.280 10.890 9.840 804.00 236.00 16.990 16.710 14.560 11.200 14.380 23.730 23.220 23.320 22.780 22.100 12.790 11.930 809.00 237.50 2.2470   23.600 22.880 22.950 22.500 21.290 9.140 8.960     318     0.7940 208.70 71.12   0.000 0.000 29.232 13.030 16.177 27.435 12.148 15.287
WS7MET_125 2018-07-18 10:05:00 125 30483.0 24.180 23.350 23.320 22.730 21.580 41.470 44.090 10.260 9.890 795.30 232.20 17.000 16.710 14.560 11.200 14.400 24.380 23.590 23.520 22.850 21.880 12.840 11.820 799.90 234.90 1.2020   23.700 22.860 22.910 22.540 21.340 8.900 9.300     318     0.7590 207.80 34.65   0.000 0.000 30.159 12.494 17.652 27.636 12.189 15.451
WS7MET_125 2018-07-18 10:00:00 125 30483.0 23.970 23.280 23.240 22.700 21.710 45.550 47.150 11.470 10.850 783.00 226.40 17.010 16.710 14.560 11.200 14.410 24.240 23.470 23.400 22.850 22.050 13.870 12.270 789.10 229.50 1.1890   23.600 22.910 22.940 22.470 21.310 10.040 9.340     318     0.3980 205.90 43.26   0.000 0.000 29.782 13.542 16.216 27.585 12.996 14.579
WS7MET_125 2018-07-18 09:55:00 125 30483.0 23.680 22.740 22.740 22.370 21.020 43.420 45.830 10.510 10.150 769.70 220.30 17.010 16.710 14.560 11.200 14.300 23.970 23.020 22.990 22.470 21.440 11.950 11.280 777.00 222.80 1.2090   23.460 22.590 22.600 22.270 20.560 9.500 9.660     318     0.5800 232.30 68.78   0.000 0.000 29.267 12.705 16.559 27.038 12.403 14.647
WS7MET_125 2018-07-18 09:50:00 125 30483.0 23.480 22.860 22.770 22.270 20.990 47.610 48.830 11.700 11.010 758.30 214.40 17.010 16.720 14.560 11.200 14.180 23.870 22.990 22.940 22.470 21.290 14.310 11.860 763.60 217.40 0.9280   23.220 22.710 22.540 22.060 20.500 10.150 10.280     318     0.1630 147.10 51.80   0.000 0.000 28.917 13.749 15.150 26.874 13.135 13.752
WS7MET_125 2018-07-18 09:45:00 125 30483.0 23.110 22.390 22.320 21.780 21.020 45.370 47.630 10.630 10.180 747.30 209.60 17.010 16.720 14.560 11.200 13.960 23.220 22.700 22.550 22.060 21.370 14.790 11.730 752.90 212.00 1.3850   22.910 22.280 22.190 21.580 20.740 9.510 9.590     318     0.5870 230.00 47.74   0.000 0.000 28.278 12.807 15.448 26.084 12.428 13.660
WS7MET_125 2018-07-18 09:40:00 125 30483.0 23.240 22.170 22.200 21.580 20.820 45.100 48.270 10.680 10.200 737.00 205.00 17.010 16.730 14.560 11.200 13.690 23.490 22.310 22.330 21.720 21.260 12.750 11.830 742.10 206.70 1.7380   23.020 22.020 22.040 21.380 20.430 9.560 9.650     318     0.9370 230.40 27.16   0.000 0.000 28.501 12.850 15.647 25.767 12.444 13.329
WS7MET_125 2018-07-18 09:35:00 125 30483.0 22.890 22.070 22.020 21.440 20.180 52.920 51.760 12.740 11.110 725.50 199.70 17.030 16.730 14.560 11.200 13.400 23.360 22.290 22.260 21.580 20.480 14.530 12.860 730.10 202.60 1.5480   22.470 21.820 21.770 21.280 19.770 10.310 10.060     318     0.5470 195.20 26.82   0.000 0.000 27.905 14.724 13.137 25.547 13.222 12.324
WS7MET_125 2018-07-18 09:30:00 125 30483.0 22.330 21.830 21.760 21.480 19.870 52.160 52.510 12.060 11.370 713.00 194.50 17.040 16.730 14.560 11.190 13.230 22.540 21.910 21.840 21.620 20.120 13.200 12.170 719.30 197.30 0.7580   22.060 21.700 21.670 21.380 19.540 11.180 10.580     318     0.1590 134.50 53.48   0.000 0.000 26.973 14.080 12.904 25.610 13.452 12.162
WS7MET_125 2018-07-18 09:25:00 125 30483.0 21.990 21.600 21.600 21.290 20.200 50.820 51.140 11.330 10.800 699.80 189.60 17.040 16.730 14.560 11.190 13.160 22.160 21.720 21.750 21.450 20.380 12.870 11.660 704.60 191.90 1.1760   21.860 21.400 21.370 21.140 19.940 10.000 9.980     318     0.4820 251.10 57.86   0.000 0.000 26.420 13.417 12.993 25.314 12.953 12.368
WS7MET_125 2018-07-18 09:20:00 125 30483.0 21.730 21.430 21.350 21.110 20.020 51.050 52.390 11.170 11.000 688.60 184.50 17.040 16.730 14.560 11.180 13.120 21.890 21.560 21.480 21.210 20.390 12.210 11.580 693.80 186.50 1.2480   21.620 21.330 21.210 21.040 19.790 10.210 10.520     318     0.3500 309.20 50.51   0.000 0.000 26.004 13.275 12.729 25.036 13.126 11.920
WS7MET_125 2018-07-18 09:15:00 125 30483.0 21.440 21.460 21.410 21.080 20.240 53.600 54.220 11.630 11.480 675.40 179.00 17.050 16.730 14.560 11.180 13.080 21.620 21.570 21.500 21.240 20.360 13.300 12.310 681.80 181.20 1.4180   21.110 21.160 21.230 20.930 20.100 10.620 10.640     318     0.5850 202.90 62.17   0.000 0.000 25.547 13.686 11.854 24.990 13.551 11.440
WS7MET_125 2018-07-18 09:10:00 125 30483.0 20.850 20.980 20.970 20.840 19.940 57.350 56.970 12.120 12.010 663.00 173.40 17.060 16.730 14.560 11.180 13.050 21.110 21.160 21.170 20.970 20.480 13.540 13.200 669.70 175.80 1.6660   20.660 20.750 20.800 20.730 19.190 11.060 11.150     318     0.6560 238.80 22.23   0.000 0.000 24.639 14.136 10.509 24.624 14.034 10.596
WS7MET_125 2018-07-18 09:05:00 125 30483.0 20.290 20.680 20.760 20.470 19.010 58.080 57.540 11.790 11.820 650.40 167.10 17.060 16.730 14.560 11.180 13.020 20.700 20.850 20.900 20.730 19.260 12.580 12.900 656.30 170.40 0.8490   19.770 20.300 20.440 20.080 18.820 11.030 11.150     318     0.1650 189.80 47.68   0.000 0.000 23.803 13.831 9.978 24.069 13.859 10.220
WS7MET_125 2018-07-18 09:00:00 125 30483.0 19.210 19.870 20.100 20.030 18.830 63.070 57.380 12.020 11.360 636.90 160.70 17.060 16.740 14.560 11.180 12.990 19.740 20.230 20.370 20.120 19.000 12.880 12.530 642.80 163.70 1.4240   18.890 19.570 19.870 19.840 18.560 11.240 10.730     318     0.5220 135.40 70.08   0.000 0.000 22.261 14.043 8.221 23.424 13.444 9.983
WS7MET_125 2018-07-18 08:55:00 125 30483.0 18.700 19.370 19.650 19.850 18.540 62.680 58.210 11.450 11.420 623.90 153.70 17.080 16.740 14.560 11.180 12.960 18.960 19.590 19.930 20.080 18.870 11.800 11.940 632.10 157.00 0.6470   18.510 19.150 19.370 19.670 18.090 11.050 11.050     318     0.1290 320.60 59.81   0.000 0.000 21.564 13.524 8.048 23.164 13.497 9.680
WS7MET_125 2018-07-18 08:50:00 125 30483.0 18.120 19.140 19.320 19.510 18.830 62.250 57.700 10.790 10.960 610.20 146.10 17.080 16.740 14.560 11.180 12.940 18.480 19.310 19.520 19.740 19.160 11.710 11.830 617.30 150.30 0.9540   17.660 18.850 19.030 19.260 18.230 10.160 10.430     318     0.4650 296.30 88.80   0.000 0.000 20.794 12.944 7.850 22.680 13.091 9.594
WS7MET_125 2018-07-18 08:45:00 125 30483.0 17.160 18.150 18.430 18.990 18.010 66.600 59.740 10.900 10.990 595.90 138.10 17.090 16.750 14.560 11.180 12.920 17.490 18.780 18.950 19.230 18.860 11.610 11.500 602.60 142.30 1.3790   16.870 17.710 18.070 18.820 17.310 10.260 10.480     318     0.3680 242.80 67.81   0.000 0.000 19.573 13.039 6.537 21.958 13.117 8.840
WS7MET_125 2018-07-18 08:40:00 125 30483.0 16.870 17.660 18.020 18.750 17.420 70.070 62.610 11.400 11.480 581.80 129.20 17.100 16.750 14.560 11.180 12.890 17.010 17.690 18.050 18.920 17.580 11.690 11.620 589.20 134.20 0.9540   16.770 17.640 17.980 18.480 17.280 11.160 11.370     318     0.5140 59.37 27.62   0.000 0.000 19.216 13.479 5.751 21.631 13.551 8.088
WS7MET_125 2018-07-18 08:35:00 125 30483.0 16.730 17.540 17.860 18.410 17.370 70.530 63.460 11.360 11.360 566.90 119.40 17.110 16.750 14.560 11.180 12.860 16.840 17.620 17.960 18.580 17.620 11.580 11.550 574.40 124.80 0.6270   16.640 17.460 17.780 18.270 17.240 11.030 11.000     318     0.2510 78.36 30.47   0.000 0.000 19.046 13.444 5.613 21.176 13.444 7.738
WS7MET_125 2018-07-18 08:30:00 125 30483.0 16.480 17.220 17.520 17.990 17.460 70.290 63.970 11.070 11.090 552.80 108.60 17.110 16.750 14.560 11.180 12.840 16.600 17.470 17.780 18.310 17.730 11.450 11.400 559.70 114.10 0.6010   16.260 16.870 17.150 17.730 16.830 10.610 10.870     318     0.2760 66.33 36.67   0.000 0.000 18.746 13.187 5.569 20.625 13.205 7.431
WS7MET_125 2018-07-18 08:25:00 125 30483.0 16.230 16.790 17.060 17.560 16.790 72.540 66.900 11.300 11.360 526.00 96.60 17.130 16.750 14.560 11.180 12.820 16.300 16.860 17.140 17.730 16.860 11.610 11.520 544.90 103.30 0.3010   16.090 16.710 16.950 17.390 16.670 11.100 11.190     318     0.0630 16.67 30.54   0.000 0.000 18.450 13.390 5.066 20.074 13.444 6.644
WS7MET_125 2018-07-18 08:20:00 125 30483.0 16.140 16.670 16.880 17.210 16.590 72.600 68.130 11.230 11.290 456.40 82.60 17.130 16.760 14.560 11.180 12.780 16.230 16.710 16.940 17.390 16.680 11.440 11.460 519.40 89.90 0.6660   16.090 16.640 16.830 17.110 16.510 11.050 11.060     318     0.3310 42.88 31.30   0.000 0.000 18.344 13.328 5.026 19.635 13.381 6.258
WS7MET_125 2018-07-18 08:15:00 125 30483.0 16.080 16.710 16.900 17.080 16.680 72.680 68.720 11.190 11.300 506.10 68.52 17.140 16.760 14.560 11.180 12.770 16.160 16.790 16.970 17.180 17.000 11.440 11.460 518.10 75.16 1.1300   15.960 16.670 16.850 16.980 16.460 10.760 10.940     318     0.4890 57.43 28.81   0.000 0.000 18.274 13.293 4.993 19.474 13.390 6.091
WS7MET_125 2018-07-18 08:10:00 125 30483.0 15.700 16.400 16.640 16.720 16.790 72.830 68.840 10.850 10.980 448.10 55.17 17.160 16.770 14.560 11.180 12.760 15.960 16.690 16.910 16.910 17.110 11.200 11.240 481.90 61.74 0.5420   15.440 16.140 16.380 16.470 16.470 10.590 10.740     318     0.2340 233.60 55.81   0.000 0.000 17.836 12.996 4.846 19.034 13.109 5.931
WS7MET_125 2018-07-18 08:05:00 125 30483.0 15.360 16.000 16.230 16.390 16.120 75.330 70.870 11.030 11.110 452.60 43.56 17.160 16.770 14.560 11.190 12.740 15.480 16.060 16.320 16.570 16.370 11.220 11.260 475.20 48.32 1.0780   15.280 15.980 16.160 16.200 15.990 10.860 10.950     318     0.2370 53.91 68.62   0.000 0.000 17.451 13.152 4.305 18.639 13.222 5.430
WS7MET_125 2018-07-18 08:00:00 125 30483.0 15.090 15.780 15.980 16.020 16.090 76.020 72.050 10.910 11.000 404.80 34.36 17.160 16.770 14.550 11.190 12.730 15.310 15.990 16.160 16.230 16.430 11.080 11.130 468.50 38.93 0.7250   14.930 15.640 15.860 15.860 15.760 10.620 10.830     318     0.3140 14.69 48.45   0.000 0.000 17.151 13.048 4.113 18.204 13.126 5.088
WS7MET_125 2018-07-18 07:55:00 125 30483.0 14.820 15.430 15.620 15.670 15.670 77.530 73.710 10.940 11.000 118.00 27.52 17.170 16.770 14.550 11.180 12.720 14.930 15.640 15.870 15.820 16.140 11.110 11.320 193.30 30.87 0.5030   14.730 15.300 15.490 15.510 15.400 10.720 10.770     318     0.2320 52.38 30.96   0.000 0.000 16.855 13.074 3.787 17.801 13.126 4.680
WS7MET_125 2018-07-18 07:50:00 125 30483.0 14.700 15.250 15.420 15.490 15.360 77.200 74.330 10.760 10.950 86.20 22.75 17.180 16.770 14.550 11.180 12.700 14.800 15.300 15.480 15.620 15.420 10.910 11.100 116.80 24.16 0.4970   14.660 15.210 15.360 15.340 15.260 10.550 10.750     318     0.1170 39.68 40.08   0.000 0.000 16.725 12.918 3.813 17.597 13.083 4.517
WS7MET_125 2018-07-18 07:45:00 125 30483.0 14.510 15.050 15.200 15.210 15.250 76.820 74.900 10.500 10.800 40.74 19.53 17.180 16.780 14.540 11.180 12.690 14.660 15.200 15.350 15.380 15.600 10.670 10.850 48.32 21.48 0.6140   14.320 14.930 15.090 15.100 15.030 10.320 10.740     318     0.2170 31.29 14.15   0.000 0.000 16.521 12.696 3.830 17.284 12.953 4.338
WS7MET_125 2018-07-18 07:40:00 125 30483.0 14.410 14.880 15.050 15.050 15.000 77.400 75.650 10.520 10.800 31.88 17.05 17.190 16.780 14.540 11.180 12.680 14.490 14.930 15.090 15.170 15.040 10.670 10.930 32.22 17.45 1.2540   14.350 14.820 14.990 14.970 14.930 10.380 10.590     318     0.4860 20.83 9.85   0.000 0.000 16.415 12.713 3.710 17.107 12.953 4.166
WS7MET_125 2018-07-18 07:35:00 125 30483.0 14.280 14.770 14.940 14.950 14.920 78.300 76.260 10.570 10.820 30.81 15.64 17.200 16.780 14.550 11.180 12.670 14.390 14.810 14.970 15.070 15.070 10.800 10.970 30.87 16.11 0.8360   14.150 14.690 14.840 14.830 14.800 10.400 10.580     318     0.3080 20.74 28.51   0.000 0.000 16.277 12.756 3.532 16.997 12.970 4.035
WS7MET_125 2018-07-18 07:30:00 125 30483.0 14.150 14.620 14.760 14.710 14.800 79.210 77.210 10.610 10.780 29.53 14.36 17.200 16.780 14.540 11.180 12.660 14.250 14.680 14.840 14.800 15.020 10.760 10.910 29.53 14.77 0.6470   14.050 14.530 14.650 14.590 14.660 10.480 10.640     318     0.2810 27.17 24.92   0.000 0.000 16.141 12.790 3.356 16.736 12.935 3.814
WS7MET_125 2018-07-18 07:25:00 125 30483.0 13.990 14.450 14.570 14.530 14.560 80.000 78.220 10.620 10.800 28.46 13.42 17.210 16.780 14.540 11.180 12.650 14.080 14.520 14.650 14.630 14.650 10.710 10.910 29.53 13.42 0.5230   13.910 14.380 14.510 14.460 14.500 10.530 10.700     318     0.2550 25.43 21.87   0.000 0.000 15.974 12.798 3.195 16.543 12.953 3.603
WS7MET_125 2018-07-18 07:20:00 125 30483.0 13.890 14.320 14.450 14.420 14.440 79.920 78.030 10.500 10.660 27.38 12.21 17.220 16.780 14.540 11.180 12.640 13.980 14.370 14.510 14.520 14.510 10.590 10.750 28.19 13.42 0.6530   13.840 14.270 14.400 14.350 14.370 10.410 10.610     318     0.3490 32.25 18.20   0.000 0.000 15.871 12.696 3.187 16.426 12.832 3.609
WS7MET_125 2018-07-18 07:15:00 125 30483.0 13.810 14.230 14.360 14.350 14.350 79.710 78.340 10.380 10.640 26.58 10.67 17.230 16.780 14.540 11.180 12.630 13.880 14.260 14.400 14.420 14.370 10.480 10.700 26.85 12.08 0.5750   13.740 14.180 14.310 14.290 14.310 10.260 10.560     318     0.4100 12.64 12.00   0.000 0.000 15.789 12.595 3.204 16.351 12.815 3.542
WS7MET_125 2018-07-18 07:10:00 125 30483.0 13.660 14.100 14.220 14.160 14.280 79.520 78.420 10.190 10.470 25.50 8.59 17.240 16.780 14.540 11.180 12.630 13.810 14.180 14.300 14.350 14.400 10.320 10.680 25.50 9.40 0.7320   13.570 14.020 14.110 14.010 14.150 10.100 10.330     318     0.2530 34.29 33.44   0.000 0.000 15.635 12.436 3.202 16.151 12.671 3.485
WS7MET_125 2018-07-18 07:05:00 125 30483.0 13.560 13.970 14.040 13.980 14.070 79.770 79.020 10.150 10.410 24.23 7.45 17.250 16.780 14.540 11.180 12.620 13.640 14.010 14.100 14.080 14.140 10.250 10.520 25.50 8.05 0.6270   13.500 13.900 13.970 13.880 13.980 10.080 10.330     318     0.2680 29.87 19.12   0.000 0.000 15.534 12.403 3.143 15.964 12.620 3.349
WS7MET_125 2018-07-18 07:00:00 125 30483.0 13.520 13.850 13.920 13.880 13.940 80.100 79.220 10.160 10.350 23.02 6.44 17.250 16.780 14.540 11.180 12.610 13.570 13.900 13.970 13.940 13.990 10.240 10.410 24.16 6.71 0.6860   13.430 13.810 13.890 13.810 13.910 10.070 10.310     318     0.4050 20.59 11.09   0.000 0.000 15.494 12.411 3.083 15.861 12.570 3.296
WS7MET_125 2018-07-18 06:55:00 125 30483.0 13.450 13.750 13.840 13.770 13.870 79.660 79.460 10.020 10.290 21.48 5.37 17.260 16.790 14.540 11.180 12.610 13.540 13.800 13.890 13.880 13.910 10.100 10.390 22.82 5.37 0.3920   13.300 13.710 13.800 13.670 13.820 9.890 10.180     318     0.1500 27.96 6.22   0.000 0.000 15.423 12.295 3.137 15.748 12.519 3.235
WS7MET_125 2018-07-18 06:50:00 125 30483.0 13.330 13.640 13.730 13.620 13.810 79.970 79.850 9.960 10.220 19.80 4.16 17.270 16.790 14.540 11.180 12.600 13.440 13.710 13.790 13.740 13.840 10.040 10.280 20.13 5.37 0.3070   13.230 13.570 13.640 13.500 13.730 9.850 10.150     318     0.0330 11.90 3.55   0.000 0.000 15.303 12.246 3.065 15.595 12.461 3.142
WS7MET_125 2018-07-18 06:45:00 125 30483.0 13.250 13.520 13.600 13.510 13.610 79.830 80.100 9.860 10.150 18.12 4.03 17.270 16.800 14.540 11.180 12.590 13.330 13.570 13.630 13.570 13.700 9.930 10.230 18.79 4.03 0.2680   13.200 13.500 13.590 13.430 13.550 9.800 10.060     318     0.0520 19.89 5.10   0.000 0.000 15.223 12.164 3.071 15.483 12.403 3.081
WS7MET_125 2018-07-18 06:40:00 125 30483.0 13.190 13.460 13.600 13.510 13.600 79.740 79.680 9.780 10.080 15.70 3.69 17.280 16.800 14.530 11.170 12.590 13.300 13.490 13.610 13.570 13.680 9.880 10.140 17.45 4.03 0.4770   13.130 13.420 13.590 13.430 13.530 9.690 9.970     318     0.3240 348.90 0.99   0.000 0.000 15.164 12.099 3.072 15.483 12.345 3.146
WS7MET_125 2018-07-18 06:35:00 125 30483.0 13.160 13.400 13.570 13.510 13.590 79.890 79.380 9.780 10.020 13.62 2.68 17.290 16.800 14.530 11.170 12.580 13.260 13.420 13.590 13.570 13.630 9.890 10.090 14.77 2.68 0.5160   13.090 13.380 13.550 13.430 13.510 9.680 9.960     318     0.3910 348.90 6.37   0.000 0.000 15.134 12.099 3.043 15.483 12.295 3.193
WS7MET_125 2018-07-18 06:30:00 125 30483.0 13.130 13.380 13.550 13.450 13.600 79.400 79.220 9.660 9.940 11.95 1.81 17.290 16.800 14.530 11.170 12.580 13.230 13.390 13.560 13.530 13.640 9.770 10.070 12.08 2.68 0.3990   13.060 13.370 13.530 13.360 13.510 9.590 9.820     318     0.3210 355.70 2.58   0.000 0.000 15.104 12.002 3.111 15.423 12.229 3.205
WS7MET_125 2018-07-18 06:25:00 125 30483.0 13.160 13.370 13.510 13.450 13.500 79.010 78.820 9.610 9.860 10.74 1.34 17.300 16.800 14.530 11.170 12.580 13.230 13.380 13.530 13.600 13.570 9.670 10.010 10.74 1.34 0.5160   13.090 13.360 13.500 13.360 13.440 9.550 9.770     318     0.4280 350.40 3.76   0.000 0.000 15.134 11.962 3.177 15.423 12.164 3.267
WS7MET_125 2018-07-18 06:20:00 125 30483.0 13.210 13.400 13.550 13.510 13.510 78.580 78.360 9.590 9.830 9.66 1.34 17.310 16.800 14.530 11.170 12.580 13.300 13.430 13.570 13.570 13.550 9.650 9.930 10.74 1.34 0.6010   13.120 13.380 13.530 13.470 13.480 9.540 9.750     318     0.4650 344.20 4.98   0.000 0.000 15.183 11.945 3.252 15.483 12.140 3.351
WS7MET_125 2018-07-18 06:15:00 125 30483.0 13.280 13.470 13.590 13.540 13.580 78.130 78.160 9.570 9.820 9.40 1.34 17.310 16.800 14.530 11.170 12.570 13.400 13.490 13.590 13.570 13.610 9.670 9.930 9.40 1.34 0.5360   13.190 13.440 13.570 13.470 13.560 9.470 9.730     318     0.4480 347.20 0.50   0.000 0.000 15.253 11.929 3.336 15.514 12.131 3.388
WS7MET_125 2018-07-18 06:10:00 125 30483.0 13.300 13.470 13.570 13.540 13.580 78.000 78.220 9.560 9.830 9.40 1.34 17.330 16.810 14.530 11.180 12.580 13.360 13.490 13.590 13.600 13.610 9.630 9.900 9.40 1.34 0.4900   13.260 13.460 13.560 13.500 13.540 9.500 9.770     318     0.4300 340.30 4.58   0.000 0.000 15.273 11.921 3.360 15.514 12.140 3.379
WS7MET_125 2018-07-18 06:05:00 125 30483.0 13.290 13.480 13.580 13.550 13.580 77.540 77.810 9.460 9.770 8.59 1.34 17.340 16.810 14.530 11.180 12.580 13.360 13.490 13.590 13.640 13.590 9.570 9.870 9.40 1.34 0.4830   13.230 13.470 13.570 13.470 13.560 9.370 9.630     318     0.4430 339.20 2.10   0.000 0.000 15.263 11.841 3.428 15.524 12.091 3.445
WS7MET_125 2018-07-18 06:00:00 125 30483.0 13.330 13.490 13.590 13.550 13.580 76.840 77.200 9.360 9.650 8.05 1.34 17.340 16.810 14.530 11.180 12.580 13.400 13.510 13.600 13.640 13.600 9.510 9.750 8.05 1.34 0.5490   13.260 13.490 13.570 13.470 13.550 9.270 9.560     318     0.4120 341.60 0.38   0.000 0.000 15.303 11.762 3.544 15.524 11.994 3.539
WS7MET_125 2018-07-18 05:55:00 125 30483.0 13.330 13.510 13.620 13.590 13.610 76.370 76.450 9.280 9.540 8.05 1.34 17.350 16.810 14.530 11.180 12.580 13.430 13.520 13.640 13.640 13.660 9.420 9.620 8.05 1.34 0.4250   13.300 13.510 13.600 13.500 13.570 9.210 9.440     318     0.3790 334.60 2.58   0.000 0.000 15.303 11.699 3.616 15.564 11.905 3.665
WS7MET_125 2018-07-18 05:50:00 125 30483.0 13.320 13.500 13.630 13.620 13.650 76.090 76.070 9.210 9.490 8.05 1.27 17.360 16.810 14.530 11.180 12.580 13.400 13.510 13.630 13.710 13.670 9.290 9.580 8.05 1.34 0.5100   13.260 13.490 13.620 13.570 13.630 9.120 9.440     318     0.3830 331.60 0.55   0.000 0.000 15.293 11.644 3.657 15.595 11.865 3.732
WS7MET_125 2018-07-18 05:45:00 125 30483.0 13.340 13.530 13.660 13.640 13.640 75.670 75.560 9.150 9.420 6.98 0.34 17.360 16.810 14.520 11.180 12.580 13.440 13.560 13.690 13.710 13.700 9.220 9.500 8.05 1.34 0.3460   13.260 13.500 13.630 13.570 13.590 9.050 9.310     318     0.2580 339.60 3.99   0.000 0.000 15.313 11.597 3.726 15.615 11.810 3.816
WS7MET_125 2018-07-18 05:40:00 125 30483.0 13.330 13.560 13.700 13.650 13.720 75.490 75.230 9.100 9.360 6.71 0.00 17.370 16.810 14.520 11.170 12.580 13.400 13.570 13.700 13.740 13.750 9.190 9.440 6.71 0.00 0.4700   13.230 13.550 13.690 13.570 13.690 9.020 9.270     318     0.3160 345.10 0.81   0.000 0.000 15.303 11.558 3.751 15.625 11.762 3.870
WS7MET_125 2018-07-18 05:35:00 125 30483.0 13.340 13.560 13.690 13.640 13.690 75.240 75.190 9.060 9.340 6.58 0.00 17.380 16.810 14.520 11.170 12.590 13.430 13.580 13.700 13.710 13.720 9.140 9.420 6.71 0.00 0.4310   13.260 13.550 13.690 13.570 13.670 8.970 9.270     318     0.3880 345.10 1.17   0.000 0.000 15.313 11.526 3.791 15.615 11.746 3.874
WS7MET_125 2018-07-18 05:30:00 125 30483.0 13.360 13.600 13.720 13.700 13.730 75.380 75.120 9.110 9.380 5.37 0.00 17.380 16.810 14.520 11.170 12.590 13.470 13.610 13.730 13.740 13.780 9.240 9.440 5.37 0.00 0.4570   13.260 13.590 13.700 13.640 13.700 9.000 9.290     318     0.3580 344.70 4.39   0.000 0.000 15.333 11.565 3.775 15.676 11.778 3.900
WS7MET_125 2018-07-18 05:25:00 125 30483.0 13.370 13.590 13.730 13.720 13.730 75.420 75.120 9.120 9.400 5.37 0.00 17.380 16.820 14.520 11.170 12.580 13.470 13.600 13.740 13.810 13.750 9.240 9.510 5.37 0.00 0.3270   13.300 13.590 13.720 13.640 13.720 9.010 9.320     318     0.2930 335.40 1.23   0.000 0.000 15.343 11.573 3.771 15.697 11.794 3.905
WS7MET_125 2018-07-18 05:20:00 125 30483.0 13.380 13.600 13.750 13.730 13.770 75.520 75.060 9.160 9.400 4.56 0.00 17.400 16.820 14.520 11.170 12.580 13.500 13.610 13.760 13.810 13.790 9.240 9.500 5.37 0.00 0.4050   13.260 13.590 13.740 13.670 13.720 9.060 9.330     318     0.3080 338.30 2.05   0.000 0.000 15.353 11.604 3.758 15.707 11.794 3.917
WS7MET_125 2018-07-18 05:15:00 125 30483.0 13.450 13.640 13.800 13.800 13.760 74.960 74.540 9.120 9.370 4.03 0.00 17.400 16.820 14.520 11.170 12.580 13.500 13.670 13.840 13.910 13.860 9.220 9.430 4.03 0.00 0.4310   13.400 13.610 13.750 13.740 13.670 9.010 9.300     318     0.3100 342.10 3.16   0.000 0.000 15.423 11.573 3.862 15.778 11.770 4.017
WS7MET_125 2018-07-18 05:10:00 125 30483.0 13.480 13.700 13.840 13.820 13.870 74.270 73.930 9.000 9.270 4.03 0.00 17.410 16.820 14.520 11.170 12.590 13.570 13.700 13.850 13.880 13.880 9.080 9.350 4.03 0.00 0.3990   13.430 13.680 13.830 13.700 13.860 8.880 9.170     318     0.3400 347.30 0.95   0.000 0.000 15.453 11.480 3.976 15.799 11.691 4.119
WS7MET_125 2018-07-18 05:05:00 125 30483.0 13.490 13.710 13.860 13.860 13.860 73.770 73.380 8.910 9.190 4.03 0.00 17.420 16.820 14.520 11.170 12.590 13.530 13.730 13.880 13.980 13.920 8.970 9.270 4.03 0.00 0.3660   13.430 13.690 13.840 13.810 13.820 8.830 9.100     318     0.3210 343.30 0.88   0.000 0.000 15.463 11.410 4.056 15.840 11.628 4.217
WS7MET_125 2018-07-18 05:00:00 125 30483.0 13.530 13.760 13.890 13.890 13.920 73.610 73.100 8.920 9.160 3.56 0.00 17.420 16.820 14.520 11.170 12.590 13.600 13.790 13.910 13.980 13.940 9.030 9.220 4.03 0.00 0.4510   13.460 13.730 13.880 13.810 13.880 8.830 9.090     318     0.3690 346.60 3.52   0.000 0.000 15.504 11.418 4.091 15.871 11.604 4.269
WS7MET_125 2018-07-18 04:55:00 125 30483.0 13.580 13.800 13.930 13.900 13.960 73.260 72.850 8.900 9.120 2.68 0.00 17.430 16.820 14.510 11.170 12.590 13.670 13.820 13.940 13.980 13.980 9.030 9.200 2.68 0.00 0.4770   13.500 13.790 13.910 13.810 13.940 8.790 9.000     318     0.3620 349.00 7.50   0.000 0.000 15.554 11.402 4.159 15.881 11.573 4.312
WS7MET_125 2018-07-18 04:50:00 125 30483.0 13.580 13.820 13.950 13.910 13.980 73.140 72.940 8.880 9.150 2.01 0.00 17.430 16.820 14.510 11.170 12.600 13.670 13.820 13.980 13.980 14.010 8.950 9.230 2.68 0.00 0.3850   13.500 13.810 13.940 13.840 13.940 8.810 9.090     318     0.3350 338.50 0.67   0.000 0.000 15.554 11.387 4.178 15.892 11.597 4.300
WS7MET_125 2018-07-18 04:45:00 125 30483.0 13.610 13.810 13.960 13.910 13.990 73.670 73.310 9.010 9.230 1.34 0.00 17.440 16.820 14.510 11.170 12.600 13.700 13.830 13.980 13.980 14.030 9.150 9.360 1.34 0.00 0.4830   13.530 13.810 13.940 13.870 13.920 8.820 9.110     318     0.4050 338.30 1.06   0.000 0.000 15.585 11.488 4.103 15.892 11.659 4.241
WS7MET_125 2018-07-18 04:40:00 125 30483.0 13.660 13.830 13.990 13.930 13.990 73.610 73.610 9.040 9.300 0.34 0.00 17.440 16.820 14.510 11.170 12.600 13.700 13.850 14.010 14.010 14.050 9.110 9.380 1.34 0.00 0.5100   13.570 13.820 13.970 13.840 13.940 8.940 9.250     318     0.3880 334.10 3.98   0.000 0.000 15.635 11.511 4.126 15.912 11.715 4.199
WS7MET_125 2018-07-18 04:35:00 125 30483.0 13.660 13.860 14.000 13.980 14.010 73.240 73.260 8.970 9.280 0.00 0.00 17.460 16.820 14.510 11.170 12.600 13.740 13.870 14.010 14.040 14.030 9.030 9.380 0.00 0.00 0.4970   13.570 13.850 14.000 13.870 13.990 8.880 9.200     318     0.3850 332.40 1.97   0.000 0.000 15.635 11.457 4.184 15.964 11.699 4.269
WS7MET_125 2018-07-18 04:30:00 125 30483.0 13.690 13.910 14.060 14.080 14.030 73.190 72.910 8.990 9.310 0.00 0.00 17.460 16.820 14.500 11.160 12.600 13.800 13.950 14.100 14.150 14.130 9.120 9.370 0.00 0.00 0.4830   13.600 13.870 14.010 13.940 13.950 8.880 9.210     318     0.3790 337.50 4.57   0.000 0.000 15.666 11.472 4.200 16.068 11.722 4.353
WS7MET_125 2018-07-18 04:25:00 125 30483.0 13.740 13.960 14.120 14.120 14.130 72.880 72.480 8.980 9.260 0.00 0.00 17.460 16.820 14.500 11.160 12.590 13.810 13.960 14.140 14.210 14.150 9.050 9.320 0.00 0.00 0.4180   13.670 13.950 14.100 14.010 14.110 8.910 9.170     318     0.3200 342.00 3.98   0.000 0.000 15.717 11.464 4.262 16.110 11.683 4.433
WS7MET_125 2018-07-18 04:20:00 125 30483.0 13.820 14.020 14.180 14.180 14.180 72.680 72.070 9.010 9.240 0.00 0.00 17.470 16.820 14.500 11.160 12.590 13.940 14.070 14.210 14.250 14.240 9.100 9.300 0.00 0.00 0.4830   13.700 13.970 14.150 14.080 14.130 8.910 9.120     318     0.3840 337.70 4.80   0.000 0.000 15.799 11.488 4.316 16.172 11.667 4.517
WS7MET_125 2018-07-18 04:15:00 125 30483.0 13.890 14.110 14.240 14.220 14.220 72.060 71.740 8.950 9.200 0.00 0.00 17.490 16.820 14.500 11.160 12.600 13.940 14.150 14.270 14.320 14.260 9.080 9.260 0.00 0.00 0.5290   13.840 14.070 14.210 14.150 14.180 8.870 9.160     318     0.3800 337.20 4.95   0.000 0.000 15.871 11.441 4.434 16.214 11.636 4.582
WS7MET_125 2018-07-18 04:10:00 125 30483.0 13.890 14.180 14.310 14.320 14.320 72.160 71.400 8.970 9.230 0.00 0.00 17.490 16.820 14.500 11.170 12.610 13.940 14.210 14.330 14.380 14.370 9.070 9.300 0.00 0.00 0.5490   13.840 14.150 14.270 14.250 14.280 8.870 9.130     318     0.4450 350.20 2.08   0.000 0.000 15.871 11.457 4.418 16.320 11.659 4.667
WS7MET_125 2018-07-18 04:05:00 125 30483.0 13.970 14.230 14.360 14.350 14.370 72.160 71.360 9.050 9.250 0.00 0.00 17.500 16.820 14.500 11.170 12.610 14.040 14.260 14.390 14.420 14.410 9.120 9.350 0.00 0.00 0.5360   13.870 14.210 14.330 14.280 14.370 8.980 9.150     318     0.4580 349.60 0.49   0.000 0.000 15.954 11.519 4.441 16.351 11.675 4.683
WS7MET_125 2018-07-18 04:00:00 125 30483.0 14.070 14.280 14.410 14.390 14.400 71.540 71.290 9.020 9.270 0.00 0.00 17.510 16.820 14.500 11.160 12.610 14.210 14.290 14.440 14.520 14.430 9.110 9.350 0.00 0.00 0.6080   13.970 14.260 14.390 14.320 14.350 8.890 9.190     318     0.4970 346.10 2.36   0.000 0.000 16.057 11.495 4.570 16.394 11.691 4.707
WS7MET_125 2018-07-18 03:55:00 125 30483.0 14.120 14.360 14.490 14.490 14.510 71.270 70.610 9.010 9.220 0.00 0.00 17.510 16.820 14.500 11.160 12.610 14.250 14.390 14.500 14.550 14.540 9.140 9.320 0.00 0.00 0.5680   14.040 14.310 14.440 14.380 14.380 8.910 9.130     318     0.4560 346.30 2.68   0.000 0.000 16.110 11.488 4.628 16.500 11.652 4.849
WS7MET_125 2018-07-18 03:50:00 125 30483.0 14.220 14.430 14.550 14.540 14.550 70.500 70.270 8.940 9.210 0.00 0.00 17.520 16.820 14.500 11.160 12.610 14.350 14.480 14.600 14.590 14.600 9.100 9.300 0.00 0.00 0.5290   14.150 14.390 14.520 14.450 14.470 8.850 9.150     318     0.4040 356.60 6.59   0.000 0.000 16.214 11.433 4.783 16.553 11.644 4.921
WS7MET_125 2018-07-18 03:45:00 125 30483.0 14.290 14.530 14.650 14.650 14.630 69.890 69.600 8.890 9.170 0.00 0.00 17.520 16.820 14.500 11.160 12.610 14.350 14.580 14.710 14.730 14.730 8.950 9.270 0.00 0.00 0.5290   14.210 14.480 14.600 14.560 14.520 8.830 9.070     318     0.3810 348.80 6.56   0.000 0.000 16.288 11.395 4.904 16.671 11.612 5.068
WS7MET_125 2018-07-18 03:40:00 125 30483.0 14.380 14.610 14.750 14.770 14.750 69.970 69.390 8.990 9.240 0.00 0.00 17.530 16.820 14.500 11.160 12.610 14.490 14.630 14.790 14.860 14.770 9.090 9.370 0.00 0.00 0.5950   14.280 14.590 14.720 14.660 14.730 8.890 9.090     318     0.5040 347.50 2.99   0.000 0.000 16.383 11.472 4.920 16.801 11.667 5.143
WS7MET_125 2018-07-18 03:35:00 125 30483.0 14.430 14.680 14.830 14.850 14.840 69.150 68.380 8.860 9.090 0.00 0.00 17.530 16.820 14.490 11.160 12.610 14.520 14.710 14.870 14.930 14.880 9.040 9.180 0.00 0.00 0.4900   14.350 14.630 14.790 14.730 14.770 8.730 8.950     318     0.4280 343.00 2.87   0.000 0.000 16.436 11.372 5.071 16.888 11.550 5.340
WS7MET_125 2018-07-18 03:30:00 125 30483.0 14.500 14.740 14.890 14.890 14.890 68.410 67.800 8.770 9.010 0.00 0.00 17.550 16.820 14.490 11.160 12.610 14.550 14.770 14.920 14.930 14.940 8.880 9.180 0.00 0.00 0.4640   14.420 14.710 14.860 14.830 14.830 8.630 8.920     318     0.3720 340.60 3.10   0.000 0.000 16.511 11.303 5.216 16.932 11.488 5.452
WS7MET_125 2018-07-18 03:25:00 125 30483.0 14.570 14.810 14.950 14.970 14.950 68.230 67.400 8.790 8.990 0.00 0.00 17.550 16.820 14.490 11.160 12.610 14.660 14.840 14.980 15.030 14.980 8.880 9.130 0.00 0.00 0.4830   14.490 14.770 14.920 14.900 14.920 8.650 8.940     318     0.4410 343.60 0.39   0.000 0.000 16.586 11.318 5.269 17.019 11.472 5.548
WS7MET_125 2018-07-18 03:20:00 125 30483.0 14.650 14.880 15.030 15.020 15.040 67.960 67.370 8.810 9.040 0.00 0.00 17.550 16.820 14.480 11.160 12.620 14.730 14.900 15.070 15.130 15.090 8.930 9.180 0.00 0.00 0.5490   14.590 14.860 14.990 14.900 15.010 8.730 8.920     318     0.4160 345.00 2.61   0.000 0.000 16.671 11.333 5.342 17.074 11.511 5.571
WS7MET_125 2018-07-18 03:15:00 125 30483.0 14.670 14.930 15.090 15.050 15.100 68.050 67.440 8.850 9.090 0.00 0.00 17.560 16.820 14.480 11.160 12.610 14.760 14.950 15.120 15.130 15.160 8.960 9.180 0.00 0.00 0.5100   14.590 14.900 15.070 14.930 15.060 8.770 8.970     318     0.4620 344.70 2.99   0.000 0.000 16.693 11.364 5.333 17.107 11.550 5.570
WS7MET_125 2018-07-18 03:10:00 125 30483.0 14.690 14.950 15.140 15.140 15.180 68.500 67.530 8.970 9.190 0.00 0.00 17.570 16.820 14.480 11.160 12.620 14.730 14.960 15.160 15.240 15.200 9.120 9.320 0.00 0.00 0.4180   14.620 14.940 15.130 15.070 15.160 8.800 9.050     318     0.3560 351.00 4.65   0.000 0.000 16.715 11.457 5.265 17.206 11.628 5.587
WS7MET_125 2018-07-18 03:05:00 125 30483.0 14.730 14.970 15.170 15.160 15.200 69.250 68.290 9.170 9.370 0.00 0.00 17.570 16.820 14.480 11.160 12.620 14.790 14.990 15.200 15.270 15.220 9.250 9.480 0.00 0.00 0.5230   14.660 14.950 15.160 15.100 15.180 9.060 9.260     318     0.4070 350.00 4.70   0.000 0.000 16.758 11.612 5.153 17.228 11.770 5.463
WS7MET_125 2018-07-18 03:00:00 125 30483.0 14.770 15.010 15.200 15.200 15.210 69.120 68.380 9.180 9.430 0.00 0.00 17.580 16.820 14.480 11.160 12.630 14.860 15.040 15.210 15.270 15.240 9.290 9.500 0.00 0.00 0.4700   14.730 14.990 15.190 15.100 15.180 9.090 9.340     318     0.4000 348.50 5.32   0.000 0.000 16.801 11.620 5.188 17.273 11.818 5.462
WS7MET_125 2018-07-18 02:55:00 125 30483.0 14.860 15.060 15.230 15.240 15.260 68.770 68.340 9.190 9.460 0.00 0.00 17.590 16.820 14.480 11.160 12.630 14.960 15.070 15.240 15.270 15.310 9.260 9.510 0.00 0.00 0.5230   14.790 15.050 15.210 15.170 15.210 9.120 9.400     318     0.4110 353.30 1.70   0.000 0.000 16.899 11.628 5.277 17.317 11.841 5.483
WS7MET_125 2018-07-18 02:50:00 125 30483.0 14.940 15.120 15.260 15.270 15.260 68.670 68.360 9.240 9.490 0.00 0.00 17.590 16.820 14.480 11.160 12.630 15.030 15.180 15.310 15.340 15.310 9.330 9.570 0.00 0.00 0.4380   14.860 15.070 15.230 15.200 15.210 9.170 9.420     318     0.3620 354.60 4.45   0.000 0.000 16.986 11.667 5.322 17.351 11.865 5.490
WS7MET_125 2018-07-18 02:45:00 125 30483.0 15.030 15.210 15.330 15.300 15.350 68.130 68.150 9.220 9.480 0.00 0.00 17.600 16.820 14.480 11.160 12.630 15.130 15.250 15.370 15.410 15.410 9.380 9.540 0.00 0.00 0.3850   14.960 15.190 15.310 15.240 15.310 9.110 9.400     318     0.2960 342.40 1.45   0.000 0.000 17.085 11.652 5.445 17.384 11.857 5.537
WS7MET_125 2018-07-18 02:40:00 125 30483.0 15.070 15.280 15.400 15.400 15.390 67.840 67.690 9.190 9.470 0.00 0.00 17.610 16.820 14.480 11.160 12.630 15.170 15.320 15.450 15.480 15.480 9.270 9.550 0.00 0.00 0.4700   15.000 15.250 15.370 15.310 15.330 9.120 9.340     318     0.3380 345.10 6.39   0.000 0.000 17.129 11.628 5.509 17.496 11.849 5.653
WS7MET_125 2018-07-18 02:35:00 125 30483.0 15.140 15.350 15.460 15.490 15.480 67.940 67.320 9.270 9.470 0.00 0.00 17.610 16.820 14.480 11.160 12.630 15.240 15.370 15.480 15.540 15.520 9.410 9.580 0.00 0.00 0.6080   15.070 15.320 15.440 15.410 15.440 9.190 9.380     318     0.4790 342.50 8.19   0.000 0.000 17.206 11.691 5.516 17.597 11.849 5.751
WS7MET_125 2018-07-18 02:30:00 125 30483.0 15.230 15.410 15.530 15.540 15.520 67.440 67.240 9.260 9.500 0.00 0.00 17.610 16.820 14.480 11.160 12.630 15.310 15.460 15.590 15.610 15.610 9.340 9.620 0.00 0.00 0.4570   15.130 15.360 15.480 15.480 15.460 9.120 9.400     318     0.3810 339.90 8.06   0.000 0.000 17.306 11.683 5.635 17.654 11.873 5.783
WS7MET_125 2018-07-18 02:25:00 125 30483.0 15.240 15.470 15.620 15.610 15.640 67.600 67.000 9.300 9.520 0.00 0.00 17.620 16.820 14.480 11.160 12.630 15.310 15.490 15.630 15.680 15.660 9.560 9.600 0.00 0.00 0.5550   15.170 15.460 15.600 15.540 15.630 9.190 9.400     318     0.3190 345.00 7.33   0.000 0.000 17.317 11.715 5.611 17.733 11.889 5.852
WS7MET_125 2018-07-18 02:20:00 125 30483.0 15.350 15.550 15.680 15.690 15.640 67.690 67.170 9.420 9.630 0.00 0.00 17.630 16.820 14.480 11.160 12.630 15.480 15.620 15.750 15.780 15.720 9.570 9.730 0.00 0.00 0.6340   15.270 15.490 15.630 15.580 15.590 9.300 9.560     318     0.4210 341.00 8.04   0.000 0.000 17.440 11.810 5.635 17.824 11.978 5.852
WS7MET_125 2018-07-18 02:15:00 125 30483.0 15.460 15.680 15.810 15.770 15.830 66.950 66.770 9.360 9.620 0.00 0.00 17.640 16.820 14.480 11.160 12.630 15.540 15.700 15.840 15.820 15.910 9.450 9.700 0.00 0.00 0.4380   15.410 15.620 15.760 15.680 15.700 9.230 9.560     318     0.3360 339.70 3.70   0.000 0.000 17.563 11.762 5.805 17.916 11.970 5.953
WS7MET_125 2018-07-18 02:10:00 125 30483.0 15.490 15.710 15.850 15.820 15.900 66.450 66.210 9.280 9.540 0.00 0.00 17.640 16.820 14.480 11.160 12.640 15.540 15.720 15.860 15.920 15.940 9.360 9.620 0.00 0.00 0.5950   15.440 15.690 15.830 15.780 15.820 9.210 9.500     318     0.4400 342.10 1.87   0.000 0.000 17.597 11.699 5.904 17.973 11.905 6.073
WS7MET_125 2018-07-18 02:05:00 125 30483.0 15.540 15.770 15.900 15.930 15.870 66.180 65.730 9.270 9.540 0.00 0.00 17.640 16.820 14.480 11.160 12.640 15.610 15.820 15.970 16.060 15.950 9.380 9.620 0.00 0.00 0.5100   15.440 15.720 15.850 15.820 15.780 9.170 9.470     318     0.3880 336.00 17.05   0.000 0.000 17.654 11.691 5.971 18.100 11.905 6.203
WS7MET_125 2018-07-18 02:00:00 125 30483.0 15.590 15.860 16.020 16.000 16.030 66.000 65.030 9.270 9.450 0.00 0.00 17.650 16.820 14.480 11.160 12.640 15.650 15.880 16.040 16.060 16.070 9.370 9.500 0.00 0.00 0.4570   15.510 15.820 15.980 15.950 15.960 9.150 9.350     318     0.3360 347.90 1.30   0.000 0.000 17.710 11.691 6.022 18.181 11.833 6.358
WS7MET_125 2018-07-18 01:55:00 125 30483.0 15.630 15.900 16.070 16.030 16.090 65.590 64.930 9.220 9.450 0.00 0.00 17.660 16.820 14.480 11.160 12.640 15.680 15.920 16.090 16.090 16.110 9.310 9.560 0.00 0.00 0.6080   15.540 15.880 16.060 15.950 16.070 9.110 9.360     318     0.4360 348.00 5.96   0.000 0.000 17.756 11.652 6.110 18.216 11.833 6.388
WS7MET_125 2018-07-18 01:50:00 125 30483.0 15.700 15.940 16.110 16.090 16.120 65.660 64.900 9.310 9.510 0.00 0.00 17.660 16.810 14.480 11.160 12.650 15.820 15.990 16.140 16.190 16.180 9.420 9.650 0.00 0.00 0.6600   15.650 15.920 16.090 15.990 16.070 9.200 9.360     318     0.4160 2.68 21.22   0.000 0.000 17.836 11.722 6.125 18.286 11.881 6.418
WS7MET_125 2018-07-18 01:45:00 125 30483.0 15.820 16.020 16.170 16.170 16.180 65.520 64.770 9.390 9.540 0.00 0.00 17.670 16.810 14.480 11.160 12.650 15.890 16.070 16.210 16.260 16.200 9.580 9.610 0.00 0.00 0.6790   15.710 16.000 16.140 16.090 16.150 9.210 9.480     318     0.4670 355.50 15.07   0.000 0.000 17.973 11.786 6.197 18.379 11.905 6.475
WS7MET_125 2018-07-18 01:40:00 125 30483.0 15.890 16.090 16.240 16.260 16.250 64.900 64.300 9.310 9.530 0.00 0.00 17.680 16.810 14.480 11.160 12.650 15.990 16.110 16.290 16.330 16.290 9.420 9.620 0.00 0.00 0.4310   15.780 16.070 16.210 16.160 16.200 9.210 9.440     318     0.2600 343.50 12.24   0.000 0.000 18.054 11.722 6.337 18.485 11.897 6.599
WS7MET_125 2018-07-18 01:35:00 125 30483.0 16.050 16.200 16.360 16.360 16.280 64.340 64.020 9.330 9.550 0.00 0.00 17.690 16.810 14.470 11.160 12.650 16.160 16.270 16.440 16.470 16.360 9.450 9.710 0.00 0.00 0.5030   15.950 16.120 16.290 16.260 16.230 9.210 9.470     318     0.4250 349.80 4.12   0.000 0.000 18.239 11.738 6.504 18.603 11.913 6.694
WS7MET_125 2018-07-18 01:30:00 125 30483.0 16.230 16.390 16.540 16.540 16.480 63.680 63.370 9.360 9.580 0.00 0.00 17.690 16.810 14.470 11.160 12.650 16.330 16.480 16.630 16.640 16.590 9.470 9.680 0.00 0.00 0.5810   16.160 16.300 16.460 16.400 16.400 9.240 9.510     318     0.3980 338.60 3.88   0.000 0.000 18.450 11.762 6.701 18.818 11.937 6.893
WS7MET_125 2018-07-18 01:25:00 125 30483.0 16.380 16.550 16.700 16.670 16.690 63.140 62.690 9.360 9.540 0.00 0.00 17.690 16.810 14.470 11.150 12.650 16.470 16.630 16.760 16.740 16.770 9.460 9.620 0.00 0.00 0.6660   16.290 16.490 16.640 16.600 16.620 9.250 9.450     318     0.4560 347.50 7.15   0.000 0.000 18.627 11.762 6.866 18.974 11.905 7.079
WS7MET_125 2018-07-18 01:20:00 125 30483.0 16.470 16.700 16.830 16.770 16.820 62.550 62.310 9.320 9.540 0.00 0.00 17.700 16.810 14.470 11.160 12.650 16.570 16.770 16.890 16.840 16.950 9.440 9.640 0.00 0.00 0.5100   16.360 16.630 16.770 16.640 16.770 9.200 9.450     318     0.2860 343.80 3.61   0.000 0.000 18.734 11.730 7.016 19.095 11.905 7.197
WS7MET_125 2018-07-18 01:15:00 125 30483.0 16.500 16.810 16.940 16.910 16.930 62.080 61.610 9.230 9.500 0.00 0.00 17.700 16.820 14.470 11.150 12.650 16.530 16.850 17.000 16.980 17.040 9.310 9.590 0.00 0.00 0.5290   16.430 16.780 16.890 16.810 16.860 9.140 9.400     318     0.4370 339.50 6.00   0.000 0.000 18.770 11.659 7.118 19.265 11.873 7.396
WS7MET_125 2018-07-18 01:10:00 125 30483.0 16.530 16.860 17.020 16.980 17.070 62.550 61.280 9.370 9.490 0.00 0.00 17.710 16.810 14.460 11.160 12.660 16.600 16.870 17.040 17.050 17.130 9.570 9.670 0.00 0.00 0.5620   16.470 16.850 17.000 16.870 16.980 9.220 9.360     318     0.3980 346.00 19.32   0.000 0.000 18.806 11.770 7.043 19.351 11.865 7.493
WS7MET_125 2018-07-18 01:05:00 125 30483.0 16.530 16.850 17.000 16.990 17.040 62.290 61.160 9.310 9.470 0.00 0.00 17.720 16.810 14.460 11.150 12.660 16.600 16.860 17.000 17.080 17.080 9.440 9.650 0.00 0.00 0.6470   16.430 16.830 16.980 16.940 16.990 9.130 9.370     318     0.3080 341.10 20.05   0.000 0.000 18.806 11.722 7.092 19.363 11.849 7.521
WS7MET_125 2018-07-18 01:00:00 125 30483.0 16.560 16.810 16.970 16.930 17.000 62.150 61.100 9.310 9.400 0.00 0.00 17.720 16.810 14.460 11.150 12.660 16.640 16.840 17.000 16.980 17.060 9.480 9.510 0.00 0.00 0.4640   16.470 16.800 16.950 16.870 16.970 9.070 9.290     318     0.2580 337.80 27.62   0.000 0.000 18.842 11.722 7.132 19.290 11.794 7.504
WS7MET_125 2018-07-18 00:55:00 125 30483.0 16.560 16.810 16.960 16.960 16.970 62.300 61.390 9.340 9.500 0.00 0.00 17.730 16.810 14.460 11.150 12.660 16.600 16.840 16.980 17.010 17.010 9.480 9.620 0.00 0.00 0.8230   16.500 16.780 16.950 16.910 16.930 9.220 9.430     318     0.5090 343.90 9.40   0.000 0.000 18.842 11.746 7.103 19.326 11.873 7.462
WS7MET_125 2018-07-18 00:50:00 125 30483.0 16.600 16.880 17.050 17.080 17.010 63.120 61.770 9.570 9.710 0.00 0.00 17.730 16.810 14.460 11.150 12.660 16.670 16.940 17.140 17.220 17.130 9.680 9.820 0.00 0.00 0.6210   16.530 16.840 16.990 17.010 16.930 9.450 9.610     318     0.3750 338.30 6.00   0.000 0.000 18.890 11.929 6.967 19.474 12.042 7.445
WS7MET_125 2018-07-18 00:45:00 125 30483.0 16.620 16.940 17.150 17.160 17.240 62.880 61.240 9.530 9.660 0.00 0.00 17.730 16.810 14.460 11.150 12.670 16.670 16.960 17.170 17.220 17.320 9.750 9.790 0.00 0.00 0.5750   16.530 16.910 17.130 17.080 17.150 9.380 9.520     318     0.4260 342.50 10.55   0.000 0.000 18.914 11.897 7.021 19.573 12.002 7.586
WS7MET_125 2018-07-18 00:40:00 125 30483.0 16.610 16.880 17.090 17.080 17.250 62.950 61.640 9.540 9.670 0.00 0.00 17.740 16.810 14.460 11.150 12.670 16.670 16.890 17.110 17.180 17.300 9.700 9.830 0.00 0.00 0.4700   16.530 16.870 17.070 17.010 17.180 9.420 9.560     318     0.3590 351.80 4.30   0.000 0.000 18.902 11.905 7.003 19.474 12.010 7.470
WS7MET_125 2018-07-18 00:35:00 125 30483.0 16.640 16.880 17.060 17.050 17.090 62.820 61.970 9.540 9.720 0.00 0.00 17.740 16.810 14.460 11.150 12.670 16.700 16.890 17.080 17.110 17.170 9.660 9.790 0.00 0.00 0.5750   16.570 16.870 17.050 16.980 17.060 9.370 9.610     318     0.5050 347.50 3.82   0.000 0.000 18.938 11.905 7.041 19.437 12.050 7.392
WS7MET_125 2018-07-18 00:30:00 125 30483.0 16.690 16.900 17.090 17.070 17.110 62.400 61.830 9.490 9.710 0.00 0.00 17.750 16.810 14.460 11.150 12.670 16.740 16.940 17.090 17.150 17.140 9.570 9.800 0.00 0.00 0.4700   16.640 16.890 17.070 16.980 17.080 9.390 9.610     318     0.4170 346.50 5.96   0.000 0.000 18.998 11.865 7.143 19.461 12.042 7.428
WS7MET_125 2018-07-18 00:25:00 125 30483.0 16.730 16.970 17.130 17.110 17.150 62.580 61.930 9.570 9.770 0.00 0.00 17.750 16.810 14.460 11.150 12.670 16.870 17.000 17.160 17.220 17.210 9.700 9.890 0.00 0.00 0.4770   16.670 16.940 17.100 17.010 17.100 9.440 9.700     318     0.4000 345.10 4.28   0.000 0.000 19.046 11.929 7.127 19.511 12.091 7.428
WS7MET_125 2018-07-18 00:20:00 125 30483.0 16.840 17.040 17.180 17.160 17.170 62.290 61.860 9.600 9.810 0.00 0.00 17.750 16.810 14.460 11.150 12.670 16.910 17.080 17.230 17.220 17.190 9.730 9.890 0.00 0.00 0.5100   16.770 17.010 17.160 17.110 17.140 9.520 9.720     318     0.3830 341.70 1.14   0.000 0.000 19.180 11.953 7.233 19.573 12.123 7.465
WS7MET_125 2018-07-18 00:15:00 125 30483.0 16.890 17.120 17.280 17.270 17.320 62.470 61.770 9.690 9.880 0.00 0.00 17.760 16.800 14.460 11.150 12.680 16.980 17.150 17.300 17.350 17.390 9.840 10.000 0.00 0.00 0.4770   16.840 17.090 17.230 17.220 17.190 9.560 9.800     318     0.3680 343.00 4.80   0.000 0.000 19.241 12.026 7.221 19.709 12.180 7.535
WS7MET_125 2018-07-18 00:10:00 125 30483.0 16.930 17.170 17.320 17.340 17.340 62.620 61.900 9.770 9.980 0.00 0.00 17.770 16.800 14.460 11.150 12.680 16.980 17.210 17.360 17.420 17.370 9.830 10.050 0.00 0.00 0.5950   16.840 17.150 17.300 17.250 17.290 9.690 9.900     318     0.4910 349.00 1.68   0.000 0.000 19.290 12.091 7.210 19.797 12.262 7.543
WS7MET_125 2018-07-18 00:05:00 125 30483.0 16.970 17.250 17.400 17.430 17.420 62.510 61.610 9.780 9.990 0.00 0.00 17.770 16.790 14.460 11.150 12.690 17.050 17.270 17.420 17.490 17.460 9.880 10.040 0.00 0.00 0.5490   16.910 17.210 17.360 17.320 17.370 9.690 9.910     318     0.4550 345.20 1.90   0.000 0.000 19.339 12.099 7.250 19.910 12.271 7.643
WS7MET_125 2018-07-18 00:00:00 125 30483.0 17.040 17.310 17.470 17.490 17.460 62.240 61.440 9.770 10.010 0.00 0.00 17.780 16.790 14.460 11.150 12.690 17.110 17.340 17.530 17.630 17.530 9.930 10.180 0.00 0.00 0.5490   16.980 17.280 17.430 17.390 17.420 9.660 9.910     318     0.3860 348.20 0.93   0.000 0.000 19.425 12.091 7.335 19.985 12.287 7.706
WS7MET_125 2018-07-17 23:55:00 125 30483.0 17.100 17.370 17.540 17.550 17.610 61.790 60.830 9.730 9.920 0.00 0.00 17.780 16.790 14.460 11.150 12.690 17.180 17.380 17.550 17.590 17.640 9.810 9.980 0.00 0.00 0.5230   17.010 17.350 17.530 17.490 17.550 9.650 9.850     318     0.4270 345.70 4.21   0.000 0.000 19.498 12.058 7.450 20.061 12.213 7.858
WS7MET_125 2018-07-17 23:50:00 125 30483.0 17.160 17.420 17.570 17.590 17.570 61.810 60.960 9.790 9.990 0.00 0.00 17.780 16.790 14.460 11.150 12.690 17.280 17.470 17.610 17.660 17.600 9.880 10.160 0.00 0.00 0.5550   17.080 17.380 17.540 17.520 17.530 9.690 9.890     318     0.4700 341.30 1.79   0.000 0.000 19.573 12.107 7.475 20.112 12.271 7.852
WS7MET_125 2018-07-17 23:45:00 125 30483.0 17.270 17.530 17.670 17.630 17.640 61.530 60.890 9.830 10.010 0.00 0.00 17.790 16.790 14.460 11.150 12.690 17.350 17.570 17.720 17.690 17.730 9.970 10.140 0.00 0.00 0.6340   17.220 17.470 17.610 17.560 17.570 9.660 9.900     318     0.4590 336.50 5.22   0.000 0.000 19.709 12.140 7.582 20.163 12.287 7.886
WS7MET_125 2018-07-17 23:40:00 125 30483.0 17.340 17.600 17.750 17.660 17.780 61.130 60.850 9.790 10.020 0.00 0.00 17.790 16.790 14.460 11.150 12.700 17.390 17.610 17.760 17.730 17.820 9.910 10.080 0.00 0.00 0.4510   17.320 17.580 17.730 17.560 17.750 9.730 9.930     318     0.3800 336.30 5.27   0.000 0.000 19.797 12.107 7.695 20.201 12.295 7.909
WS7MET_125 2018-07-17 23:35:00 125 30483.0 17.390 17.640 17.790 17.730 17.790 61.100 60.640 9.840 10.040 0.00 0.00 17.790 16.790 14.450 11.150 12.700 17.450 17.660 17.810 17.830 17.840 10.020 10.160 0.00 0.00 0.5550   17.320 17.610 17.750 17.660 17.730 9.760 9.980     318     0.4740 340.40 2.42   0.000 0.000 19.859 12.148 7.725 20.290 12.312 7.986
WS7MET_125 2018-07-17 23:30:00 125 30483.0 17.430 17.670 17.840 17.810 17.850 61.050 60.400 9.860 10.060 0.00 0.00 17.800 16.790 14.450 11.150 12.700 17.490 17.670 17.850 17.860 17.890 9.950 10.130 0.00 0.00 0.5100   17.350 17.660 17.810 17.730 17.800 9.770 9.930     318     0.4440 336.10 3.91   0.000 0.000 19.910 12.164 7.755 20.393 12.328 8.075
WS7MET_125 2018-07-17 23:25:00 125 30483.0 17.430 17.680 17.850 17.840 17.870 60.660 60.110 9.770 10.010 0.00 0.00 17.800 16.790 14.440 11.150 12.700 17.490 17.700 17.870 17.930 17.910 9.840 10.100 0.00 0.00 0.5160   17.350 17.670 17.840 17.760 17.820 9.690 9.930     318     0.4700 347.20 0.91   0.000 0.000 19.910 12.091 7.832 20.431 12.287 8.150
WS7MET_125 2018-07-17 23:20:00 125 30483.0 17.430 17.700 17.890 17.890 17.910 60.900 59.960 9.830 10.020 0.00 0.00 17.810 16.780 14.440 11.150 12.700 17.490 17.720 17.900 18.000 17.930 9.910 10.130 0.00 0.00 0.5490   17.350 17.700 17.870 17.800 17.870 9.710 9.940     318     0.4900 347.20 0.83   0.000 0.000 19.910 12.140 7.785 20.495 12.295 8.206
WS7MET_125 2018-07-17 23:15:00 125 30483.0 17.490 17.730 17.900 17.890 17.920 60.960 60.080 9.900 10.050 0.00 0.00 17.810 16.780 14.440 11.150 12.700 17.560 17.740 17.910 17.930 17.960 9.980 10.110 0.00 0.00 0.5490   17.390 17.720 17.900 17.800 17.900 9.830 9.960     318     0.4590 345.50 3.09   0.000 0.000 19.985 12.197 7.802 20.495 12.320 8.182
WS7MET_125 2018-07-17 23:10:00 125 30483.0 17.540 17.780 17.950 17.980 17.940 60.830 59.880 9.900 10.090 0.00 0.00 17.810 16.770 14.440 11.150 12.710 17.660 17.800 17.980 18.030 17.970 10.040 10.160 0.00 0.00 0.5810   17.450 17.750 17.920 17.900 17.910 9.750 10.030     318     0.4580 349.90 3.68   0.000 0.000 20.048 12.197 7.853 20.612 12.353 8.269
WS7MET_125 2018-07-17 23:05:00 125 30483.0 17.580 17.850 18.030 18.060 17.990 60.990 59.540 9.990 10.080 0.00 0.00 17.820 16.770 14.440 11.150 12.720 17.660 17.910 18.080 18.140 18.050 10.090 10.140 0.00 0.00 0.6080   17.490 17.800 17.980 18.000 17.960 9.900 10.020     318     0.5410 352.00 0.88   0.000 0.000 20.099 12.271 7.841 20.716 12.345 8.382
WS7MET_125 2018-07-17 23:00:00 125 30483.0 17.620 17.930 18.120 18.140 18.160 60.610 59.140 9.930 10.050 0.00 0.00 17.820 16.770 14.440 11.150 12.720 17.690 17.930 18.130 18.210 18.180 10.010 10.150 0.00 0.00 0.6270   17.560 17.910 18.090 18.070 18.070 9.850 9.960     318     0.5640 351.10 0.93   0.000 0.000 20.150 12.221 7.937 20.820 12.320 8.507
WS7MET_125 2018-07-17 22:55:00 125 30483.0 17.610 17.920 18.090 18.110 18.150 60.220 58.790 9.820 9.940 0.00 0.00 17.820 16.770 14.440 11.150 12.720 17.690 17.920 18.120 18.170 18.180 9.920 10.050 0.00 0.00 0.5950   17.560 17.900 18.080 18.070 18.090 9.710 9.850     318     0.5200 353.10 1.18   0.000 0.000 20.137 12.131 8.011 20.781 12.229 8.564
WS7MET_125 2018-07-17 22:50:00 125 30483.0 17.640 17.940 18.110 18.090 18.140 59.720 58.600 9.730 9.870 0.00 0.00 17.820 16.770 14.440 11.150 12.720 17.730 17.960 18.130 18.170 18.190 9.810 9.940 0.00 0.00 0.5420   17.590 17.920 18.080 18.000 18.090 9.630 9.810     318     0.4560 351.00 2.29   0.000 0.000 20.175 12.058 8.127 20.755 12.172 8.593
WS7MET_125 2018-07-17 22:45:00 125 30483.0 17.660 17.960 18.110 18.050 18.130 59.840 59.040 9.780 9.950 0.00 0.00 17.830 16.770 14.440 11.150 12.720 17.690 17.980 18.130 18.140 18.180 10.000 10.080 0.00 0.00 0.5950   17.590 17.930 18.080 17.970 18.070 9.620 9.800     318     0.5100 347.30 7.30   0.000 0.000 20.201 12.099 8.113 20.703 12.238 8.480
WS7MET_125 2018-07-17 22:40:00 125 30483.0 17.630 17.920 18.090 18.060 18.140 60.090 59.190 9.810 9.990 0.00 0.00 17.830 16.770 14.440 11.150 12.730 17.730 17.960 18.120 18.100 18.160 9.890 10.040 0.00 0.00 0.5810   17.560 17.880 18.070 18.000 18.080 9.710 9.920     318     0.4510 348.00 9.67   0.000 0.000 20.163 12.123 8.047 20.716 12.271 8.454
WS7MET_125 2018-07-17 22:35:00 125 30483.0 17.710 17.920 18.090 18.020 18.100 59.430 59.090 9.720 9.930 0.00 0.00 17.830 16.770 14.440 11.150 12.730 17.800 17.950 18.100 18.100 18.140 9.800 10.020 0.00 0.00 0.5750   17.590 17.890 18.070 17.970 18.070 9.600 9.830     318     0.5170 347.80 2.93   0.000 0.000 20.264 12.050 8.221 20.664 12.221 8.454
WS7MET_125 2018-07-17 22:30:00 125 30483.0 17.780 17.960 18.110 18.050 18.100 58.840 58.760 9.640 9.880 0.00 0.00 17.830 16.770 14.440 11.150 12.730 17.860 17.990 18.150 18.140 18.120 9.710 9.960 0.00 0.00 0.5490   17.660 17.950 18.090 17.970 18.070 9.560 9.800     318     0.5050 343.10 0.95   0.000 0.000 20.354 11.986 8.378 20.703 12.180 8.538
WS7MET_125 2018-07-17 22:25:00 125 30483.0 17.860 18.050 18.200 18.150 18.170 58.730 58.570 9.690 9.920 0.00 0.00 17.830 16.760 14.440 11.150 12.740 17.930 18.100 18.250 18.240 18.270 9.760 9.990 0.00 0.00 0.5750   17.760 18.000 18.150 18.070 18.090 9.580 9.850     318     0.5060 343.20 4.06   0.000 0.000 20.457 12.026 8.443 20.833 12.213 8.631
WS7MET_125 2018-07-17 22:20:00 125 30483.0 17.860 18.090 18.250 18.200 18.280 58.870 58.370 9.720 9.910 0.00 0.00 17.830 16.750 14.440 11.150 12.740 17.930 18.100 18.260 18.240 18.320 9.790 9.970 0.00 0.00 0.5100   17.800 18.080 18.230 18.140 18.230 9.610 9.840     318     0.4430 338.90 2.16   0.000 0.000 20.457 12.050 8.414 20.899 12.205 8.700
WS7MET_125 2018-07-17 22:15:00 125 30483.0 17.840 18.070 18.210 18.180 18.270 59.480 59.150 9.850 10.090 0.00 0.00 17.840 16.750 14.440 11.150 12.740 17.900 18.090 18.240 18.270 18.320 9.990 10.240 0.00 0.00 0.6660   17.760 18.040 18.160 18.070 18.170 9.700 9.900     318     0.5230 342.30 7.43   0.000 0.000 20.431 12.156 8.279 20.872 12.353 8.526
WS7MET_125 2018-07-17 22:10:00 125 30483.0 17.870 18.050 18.180 18.180 18.140 59.790 59.750 9.960 10.250 0.00 0.00 17.840 16.750 14.440 11.150 12.750 17.930 18.100 18.220 18.270 18.180 10.040 10.350 0.00 0.00 0.4970   17.760 18.020 18.150 18.100 18.120 9.840 10.130     318     0.4320 343.30 5.76   0.000 0.000 20.470 12.246 8.231 20.872 12.486 8.401
WS7MET_125 2018-07-17 22:05:00 125 30483.0 17.880 18.110 18.240 18.190 18.250 60.220 59.960 10.080 10.310 0.00 0.00 17.840 16.750 14.440 11.150 12.750 17.930 18.140 18.250 18.270 18.300 10.180 10.400 0.00 0.00 0.5550   17.830 18.100 18.220 18.100 18.210 10.000 10.210     318     0.4600 342.30 3.61   0.000 0.000 20.483 12.345 8.148 20.886 12.536 8.363
WS7MET_125 2018-07-17 22:00:00 125 30483.0 17.860 18.110 18.260 18.220 18.290 60.580 60.000 10.150 10.340 0.00 0.00 17.840 16.750 14.440 11.150 12.750 17.970 18.120 18.260 18.310 18.320 10.290 10.460 0.00 0.00 0.5880   17.800 18.090 18.250 18.140 18.250 10.070 10.290     318     0.4550 351.50 3.57   0.000 0.000 20.457 12.403 8.064 20.925 12.561 8.370
WS7MET_125 2018-07-17 21:55:00 125 30483.0 17.890 18.120 18.260 18.200 18.280 60.490 59.940 10.150 10.310 0.00 0.00 17.840 16.750 14.440 11.150 12.760 17.970 18.140 18.270 18.270 18.310 10.320 10.400 0.00 0.00 0.6600   17.800 18.100 18.250 18.140 18.250 9.980 10.220     318     0.5600 348.00 5.19   0.000 0.000 20.495 12.403 8.098 20.899 12.536 8.372
WS7MET_125 2018-07-17 21:50:00 125 30483.0 17.900 18.140 18.290 18.270 18.280 59.950 59.610 10.030 10.290 0.00 0.00 17.840 16.750 14.440 11.150 12.760 17.970 18.170 18.330 18.380 18.320 10.120 10.350 0.00 0.00 0.5420   17.800 18.140 18.260 18.170 18.250 9.970 10.220     318     0.4860 337.20 1.24   0.000 0.000 20.508 12.303 8.214 20.991 12.519 8.478
WS7MET_125 2018-07-17 21:45:00 125 30483.0 17.930 18.200 18.360 18.320 18.400 60.260 59.440 10.140 10.300 0.00 0.00 17.840 16.740 14.440 11.150 12.770 18.030 18.230 18.390 18.410 18.470 10.280 10.420 0.00 0.00 0.6210   17.830 18.170 18.330 18.270 18.320 10.000 10.240     318     0.4770 343.20 2.68   0.000 0.000 20.547 12.394 8.165 21.057 12.528 8.541
WS7MET_125 2018-07-17 21:40:00 125 30483.0 17.960 18.180 18.340 18.310 18.370 60.060 59.560 10.110 10.320 0.00 0.00 17.840 16.740 14.440 11.150 12.770 18.030 18.190 18.370 18.410 18.430 10.240 10.440 0.00 0.00 0.6730   17.900 18.170 18.330 18.210 18.300 9.990 10.220     318     0.5630 353.20 6.72   0.000 0.000 20.586 12.370 8.222 21.043 12.545 8.510
WS7MET_125 2018-07-17 21:35:00 125 30483.0 17.990 18.220 18.380 18.390 18.390 60.050 59.270 10.140 10.330 0.00 0.00 17.850 16.740 14.440 11.150 12.770 18.070 18.240 18.400 18.480 18.430 10.230 10.420 0.00 0.00 0.4970   17.930 18.190 18.350 18.340 18.350 10.030 10.240     318     0.4290 351.50 3.68   0.000 0.000 20.625 12.394 8.240 21.149 12.553 8.614
WS7MET_125 2018-07-17 21:30:00 125 30483.0 18.040 18.250 18.410 18.390 18.410 59.920 59.300 10.160 10.330 0.00 0.00 17.840 16.740 14.440 11.150 12.780 18.140 18.300 18.450 18.440 18.470 10.330 10.430 0.00 0.00 0.5360   17.970 18.220 18.400 18.310 18.370 9.990 10.210     318     0.4330 350.30 2.52   0.000 0.000 20.690 12.411 8.292 21.149 12.553 8.608
WS7MET_125 2018-07-17 21:25:00 125 30483.0 18.110 18.300 18.470 18.470 18.500 59.290 58.880 10.060 10.300 0.00 0.00 17.850 16.730 14.440 11.150 12.780 18.170 18.310 18.490 18.550 18.530 10.190 10.360 0.00 0.00 0.5030   18.070 18.290 18.460 18.410 18.460 10.000 10.240     318     0.4200 345.50 1.55   0.000 0.000 20.781 12.328 8.460 21.256 12.528 8.740
WS7MET_125 2018-07-17 21:20:00 125 30483.0 18.180 18.360 18.510 18.520 18.500 59.120 58.640 10.080 10.280 0.00 0.00 17.850 16.730 14.430 11.150 12.780 18.240 18.400 18.560 18.610 18.550 10.190 10.350 0.00 0.00 0.5030   18.100 18.310 18.470 18.440 18.460 10.020 10.180     318     0.3840 345.20 2.23   0.000 0.000 20.872 12.345 8.533 21.322 12.511 8.819
WS7MET_125 2018-07-17 21:15:00 125 30483.0 18.250 18.440 18.580 18.570 18.590 59.240 58.700 10.180 10.350 0.00 0.00 17.840 16.730 14.430 11.150 12.780 18.310 18.460 18.580 18.650 18.610 10.280 10.470 0.00 0.00 0.6010   18.170 18.400 18.560 18.510 18.550 10.080 10.280     318     0.4440 345.10 3.99   0.000 0.000 20.964 12.428 8.545 21.389 12.570 8.834
WS7MET_125 2018-07-17 21:10:00 125 30483.0 18.330 18.490 18.630 18.600 18.630 59.450 59.060 10.310 10.460 0.00 0.00 17.840 16.730 14.430 11.150 12.790 18.440 18.510 18.650 18.680 18.650 10.420 10.570 0.00 0.00 0.5950   18.170 18.470 18.610 18.510 18.590 10.150 10.320     318     0.4290 343.80 7.19   0.000 0.000 21.070 12.536 8.544 21.429 12.662 8.773
WS7MET_125 2018-07-17 21:05:00 125 30483.0 18.430 18.580 18.700 18.710 18.640 59.660 59.480 10.450 10.680 0.00 0.00 17.840 16.730 14.430 11.150 12.800 18.550 18.670 18.770 18.820 18.720 10.710 10.850 0.00 0.00 0.5950   18.340 18.510 18.650 18.610 18.610 10.230 10.500     318     0.4380 339.60 8.73   0.000 0.000 21.202 12.654 8.553 21.577 12.850 8.743
WS7MET_125 2018-07-17 21:00:00 125 30483.0 18.530 18.730 18.850 18.830 18.800 60.130 59.920 10.670 10.900 0.00 0.00 17.830 16.720 14.430 11.150 12.800 18.610 18.790 18.920 18.920 18.880 10.780 10.990 0.00 0.00 0.5230   18.440 18.670 18.790 18.750 18.730 10.540 10.770     318     0.3710 333.30 4.35   0.000 0.000 21.336 12.841 8.506 21.740 13.039 8.713
WS7MET_125 2018-07-17 20:55:00 125 30483.0 18.630 18.860 19.010 19.010 18.930 60.310 59.860 10.800 11.060 0.00 0.00 17.830 16.720 14.430 11.150 12.810 18.680 18.930 19.090 19.160 19.050 10.990 11.220 0.00 0.00 0.4380   18.550 18.790 18.930 18.920 18.850 10.610 10.900     318     0.3410 332.30 5.11   0.000 0.000 21.470 12.953 8.521 21.985 13.179 8.825
WS7MET_125 2018-07-17 20:50:00 125 30483.0 18.630 18.990 19.150 19.120 19.170 61.360 60.010 11.070 11.190 0.00 0.00 17.830 16.710 14.430 11.150 12.810 18.680 19.020 19.180 19.190 19.240 11.340 11.360 0.00 0.00 0.5030   18.510 18.950 19.100 19.060 19.050 10.870 11.010     318     0.3890 355.10 9.75   0.000 0.000 21.470 13.187 8.296 22.137 13.293 8.852
WS7MET_125 2018-07-17 20:45:00 125 30483.0 18.700 19.050 19.200 19.190 19.190 61.760 60.450 11.230 11.370 0.00 0.00 17.830 16.710 14.430 11.150 12.820 18.750 19.090 19.230 19.300 19.240 11.380 11.460 0.00 0.00 0.6600   18.610 19.020 19.180 19.090 19.110 11.000 11.230     318     0.4490 13.11 12.76   0.000 0.000 21.564 13.328 8.246 22.233 13.452 8.793
WS7MET_125 2018-07-17 20:40:00 125 30483.0 18.790 19.120 19.270 19.240 19.340 61.720 60.440 11.300 11.410 0.00 0.00 17.830 16.710 14.430 11.150 12.820 18.850 19.140 19.290 19.300 19.400 11.400 11.510 0.00 0.00 0.8230   18.720 19.090 19.250 19.160 19.240 11.120 11.040     318     0.4660 9.35 24.32   0.000 0.000 21.685 13.390 8.301 22.303 13.488 8.823
WS7MET_125 2018-07-17 20:35:00 125 30483.0 18.850 19.140 19.280 19.260 19.300 61.940 60.810 11.420 11.520 0.00 0.00 17.830 16.710 14.420 11.150 12.830 18.960 19.180 19.320 19.330 19.330 11.600 11.710 0.00 0.00 0.7970   18.790 19.110 19.260 19.190 19.280 11.150 10.780     318     0.4280 7.96 31.75   0.000 0.000 21.767 13.497 8.284 22.330 13.587 8.751
WS7MET_125 2018-07-17 20:30:00 125 30483.0 18.990 19.210 19.360 19.370 19.360 61.900 60.980 11.540 11.670 0.00 0.00 17.830 16.700 14.420 11.150 12.830 19.090 19.250 19.430 19.470 19.520 11.650 11.800 0.00 0.00 0.6660   18.890 19.160 19.320 19.260 19.300 11.340 11.470     318     0.4830 8.70 20.61   0.000 0.000 21.958 13.605 8.366 22.484 13.722 8.773
WS7MET_125 2018-07-17 20:25:00 125 30483.0 19.010 19.230 19.420 19.420 19.510 61.870 61.170 11.560 11.760 0.00 0.00 17.830 16.700 14.420 11.150 12.830 19.130 19.250 19.430 19.500 19.550 11.670 11.890 0.00 0.00 0.6730   18.920 19.230 19.400 19.370 19.460 11.410 11.660     318     0.3950 4.80 24.32   0.000 0.000 21.985 13.623 8.383 22.554 13.804 8.758
WS7MET_125 2018-07-17 20:20:00 125 30483.0 19.110 19.230 19.390 19.450 19.490 62.010 61.600 11.680 11.890 0.00 0.00 17.830 16.700 14.420 11.150 12.820 19.190 19.250 19.410 19.500 19.580 11.800 12.010 0.00 0.00 0.6860   19.060 19.210 19.370 19.400 19.450 11.580 11.760     318     0.3410 357.90 23.34   0.000 0.000 22.123 13.731 8.404 22.596 13.923 8.677
WS7MET_125 2018-07-17 20:15:00 125 30483.0 19.220 19.300 19.460 19.520 19.460 61.530 61.370 11.660 11.910 0.00 0.00 17.820 16.700 14.420 11.140 12.840 19.330 19.390 19.530 19.670 19.580 11.800 12.100 0.00 0.00 0.4310   19.130 19.250 19.410 19.330 19.380 11.560 11.730     318     0.1830 9.60 22.91   0.000 0.000 22.275 13.713 8.569 22.695 13.941 8.767
WS7MET_125 2018-07-17 20:10:00 125 30483.0 19.360 19.460 19.620 19.670 19.650 61.530 61.250 11.800 12.020 0.00 0.00 17.810 16.690 14.420 11.140 12.850 19.470 19.540 19.700 19.740 19.720 11.920 12.110 0.00 0.00 0.4830   19.230 19.400 19.550 19.600 19.530 11.650 11.890     318     0.0780 319.20 12.70   0.000 0.000 22.470 13.841 8.644 22.907 14.043 8.876
WS7MET_125 2018-07-17 20:05:00 125 30483.0 19.510 19.620 19.760 19.830 19.730 60.930 60.720 11.790 12.040 0.00 0.00 17.810 16.690 14.420 11.140 12.860 19.710 19.710 19.840 20.010 19.810 11.930 12.110 0.00 0.00 0.6470   19.370 19.550 19.700 19.710 19.670 11.700 11.920     318     0.2570 358.20 31.72   0.000 0.000 22.680 13.831 8.861 23.135 14.062 9.088
WS7MET_125 2018-07-17 20:00:00 125 30483.0 19.670 19.790 19.930 19.950 19.940 60.410 60.170 11.810 12.020 0.00 0.00 17.810 16.690 14.420 11.140 12.860 19.770 19.850 19.980 20.010 20.000 11.920 12.150 0.00 0.00 0.3400   19.540 19.710 19.850 19.840 19.810 11.600 11.890     318     0.1240 349.70 16.93   0.000 0.000 22.907 13.850 9.069 23.308 14.043 9.284
WS7MET_125 2018-07-17 19:55:00 125 30483.0 19.840 19.920 20.050 20.070 19.980 60.120 60.010 11.890 12.080 0.27 0.00 17.810 16.690 14.420 11.140 12.870 19.910 20.000 20.130 20.220 20.040 12.050 12.190 1.34 0.00 0.6340   19.740 19.850 19.990 19.910 19.910 11.770 11.960     318     0.3330 346.50 29.54   0.000 0.000 23.150 13.923 9.232 23.482 14.099 9.390
WS7MET_125 2018-07-17 19:50:00 125 30483.0 19.990 20.120 20.270 20.330 20.170 59.740 59.410 11.940 12.180 1.34 0.00 17.800 16.690 14.420 11.150 12.880 20.080 20.230 20.380 20.490 20.330 12.070 12.310 1.34 0.00 0.8750   19.910 20.010 20.140 20.220 20.020 11.860 12.060     318     0.2810 349.60 32.79   0.000 0.000 23.366 13.969 9.407 23.862 14.192 9.686
WS7MET_125 2018-07-17 19:45:00 125 30483.0 20.080 20.270 20.450 20.490 20.460 59.360 58.510 11.930 12.090 2.28 0.00 17.790 16.690 14.420 11.150 12.880 20.150 20.310 20.490 20.560 20.550 12.100 12.190 2.68 0.00 0.5030   20.050 20.240 20.390 20.390 20.360 11.800 11.980     318     0.2530 355.40 16.31   0.000 0.000 23.496 13.960 9.549 24.099 14.108 9.999
WS7MET_125 2018-07-17 19:40:00 125 30483.0 20.170 20.350 20.530 20.570 20.610 59.320 58.500 12.010 12.170 3.22 0.00 17.790 16.690 14.420 11.150 12.890 20.250 20.380 20.560 20.630 20.710 12.130 12.280 4.03 0.00 0.4510   20.080 20.320 20.500 20.530 20.550 11.910 12.080     318     0.2020 4.64 22.47   0.000 0.000 23.627 14.034 9.612 24.218 14.182 10.050
WS7MET_125 2018-07-17 19:35:00 125 30483.0 20.330 20.480 20.640 20.730 20.590 59.140 58.340 12.110 12.280 4.03 0.00 17.790 16.690 14.420 11.150 12.900 20.420 20.580 20.740 20.870 20.710 12.390 12.460 4.03 0.00 0.6010   20.220 20.380 20.560 20.560 20.500 11.970 12.160     318     0.2020 9.96 30.74   0.000 0.000 23.862 14.127 9.750 24.458 14.286 10.189
WS7MET_125 2018-07-17 19:30:00 125 30483.0 20.500 20.680 20.850 20.970 20.770 58.600 57.550 12.130 12.290 4.03 0.00 17.780 16.680 14.420 11.150 12.910 20.630 20.790 20.950 21.140 20.860 12.240 12.420 4.03 0.00 0.5360   20.420 20.590 20.750 20.830 20.680 11.950 12.180     318     0.0980 4.96 6.82   0.000 0.000 24.114 14.145 9.983 24.821 14.295 10.537
WS7MET_125 2018-07-17 19:25:00 125 30483.0 20.670 20.900 21.080 21.200 20.920 58.670 57.510 12.300 12.500 4.36 0.00 17.780 16.670 14.420 11.150 12.910 20.800 21.020 21.210 21.380 21.060 12.580 12.690 5.37 0.00 0.5420   20.560 20.800 20.970 21.070 20.830 12.030 12.170     318     0.1210 353.30 19.83   0.000 0.000 24.368 14.304 10.071 25.174 14.494 10.697
WS7MET_125 2018-07-17 19:20:00 125 30483.0 20.930 21.170 21.370 21.490 21.240 57.530 55.690 12.250 12.270 5.37 0.00 17.770 16.670 14.420 11.150 12.920 21.070 21.310 21.510 21.620 21.510 12.620 12.550 5.37 0.00 0.7580   20.800 21.030 21.230 21.340 21.080 11.840 11.990     318     0.2410 81.30 55.85   0.000 0.000 24.761 14.257 10.516 25.626 14.276 11.355
WS7MET_125 2018-07-17 19:15:00 125 30483.0 21.130 21.420 21.620 21.750 21.490 57.130 54.880 12.330 12.300 6.11 0.00 17.760 16.670 14.420 11.150 12.920 21.240 21.550 21.770 21.890 21.560 12.840 12.660 6.71 0.00 0.7250   21.040 21.330 21.520 21.620 21.440 12.040 12.050     318     0.1850 70.52 30.01   0.000 0.000 25.066 14.333 10.746 26.036 14.304 11.747
WS7MET_125 2018-07-17 19:10:00 125 30483.0 21.290 21.670 21.890 22.050 21.640 56.690 53.850 12.370 12.280 6.71 0.00 17.750 16.670 14.420 11.150 12.940 21.450 21.820 22.070 22.270 21.830 12.570 12.630 6.71 0.00 2.0650   21.210 21.570 21.770 21.890 21.520 12.170 11.780     318     0.3600 172.00 70.02   0.000 0.000 25.314 14.370 10.963 26.517 14.286 12.238
WS7MET_125 2018-07-17 19:05:00 125 30483.0 21.360 21.790 22.060 22.160 22.020 54.620 51.350 11.860 11.660 7.51 0.67 17.750 16.670 14.420 11.150 12.950 21.480 21.920 22.190 22.270 22.420 12.610 12.070 8.05 1.34 1.5680   21.280 21.650 21.930 22.060 21.590 11.100 11.290     318     0.7450 195.40 41.16   0.000 0.000 25.422 13.896 11.537 26.695 13.713 12.987
WS7MET_125 2018-07-17 19:00:00 125 30483.0 21.550 21.890 22.160 22.240 22.080 54.050 51.280 11.880 11.730 8.05 1.34 17.740 16.670 14.420 11.150 12.960 21.720 21.970 22.210 22.370 22.290 12.510 11.960 8.05 1.34 0.8170   21.410 21.820 22.090 22.160 21.980 11.400 11.390     318     0.3440 89.80 59.20   0.000 0.000 25.720 13.914 11.818 26.825 13.777 13.069
WS7MET_125 2018-07-17 18:55:00 125 30483.0 21.710 22.030 22.230 22.290 22.220 53.280 51.020 11.820 11.690 8.45 1.34 17.740 16.660 14.420 11.150 12.970 21.790 22.100 22.290 22.400 22.410 12.320 12.010 9.39 1.34 1.0450   21.650 21.980 22.160 22.200 22.080 11.100 11.260     318     0.5220 68.24 56.55   0.000 0.000 25.973 13.859 12.134 26.907 13.740 13.179
WS7MET_125 2018-07-17 18:50:00 125 30483.0 21.930 22.120 22.320 22.410 22.280 52.790 50.780 11.870 11.730 9.39 1.34 17.730 16.670 14.420 11.150 12.980 22.090 22.190 22.390 22.500 22.520 12.380 11.920 9.39 1.34 0.9340   21.750 22.060 22.260 22.300 22.200 11.650 11.400     318     0.1580 74.02 49.71   0.000 0.000 26.324 13.905 12.427 27.104 13.777 13.341
WS7MET_125 2018-07-17 18:45:00 125 30483.0 22.120 22.320 22.500 22.620 22.400 51.590 50.200 11.700 11.750 9.80 1.34 17.720 16.660 14.420 11.150 12.990 22.270 22.410 22.610 22.740 22.550 11.990 11.940 10.74 1.34 0.3200   22.030 22.210 22.390 22.470 22.260 11.490 11.580     318     0.0360 7.95 0.30   0.000 0.000 26.630 13.749 12.892 27.452 13.795 13.671
WS7MET_125 2018-07-17 18:40:00 125 30483.0 22.330 22.590 22.770 22.870 22.580 51.630 49.840 11.910 11.870 10.87 1.34 17.710 16.660 14.420 11.150 13.000 22.500 22.710 22.900 22.980 22.840 12.210 12.370 12.08 1.34 0.5750   22.160 22.440 22.610 22.740 22.360 11.460 11.470     318     0.1070 145.10 10.37   0.000 0.000 26.973 13.941 13.047 27.871 13.905 13.980
WS7MET_125 2018-07-17 18:35:00 125 30483.0 22.570 22.860 23.040 23.160 22.830 50.390 48.350 11.760 11.680 12.68 1.95 17.710 16.660 14.420 11.150 13.010 22.740 23.020 23.210 23.320 22.950 12.100 12.000 13.42 2.68 0.7320   22.400 22.730 22.910 22.980 22.700 11.370 11.130     318     0.3980 87.70 56.08   0.000 0.000 27.369 13.804 13.578 28.364 13.731 14.650
WS7MET_125 2018-07-17 18:30:00 125 30483.0 22.800 23.190 23.390 23.460 23.170 49.530 47.140 11.710 11.570 15.10 2.88 17.700 16.660 14.410 11.140 13.020 22.910 23.340 23.530 23.560 23.430 12.160 12.020 16.10 4.03 0.3400   22.670 23.040 23.230 23.320 22.970 11.340 11.180     318     0.0600 159.40 50.45   0.000 0.000 27.753 13.759 14.007 28.882 13.632 15.267
WS7MET_125 2018-07-17 18:25:00 125 30483.0 23.050 23.360 23.580 23.630 23.450 48.290 45.640 11.560 11.230 18.72 4.03 17.700 16.660 14.410 11.150 13.030 23.190 23.420 23.620 23.800 23.710 12.270 11.720 20.13 4.03 0.8100   22.910 23.340 23.530 23.530 23.110 11.130 10.650     318     0.3390 129.50 56.69   0.000 0.000 28.176 13.623 14.570 29.179 13.328 15.862
WS7MET_125 2018-07-17 18:20:00 125 30483.0 23.250 23.590 23.810 23.890 23.560 47.600 44.950 11.520 11.240 21.00 4.29 17.680 16.660 14.410 11.140 13.050 23.390 23.750 23.980 24.110 23.740 12.140 11.630 21.47 5.37 0.9340   23.120 23.440 23.650 23.660 23.360 11.240 10.860     318     0.4010 75.65 41.20   0.000 0.000 28.519 13.587 14.944 29.639 13.337 16.316
WS7MET_125 2018-07-17 18:15:00 125 30483.0 23.460 23.880 24.140 24.220 23.860 47.070 44.070 11.540 11.240 22.75 5.37 17.680 16.650 14.410 11.140 13.060 23.560 23.980 24.270 24.380 24.030 12.570 11.470 24.15 5.37 0.8560   23.360 23.760 24.010 24.110 23.700 10.880 10.720     318     0.3180 56.35 67.30   0.000 0.000 28.882 13.605 15.287 30.232 13.337 16.909
WS7MET_125 2018-07-17 18:10:00 125 30483.0 23.550 23.990 24.320 24.390 24.180 46.180 42.960 11.330 11.010 24.69 6.31 17.660 16.660 14.410 11.140 13.080 23.600 24.070 24.370 24.480 24.410 12.490 11.530 25.50 6.71 1.1300   23.490 23.920 24.270 24.280 23.930 10.760 10.630     318     0.3270 95.40 77.78   0.000 0.000 29.039 13.417 15.629 30.541 13.135 17.421
WS7MET_125 2018-07-17 18:05:00 125 30483.0 23.660 24.070 24.500 24.690 23.940 47.150 43.560 11.750 11.490 40.12 7.45 17.660 16.660 14.410 11.140 13.090 23.770 24.250 24.710 24.990 24.070 12.230 12.420 71.12 8.05 1.0850   23.560 23.920 24.310 24.450 23.800 11.530 10.940     318     0.2770 129.60 40.87   0.000 0.000 29.232 13.795 15.449 31.094 13.560 17.549
WS7MET_125 2018-07-17 18:00:00 125 30483.0 23.900 24.470 24.970 25.120 24.030 47.690 43.030 12.140 11.690 80.40 9.06 17.660 16.650 14.410 11.140 13.100 24.070 24.740 25.270 25.340 24.160 13.100 12.350 158.30 10.74 0.5550   23.730 24.270 24.730 24.890 23.930 11.510 10.840     318     0.1900 91.30 59.66   0.000 0.000 29.657 14.154 15.514 31.901 13.740 18.174
WS7MET_125 2018-07-17 17:55:00 125 30483.0 24.340 25.140 25.630 25.490 24.120 48.530 43.100 12.810 12.050 238.90 12.48 17.640 16.650 14.410 11.150 13.120 24.590 25.590 26.110 25.680 24.470 13.660 12.840 297.90 16.10 0.9540   24.110 24.740 25.280 25.230 23.880 12.060 11.140     318     0.3320 87.50 69.24   0.000 0.000 30.450 14.791 15.672 32.610 14.071 18.555
WS7MET_125 2018-07-17 17:50:00 125 30483.0 24.770 25.620 26.110 25.510 24.530 46.220 42.670 12.460 11.920 306.80 19.59 17.630 16.640 14.410 11.150 13.140 24.960 25.700 26.270 25.610 24.680 12.850 12.480 312.70 22.81 0.5750   24.590 25.510 25.890 25.400 24.420 11.850 11.430     318     0.1240 121.10 16.39   0.000 0.000 31.242 14.456 16.802 32.649 13.951 18.717
WS7MET_125 2018-07-17 17:45:00 125 30483.0 25.190 25.620 26.040 25.670 24.470 45.510 41.940 12.600 11.800 323.60 28.18 17.630 16.640 14.410 11.140 13.150 25.470 25.810 26.190 25.880 24.530 14.050 12.220 331.40 33.55 0.7250   24.960 25.480 25.870 25.570 24.340 11.930 11.480     318     0.2390 91.60 35.51   0.000 0.000 32.034 14.589 17.455 32.960 13.841 19.137
WS7MET_125 2018-07-17 17:40:00 125 30483.0 25.650 26.080 26.590 26.180 24.580 47.440 41.390 13.640 12.050 338.10 38.91 17.620 16.640 14.410 11.140 13.170 25.750 26.240 26.790 26.600 24.810 15.150 12.860 343.50 44.28 0.9080   25.510 25.780 26.190 25.880 24.390 12.300 11.530     318     0.3800 105.30 24.49   0.000 0.000 32.921 15.615 17.303 33.969 14.071 19.909
WS7MET_125 2018-07-17 17:35:00 125 30483.0 25.760 26.280 26.730 26.480 25.100 46.470 41.890 13.430 12.500 353.20 51.33 17.610 16.630 14.410 11.140 13.190 25.850 26.350 26.850 26.560 25.510 14.930 13.430 363.60 57.70 0.8300   25.680 26.240 26.590 26.360 24.810 11.470 11.400     318     0.1320 74.32 38.86   0.000 0.000 33.136 15.403 17.738 34.575 14.494 20.092
WS7MET_125 2018-07-17 17:30:00 125 30483.0 25.990 26.370 26.660 26.470 25.320 43.920 40.360 12.780 11.930 372.40 63.47 17.610 16.630 14.410 11.140 13.200 26.160 26.630 26.790 26.670 25.580 14.480 12.910 379.70 68.44 1.2870   25.810 26.210 26.540 26.360 25.190 11.260 11.130     318     0.4530 87.50 70.68   0.000 0.000 33.590 14.762 18.837 34.555 13.960 20.609
WS7MET_125 2018-07-17 17:25:00 125 30483.0 26.110 26.670 26.860 26.600 25.360 45.800 41.290 13.530 12.390 388.50 71.66 17.610 16.630 14.410 11.150 13.210 26.190 26.730 26.960 26.700 25.580 14.870 13.300 397.20 75.15 0.6860   26.050 26.630 26.780 26.460 25.080 12.400 11.880     318     0.1970 98.70 16.95   0.000 0.000 33.829 15.504 18.335 34.821 14.389 20.443
WS7MET_125 2018-07-17 17:20:00 125 30483.0 26.040 26.620 26.830 26.600 25.620 44.070 39.280 12.870 11.630 402.80 77.02 17.590 16.630 14.410 11.150 13.220 26.160 26.710 26.930 26.700 25.870 15.030 12.000 409.30 79.17 0.9470   25.950 26.570 26.790 26.530 25.130 11.980 11.270     318     0.4040 128.10 43.40   0.000 0.000 33.690 14.850 18.843 34.821 13.686 21.143
WS7MET_125 2018-07-17 17:15:00 125 30483.0 26.020 26.530 26.740 26.580 25.770 43.190 39.780 12.530 11.800 418.80 79.77 17.590 16.630 14.410 11.140 13.230 26.190 26.630 26.830 26.740 26.050 14.070 12.820 429.40 81.90 2.1690   25.920 26.430 26.630 26.390 25.370 11.440 11.270     318     0.7670 152.60 46.76   0.000 0.000 33.650 14.522 19.116 34.780 13.841 20.944
WS7MET_125 2018-07-17 17:10:00 125 30483.0 26.330 26.870 27.040 26.970 26.200 42.340 38.170 12.500 11.540 434.30 81.00 17.580 16.630 14.410 11.140 13.260 26.390 27.020 27.160 27.080 26.460 14.920 11.950 438.80 81.90 3.0180   26.190 26.530 26.850 26.770 25.900 11.420 11.170     318     1.1350 197.40 58.50   0.000 0.000 34.271 14.494 19.761 35.586 13.605 22.003
WS7MET_125 2018-07-17 17:05:00 125 30483.0 26.590 27.040 27.020 27.040 26.250 40.500 38.110 12.080 11.570 451.20 83.80 17.570 16.630 14.410 11.140 13.270 26.800 27.350 27.160 27.210 26.400 14.280 12.320 462.90 85.90 2.2470   26.360 26.790 26.880 26.870 26.070 11.040 11.180     318     1.0330 135.20 86.20   0.000 0.000 34.800 14.099 20.706 35.732 13.632 22.115
WS7MET_125 2018-07-17 17:00:00 125 30483.0 26.810 27.190 27.080 27.040 26.290 41.010 38.400 12.470 11.680 468.40 87.50 17.560 16.630 14.410 11.150 13.280 26.940 27.300 27.210 27.180 26.610 13.330 12.610 476.30 89.90 1.3070   26.700 26.970 26.930 26.870 26.050 11.390 11.240     318     0.6430 118.20 56.65   0.000 0.000 35.253 14.465 20.796 35.732 13.731 22.011
WS7MET_125 2018-07-17 16:55:00 125 30483.0 27.240 27.460 27.350 27.310 26.470 40.120 37.430 12.500 11.540 486.20 93.50 17.560 16.630 14.410 11.140 13.290 27.590 27.870 27.610 27.490 26.760 13.780 12.990 491.10 96.60 2.3060   27.010 26.960 26.970 27.010 26.120 10.570 10.960     318     1.2850 182.00 78.02   0.000 0.000 36.154 14.494 21.649 36.302 13.605 22.714
WS7MET_125 2018-07-17 16:50:00 125 30483.0 27.620 27.780 27.810 27.610 26.940 41.170 37.530 13.220 11.830 498.70 101.00 17.540 16.630 14.410 11.140 13.290 27.690 27.970 28.040 27.930 27.340 14.820 12.430 505.90 106.00 2.4760   27.550 27.580 27.520 27.280 26.500 11.080 11.320     318     1.1320 142.80 69.26   0.000 0.000 36.966 15.193 21.747 36.944 13.868 23.079
WS7MET_125 2018-07-17 16:45:00 125 30483.0 27.680 28.040 28.090 27.740 26.940 39.140 36.590 12.510 11.570 514.20 109.50 17.540 16.630 14.410 11.140 13.300 27.860 28.090 28.170 27.830 27.200 14.940 12.540 522.00 114.10 2.2740   27.550 27.980 28.010 27.620 26.490 10.980 11.190     318     0.7550 222.80 102.40   0.000 0.000 37.096 14.503 22.576 37.226 13.632 23.605
WS7MET_125 2018-07-17 16:40:00 125 30483.0 27.810 28.020 28.380 28.050 27.130 39.990 34.930 12.940 11.140 530.20 118.10 17.520 16.630 14.410 11.150 13.300 27.930 28.150 28.530 28.200 27.480 14.720 12.670 536.70 122.10 1.3590   27.690 27.810 28.070 27.760 26.640 11.010 10.290     318     0.6670 173.40 54.34   0.000 0.000 37.378 14.918 22.431 37.904 13.249 24.664
WS7MET_125 2018-07-17 16:35:00 125 30483.0 28.290 28.110 28.730 28.120 27.110 34.530 32.020 11.150 9.890 547.90 127.30 17.520 16.630 14.410 11.150 13.300 28.510 28.270 28.940 28.310 27.320 13.580 10.980 559.50 131.50 1.8230   27.930 27.810 28.410 28.000 26.790 8.560 8.720     318     0.7030 185.70 49.96   0.000 0.000 38.437 13.258 25.165 38.059 12.189 25.872
WS7MET_125 2018-07-17 16:30:00 125 30483.0 28.720 28.200 28.720 28.280 27.400 32.870 29.070 10.800 8.590 564.20 135.50 17.520 16.630 14.410 11.140 13.280 28.890 28.270 28.910 28.380 27.590 12.530 10.040 570.30 138.20 1.2610   28.550 28.120 28.590 28.170 27.110 8.760 7.697     318     0.6130 125.70 24.00   0.000 0.000 39.408 12.953 26.454 38.415 11.166 27.247
WS7MET_125 2018-07-17 16:25:00 125 30483.0 29.200 28.350 28.880 28.430 27.280 30.870 26.750 10.240 7.496 576.40 142.20 17.500 16.630 14.410 11.140 13.270 29.470 28.470 28.940 28.550 27.460 13.010 8.710 587.70 146.30 1.2220   28.890 28.250 28.790 28.310 26.990 7.992 6.301     318     0.7170 152.40 64.02   0.000 0.000 40.516 12.478 28.009 38.751 10.364 28.385
WS7MET_125 2018-07-17 16:20:00 125 30483.0 29.490 28.650 29.150 28.910 27.500 31.250 26.030 10.660 7.514 595.40 150.00 17.490 16.620 14.410 11.150 13.260 29.840 28.820 29.330 29.160 27.750 14.670 9.150 606.50 154.30 1.0130   29.330 28.500 29.000 28.650 27.300 7.579 6.737     318     0.5380 125.90 68.17   0.000 0.000 41.199 12.832 28.324 39.843 10.377 29.472
WS7MET_125 2018-07-17 16:15:00 125 30483.0 29.980 29.190 29.470 29.220 28.000 27.550 24.610 9.160 6.947 613.30 158.10 17.480 16.620 14.410 11.140 13.230 30.250 29.360 29.630 29.360 28.210 12.950 8.280 618.60 161.00 2.8940   29.810 28.880 29.280 29.090 27.820 6.551 6.253     318     0.6520 184.60 62.31   0.000 0.000 42.376 11.604 30.701 40.563 9.982 30.581
WS7MET_125 2018-07-17 16:10:00 125 30483.0 30.210 29.190 29.360 28.970 27.920 29.240 26.620 10.310 7.877 625.20 164.80 17.470 16.620 14.410 11.140 13.220 30.320 29.360 29.570 29.060 28.270 12.620 10.130 630.70 167.70 1.5550   30.150 29.090 29.090 28.820 27.710 7.824 6.567     318     0.6610 181.10 47.38   0.000 0.000 42.938 12.536 30.383 39.982 10.637 29.339
WS7MET_125 2018-07-17 16:05:00 125 30483.0 30.500 29.250 29.110 28.920 27.930 26.640 25.320 9.080 7.099 639.80 173.90 17.460 16.620 14.410 11.140 13.200 30.800 29.510 29.300 29.160 28.170 12.610 10.050 648.10 178.50 2.4630   30.250 29.060 29.000 28.720 27.820 6.337 5.722     318     1.3180 183.60 47.03   0.000 0.000 43.656 11.542 32.026 39.866 10.086 29.772
WS7MET_125 2018-07-17 16:00:00 125 30483.0 30.780 29.580 29.450 29.380 28.320 27.100 24.630 9.580 7.094 653.00 182.30 17.450 16.620 14.410 11.150 13.180 30.970 29.840 29.600 29.600 28.680 12.850 7.944 657.50 185.20 1.3850   30.620 29.390 29.270 29.120 27.980 5.523 5.693     318     0.6570 118.10 66.06   0.000 0.000 44.360 11.937 32.338 40.939 10.083 30.856
WS7MET_125 2018-07-17 15:55:00 125 30483.0 31.120 29.460 29.220 29.140 28.160 24.260 24.520 8.290 6.834 669.30 191.10 17.440 16.620 14.410 11.150 13.170 31.270 29.750 29.390 29.330 28.500 11.370 7.674 674.90 194.60 2.0120   30.930 29.030 28.970 28.780 27.780 6.421 6.001     318     0.8770 222.00 47.72   0.000 0.000 45.227 10.941 34.255 40.376 9.904 30.476
WS7MET_125 2018-07-17 15:50:00 125 30483.0 31.060 29.240 29.200 28.970 27.900 27.800 22.630 10.300 5.527 678.90 197.20 17.430 16.620 14.410 11.150 13.170 31.170 29.640 29.690 29.360 28.220 11.700 6.626 683.00 199.90 1.2350   31.000 29.000 28.910 28.750 27.680 8.010 4.881     318     0.8920 120.00 28.67   0.000 0.000 45.073 12.528 32.543 39.982 9.049 30.934
WS7MET_125 2018-07-17 15:45:00 125 30483.0 31.300 30.050 29.980 29.720 28.430 25.690 23.220 9.170 6.512 692.60 203.70 17.420 16.620 14.410 11.150 13.140 31.750 30.360 30.300 29.980 28.660 12.900 8.710 704.50 208.00 1.2810   31.070 29.660 29.720 29.400 28.170 5.275 4.711     318     0.6410 162.90 58.81   0.000 0.000 45.692 11.612 33.954 41.748 9.687 32.054
WS7MET_125 2018-07-17 15:40:00 125 30483.0 31.690 30.220 30.350 29.780 28.480 28.230 26.610 10.990 8.530 709.50 210.40 17.410 16.620 14.410 11.150 13.130 31.750 30.420 30.450 29.940 28.620 13.380 10.610 712.50 212.00 1.6140   31.510 29.960 30.220 29.600 28.330 6.868 6.274     318     0.4820 169.80 54.34   0.000 0.000 46.714 13.117 33.527 41.892 11.120 30.745
WS7MET_125 2018-07-17 15:35:00 125 30483.0 31.630 29.750 29.940 29.400 28.550 25.850 24.710 9.620 7.156 716.20 213.10 17.410 16.610 14.410 11.150 13.130 32.260 30.020 30.170 29.600 28.870 11.400 8.420 719.20 214.70 1.1630   31.310 29.570 29.790 29.230 28.310 6.639 6.047     318     0.4950 131.90 47.90   0.000 0.000 46.556 11.970 34.521 40.986 10.126 30.859
WS7MET_125 2018-07-17 15:30:00 125 30483.0 32.740 30.080 30.040 29.320 28.540 25.760 25.060 10.560 7.301 726.70 217.00 17.390 16.620 14.410 11.150 13.120 33.120 30.230 30.200 29.430 28.720 12.600 8.870 732.60 218.70 2.4370   32.260 29.870 29.880 29.160 28.400 7.161 6.622     318     0.9500 158.70 38.79   0.000 0.000 49.565 12.747 36.797 40.798 10.227 30.574
WS7MET_125 2018-07-17 15:25:00 125 30483.0 33.090 30.150 30.110 29.330 28.520 26.550 23.980 11.330 6.662 737.20 220.70 17.390 16.620 14.410 11.150 13.110 33.180 30.280 30.200 29.430 28.600 12.790 7.973 746.10 224.10 1.3390   33.010 30.010 29.930 29.160 28.370 9.050 5.708     318     0.6400 145.50 43.01   0.000 0.000 50.548 13.417 37.128 40.821 9.788 31.032
WS7MET_125 2018-07-17 15:20:00 125 30483.0 33.300 30.480 30.470 29.650 28.600 24.590 21.650 10.350 5.461 751.30 225.60 17.380 16.620 14.410 11.150 13.130 33.490 30.750 30.730 29.870 28.750 12.090 6.242 755.40 226.80 1.7120   33.080 30.170 30.170 29.400 28.410 8.020 4.658     318     0.8420 135.00 24.89   0.000 0.000 51.146 12.570 38.569 41.580 9.007 32.578
WS7MET_125 2018-07-17 15:15:00 125 30483.0 33.160 30.950 30.930 30.100 29.140 26.200 23.020 11.210 6.720 758.00 227.90 17.370 16.620 14.410 11.150 13.130 33.320 31.180 31.180 30.450 29.310 11.930 8.540 766.20 230.80 1.5810   32.940 30.730 30.750 29.840 28.850 10.240 5.656     318     0.9590 147.30 16.00   0.000 0.000 50.747 13.310 37.451 42.668 9.827 32.846
WS7MET_125 2018-07-17 15:10:00 125 30483.0 32.670 31.150 31.280 30.550 29.490 25.690 21.230 10.440 5.897 773.30 232.30 17.360 16.610 14.410 11.150 13.130 32.980 31.290 31.440 30.690 30.010 13.620 8.220 780.90 234.80 1.7510   32.360 30.950 31.150 30.420 29.000 7.242 4.598     318     0.5710 125.80 42.75   0.000 0.000 49.370 12.645 36.687 43.781 9.284 34.487
WS7MET_125 2018-07-17 15:05:00 125 30483.0 32.120 30.780 31.000 30.410 29.420 22.950 18.100 8.260 3.496 779.70 234.00 17.360 16.620 14.410 11.150 13.140 32.330 31.100 31.200 30.590 29.780 11.220 5.460 785.00 236.20 2.2540   31.890 30.570 30.820 30.250 29.010 3.852 1.300     318     0.7460 158.30 58.36   0.000 0.000 47.864 10.918 36.879 43.432 7.848 35.571
WS7MET_125 2018-07-17 15:00:00 125 30483.0 31.980 30.700 30.960 30.500 29.220 21.290 17.400 6.804 3.003 790.00 237.50 17.350 16.620 14.410 11.140 13.160 32.430 30.810 31.100 30.690 29.400 10.800 5.207 797.00 240.20 1.9730   31.680 30.540 30.730 30.280 28.980 2.047 1.120     318     0.7390 159.80 52.38   0.000 0.000 47.487 9.884 37.377 43.656 7.579 36.060
WS7MET_125 2018-07-17 14:55:00 125 30483.0 32.240 30.610 30.740 30.210 29.120 21.700 17.930 7.563 3.205 802.00 241.00 17.340 16.620 14.410 11.140 13.170 32.430 30.790 31.070 30.390 29.370 9.780 5.287 810.00 242.90 2.0380   32.130 30.450 30.570 30.080 28.870 4.744 1.752     318     0.5810 171.20 52.95   0.000 0.000 48.189 10.412 37.732 42.938 7.688 35.239
WS7MET_125 2018-07-17 14:50:00 125 30483.0 32.200 31.030 30.980 30.440 29.290 21.690 15.680 7.465 1.515 815.00 245.10 17.340 16.620 14.410 11.140 13.170 32.470 31.200 31.140 30.690 29.820 10.420 3.117 819.00 246.90 1.4500   31.950 30.700 30.640 30.210 28.960 2.452 0.631     318     0.7290 143.40 59.16   0.000 0.000 48.080 10.342 37.652 43.507 6.815 36.685
WS7MET_125 2018-07-17 14:45:00 125 30483.0 31.730 30.910 30.910 30.500 29.590 19.420 16.420 5.360 2.167 827.00 249.60 17.330 16.620 14.410 11.150 13.180 31.950 31.120 31.040 30.690 29.820 9.900 5.387 836.00 252.30 1.6400   31.610 30.620 30.670 30.320 29.280 1.418 -0.011     318     0.6780 114.00 62.31   0.000 0.000 46.820 8.944 37.728 43.656 7.141 36.488
WS7MET_125 2018-07-17 14:40:00 125 30483.0 31.500 30.730 30.690 30.300 29.460 24.090 17.540 8.440 2.960 836.00 252.30 17.320 16.620 14.410 11.150 13.180 31.920 30.920 30.930 30.420 29.850 11.100 5.146 841.00 253.60 1.0650   31.140 30.500 30.480 30.180 29.100 3.971 0.831     318     0.5820 112.40 55.08   0.000 0.000 46.214 11.053 35.081 43.160 7.556 35.590
WS7MET_125 2018-07-17 14:35:00 125 30483.0 31.130 30.390 30.400 30.360 29.070 20.210 17.830 5.403 3.243 845.00 255.60 17.320 16.620 14.410 11.150 13.210 31.610 30.590 30.620 30.560 29.330 10.430 5.745 849.00 256.30 2.0060   30.790 30.230 30.200 30.080 28.780 1.590 1.310     318     0.8180 169.20 77.10   0.000 0.000 45.253 8.971 36.107 43.308 7.709 35.586
WS7MET_125 2018-07-17 14:30:00 125 30483.0 31.960 30.520 30.640 30.350 29.230 20.700 18.780 6.429 3.950 854.00 258.20 17.300 16.620 14.410 11.150 13.210 32.670 30.790 30.880 30.560 29.460 11.810 6.086 860.00 260.30 1.6730   31.680 30.200 30.330 30.180 29.040 2.163 2.124     318     0.7210 204.60 54.06   0.000 0.000 47.433 9.632 37.615 43.284 8.104 35.155
WS7MET_125 2018-07-17 14:25:00 125 30483.0 32.930 30.890 31.010 30.540 29.490 22.490 17.870 8.620 3.412 866.00 262.60 17.300 16.620 14.410 11.150 13.220 33.120 31.010 31.250 30.730 29.720 10.960 6.509 874.00 264.30 1.5160   32.810 30.670 30.710 30.420 29.190 2.937 2.173     318     0.7560 106.00 57.05   0.000 0.000 50.097 11.188 38.830 43.756 7.802 35.937
WS7MET_125 2018-07-17 14:20:00 125 30483.0 33.100 31.120 31.360 30.680 29.520 21.340 17.580 7.893 3.259 874.00 264.80 17.290 16.620 14.410 11.150 13.230 33.290 31.290 31.530 30.760 29.980 12.490 5.914 878.00 265.70 1.5290   32.840 30.870 31.200 30.520 29.220 2.045 1.071     318     0.6030 181.00 68.59   0.000 0.000 50.576 10.649 39.783 44.107 7.718 36.353
WS7MET_125 2018-07-17 14:15:00 125 30483.0 33.080 31.010 30.960 30.540 29.600 21.910 16.930 8.300 2.630 881.00 267.20 17.290 16.620 14.420 11.140 13.230 33.220 31.260 31.150 30.620 30.110 11.440 7.437 884.00 268.40 1.3260   32.940 30.850 30.740 30.490 29.280 3.083 0.935     318     0.5110 158.50 69.23   0.000 0.000 50.520 10.948 39.451 43.756 7.381 36.348
WS7MET_125 2018-07-17 14:10:00 125 30483.0 33.210 31.110 31.000 30.630 29.800 21.260 17.220 8.050 2.933 891.00 270.30 17.280 16.620 14.410 11.150 13.240 33.420 31.480 31.400 30.790 30.130 10.910 7.358 894.00 271.00 1.9210   33.080 30.930 30.790 30.420 29.550 3.326 1.434     318     0.7320 101.60 39.15   0.000 0.000 50.889 10.764 40.070 43.982 7.541 36.408
WS7MET_125 2018-07-17 14:05:00 125 30483.0 33.110 31.270 31.360 30.580 29.520 22.200 17.670 8.590 3.277 897.00 272.80 17.270 16.620 14.420 11.150 13.260 33.420 31.440 31.520 30.730 30.040 11.090 7.472 907.00 275.10 1.1760   32.770 31.180 31.150 30.450 29.250 3.808 1.531     318     0.7790 122.50 33.18   0.000 0.000 50.605 11.166 39.371 43.856 7.728 36.107
WS7MET_125 2018-07-17 14:00:00 125 30483.0 32.900 31.370 31.520 30.640 29.480 19.820 17.360 6.700 3.085 905.00 275.10 17.260 16.620 14.420 11.140 13.260 33.010 31.590 31.610 30.790 29.940 10.540 6.453 907.00 275.10 1.5880   32.770 31.280 31.370 30.520 29.220 2.759 1.306     318     0.5750 179.70 54.68   0.000 0.000 50.012 9.813 40.100 44.007 7.623 36.367
WS7MET_125 2018-07-17 13:55:00 125 30483.0 32.350 31.170 31.150 30.410 29.650 24.390 18.580 9.350 3.822 910.00 276.80 17.260 16.620 14.410 11.140 13.260 32.810 31.510 31.440 30.620 29.850 12.520 8.340 914.00 277.80 1.0260   31.850 30.930 31.010 30.250 29.310 4.797 2.159     318     0.5750 139.90 48.26   0.000 0.000 48.489 11.754 36.662 43.432 8.031 35.363
WS7MET_125 2018-07-17 13:50:00 125 30483.0 32.010 30.750 30.870 30.510 29.440 20.960 17.030 6.703 2.672 916.00 278.50 17.250 16.620 14.420 11.140 13.260 32.360 31.180 31.230 30.860 29.840 11.460 5.881 920.00 280.40 1.0910   31.720 30.420 30.560 30.180 29.160 2.058 1.012     318     0.5770 155.70 64.03   0.000 0.000 47.567 9.816 37.597 43.681 7.403 36.242
WS7MET_125 2018-07-17 13:45:00 125 30483.0 32.250 31.410 31.470 30.920 30.010 21.340 16.410 7.263 2.506 921.00 280.40 17.250 16.620 14.410 11.140 13.260 32.540 31.610 31.770 31.100 30.230 9.850 4.950 924.00 281.80 1.3920   31.990 31.120 31.230 30.790 29.730 1.948 0.977     318     0.7930 90.20 42.18   0.000 0.000 48.216 10.200 37.927 44.715 7.316 37.377
WS7MET_125 2018-07-17 13:40:00 125 30483.0 31.600 31.200 31.310 30.710 29.840 21.220 16.580 6.615 2.443 927.00 282.20 17.240 16.620 14.410 11.140 13.270 32.090 31.640 31.790 31.030 30.230 10.490 4.939 930.00 283.10 1.2480   31.170 30.560 30.650 30.520 29.400 2.100 -0.323     318     0.5490 185.40 52.24   0.000 0.000 46.477 9.756 36.614 44.183 7.283 36.857
WS7MET_125 2018-07-17 13:35:00 125 30483.0 31.200 30.550 30.620 30.460 29.530 19.980 14.810 5.230 0.721 933.00 284.50 17.240 16.620 14.410 11.140 13.260 31.370 30.730 30.770 30.560 29.700 9.770 4.147 935.00 285.80 1.7510   31.070 30.340 30.430 30.320 29.270 0.243 -0.504     318     0.7900 109.70 74.20   0.000 0.000 45.433 8.864 36.356 43.557 6.436 37.106
WS7MET_125 2018-07-17 13:30:00 125 30483.0 31.960 30.470 30.630 30.440 29.390 17.360 14.880 3.883 0.775 938.00 286.50 17.230 16.620 14.410 11.140 13.280 32.640 30.900 31.040 30.590 29.850 9.450 2.672 943.00 288.50 1.7120   31.200 30.110 30.290 30.350 28.940 -0.050 -0.619     318     0.8570 163.70 75.71   0.000 0.000 47.433 8.065 39.199 43.507 6.461 37.033
WS7MET_125 2018-07-17 13:25:00 125 30483.0 32.500 30.630 30.720 30.350 29.330 20.050 14.550 6.442 0.389 945.00 289.00 17.220 16.620 14.410 11.140 13.320 32.770 30.870 30.980 30.450 29.530 9.810 3.970 949.00 289.80 1.3850   32.300 30.400 30.560 30.210 29.040 0.251 -1.025     318     0.6530 99.70 63.14   0.000 0.000 48.900 9.641 39.096 43.284 6.283 36.986
WS7MET_125 2018-07-17 13:20:00 125 30483.0 32.950 30.750 30.740 30.230 29.160 19.880 15.400 6.812 1.061 948.00 289.70 17.220 16.620 14.410 11.140 13.480 33.120 31.020 30.930 30.320 29.520 10.060 4.476 953.00 291.20 1.4770   32.770 30.490 30.590 30.040 28.880 2.227 -0.633     318     0.7330 94.20 44.56   0.000 0.000 50.153 9.889 40.182 42.987 6.596 36.367
WS7MET_125 2018-07-17 13:15:00 125 30483.0 33.090 30.930 30.770 30.320 29.480 21.790 15.660 8.360 1.386 950.00 290.40 17.210 16.620 14.410 11.130 13.970 33.180 31.070 30.930 30.450 29.650 10.910 3.962 954.00 291.20 1.4050   33.010 30.840 30.650 30.210 29.290 5.598 0.389     318     0.8680 99.60 42.92   0.000 0.000 50.548 10.993 39.534 43.209 6.752 36.443
WS7MET_125 2018-07-17 13:10:00 125 30483.0 32.860 31.050 31.030 30.340 29.640 23.060 17.690 9.000 3.059 950.00 290.20 17.210 16.630 14.410 11.130 13.970 33.050 31.180 31.120 30.560 29.900 11.000 6.650 954.00 291.20 1.7050   32.600 30.820 30.900 30.110 29.370 5.918 0.355     318     0.7760 91.80 53.74   0.000 0.000 49.900 11.480 38.393 43.259 7.609 35.606
WS7MET_125 2018-07-17 13:05:00 125 30483.0 32.460 30.590 30.550 30.030 29.090 23.970 19.340 9.210 4.123 952.00 291.20 17.200 16.630 14.410 11.140 14.000 32.740 30.740 30.840 30.110 29.350 11.680 7.343 955.00 291.20 1.3070   32.300 30.390 30.310 29.910 28.920 3.032 2.566     318     0.5600 135.60 49.94   0.000 0.000 48.790 11.644 37.095 42.498 8.203 34.279
WS7MET_125 2018-07-17 13:00:00 125 30483.0 32.250 30.760 30.590 30.130 29.190 25.290 19.470 9.880 4.292 952.00 290.90 17.190 16.640 14.410 11.130 13.960 32.540 30.930 30.770 30.210 29.350 11.220 7.450 954.00 291.20 1.4110   31.780 30.630 30.390 30.010 29.010 7.672 2.814     318     0.7770 102.30 38.07   0.000 0.000 48.216 12.180 36.022 42.742 8.301 34.420
WS7MET_125 2018-07-17 12:55:00 125 30483.0 31.440 30.520 30.460 30.130 29.370 27.030 20.080 10.200 4.751 954.00 291.30 17.190 16.640 14.410 11.130 13.980 31.820 30.680 30.560 30.320 29.620 11.920 7.451 962.00 293.90 2.0120   31.140 30.220 30.250 29.910 29.100 7.519 3.383     318     0.9190 104.00 37.14   0.000 0.000 46.057 12.444 33.608 42.742 8.572 34.159
WS7MET_125 2018-07-17 12:50:00 125 30483.0 32.280 30.540 30.470 30.180 29.310 19.110 19.430 5.667 4.337 954.00 290.80 17.190 16.640 14.410 11.130 13.990 33.180 30.930 30.710 30.280 29.660 10.910 5.625 958.00 292.50 2.2020   31.240 30.130 30.190 30.080 29.030 2.999 3.305     318     0.9680 211.70 56.45   0.000 0.000 48.298 9.137 39.068 42.864 8.327 34.536
WS7MET_125 2018-07-17 12:45:00 125 30483.0 33.040 30.740 30.590 30.020 29.040 26.070 21.530 10.950 5.649 953.00 290.60 17.190 16.640 14.410 11.140 14.000 33.180 30.900 30.680 30.180 29.270 13.190 8.900 957.00 291.20 1.1170   32.910 30.620 30.500 29.870 28.900 6.273 3.505     318     0.6960 111.70 36.64   0.000 0.000 50.407 13.083 37.266 42.473 9.126 33.329
WS7MET_125 2018-07-17 12:40:00 125 30483.0 32.980 30.500 30.460 30.040 29.190 26.240 22.610 11.040 6.387 959.00 292.30 17.170 16.640 14.410 11.130 14.010 33.120 30.880 30.840 30.110 29.340 12.940 8.900 962.00 293.90 1.3590   32.840 30.200 30.220 29.940 28.970 8.570 5.425     318     0.8490 98.50 34.85   0.000 0.000 50.237 13.161 37.055 42.522 9.604 32.908
WS7MET_125 2018-07-17 12:35:00 125 30483.0 33.120 30.780 30.710 30.000 29.270 26.910 23.230 11.470 6.757 958.00 292.10 17.170 16.640 14.410 11.140 14.000 33.350 30.990 31.010 30.080 29.420 14.930 8.800 962.00 292.50 1.4050   32.940 30.650 30.560 29.840 29.040 5.978 5.643     318     0.7660 114.50 50.36   0.000 0.000 50.633 13.542 37.008 42.424 9.852 32.569
WS7MET_125 2018-07-17 12:30:00 125 30483.0 33.270 30.880 30.850 29.940 29.000 25.840 24.660 10.970 7.566 955.00 290.80 17.170 16.640 14.410 11.140 14.000 33.660 31.120 30.980 30.150 29.330 13.590 10.130 961.00 292.50 1.2670   32.910 30.730 30.710 29.810 28.650 6.632 6.301     318     0.6660 160.50 71.13   0.000 0.000 51.060 13.100 37.866 42.279 10.414 31.853
WS7MET_125 2018-07-17 12:25:00 125 30483.0 33.660 31.050 30.900 29.850 28.960 26.160 24.690 11.550 7.508 955.00 290.50 17.170 16.640 14.410 11.130 14.000 33.760 31.180 30.990 29.940 29.180 13.740 9.980 959.00 291.20 1.0260   33.490 30.900 30.760 29.740 28.730 8.540 6.215     318     0.6190 141.90 41.64   0.000 0.000 52.186 13.614 38.534 42.061 10.373 31.676
WS7MET_125 2018-07-17 12:20:00 125 30483.0 33.300 31.010 30.680 29.790 29.020 27.230 24.750 11.890 7.515 952.00 289.40 17.160 16.640 14.410 11.140 13.980 33.490 31.140 30.810 29.940 29.180 13.930 9.160 955.00 289.80 1.2350   33.010 30.870 30.450 29.670 28.680 10.040 6.788     318     0.6720 143.40 41.50   0.000 0.000 51.146 13.923 37.219 41.916 10.378 31.542
WS7MET_125 2018-07-17 12:15:00 125 30483.0 32.570 30.660 30.370 29.600 28.790 28.240 24.690 11.780 7.318 950.00 288.50 17.150 16.640 14.410 11.140 14.000 33.050 30.900 30.470 29.740 28.970 14.240 9.080 954.00 289.80 1.4440   32.060 30.420 30.270 29.460 28.560 8.170 6.559     318     0.6450 133.90 36.83   0.000 0.000 49.093 13.822 35.229 41.461 10.239 31.224
WS7MET_125 2018-07-17 12:10:00 125 30483.0 32.050 30.190 29.960 29.520 28.820 28.370 24.900 11.400 7.369 950.00 288.20 17.150 16.640 14.410 11.130 14.030 32.260 30.500 30.220 29.630 29.180 14.000 9.180 951.00 288.50 1.7120   31.920 29.980 29.790 29.430 28.470 7.738 6.481     318     0.6550 119.00 52.54   0.000 0.000 47.675 13.479 34.150 41.270 10.275 30.994
WS7MET_125 2018-07-17 12:05:00 125 30483.0 31.800 29.970 29.910 29.520 28.640 28.690 24.750 11.410 7.277 946.00 287.20 17.150 16.640 14.410 11.140 14.040 31.950 30.130 30.100 29.630 28.970 13.130 9.800 949.00 287.20 1.6270   31.580 29.860 29.750 29.360 28.410 10.070 6.574     318     0.9930 95.80 31.06   0.000 0.000 47.006 13.488 33.520 41.270 10.210 31.056
WS7MET_125 2018-07-17 12:00:00 125 30483.0 31.400 29.740 29.880 29.360 28.320 27.500 22.800 10.260 5.962 946.00 287.20 17.150 16.640 14.410 11.140 14.040 31.610 30.130 30.250 29.430 28.590 14.440 7.186 949.00 287.20 1.3330   31.200 29.420 29.490 29.230 28.100 5.142 5.078     318     0.7240 148.40 52.39   0.000 0.000 45.952 12.494 33.315 40.892 9.326 31.569
WS7MET_125 2018-07-17 11:55:00 125 30483.0 31.470 29.760 29.850 29.390 28.200 27.370 22.010 10.400 5.460 947.00 287.10 17.150 16.650 14.410 11.140 14.040 31.650 30.100 30.110 29.500 28.420 12.140 8.000 951.00 287.20 1.6660   31.170 29.480 29.520 29.290 27.950 7.206 4.067     318     0.9470 114.00 38.77   0.000 0.000 46.135 12.612 33.508 40.963 9.007 31.947
WS7MET_125 2018-07-17 11:50:00 125 30483.0 31.000 29.750 29.610 29.260 28.210 25.680 20.480 9.000 4.288 943.00 286.00 17.150 16.650 14.410 11.140 14.040 31.170 30.040 29.950 29.400 28.430 11.180 7.238 949.00 287.20 1.2810   30.830 29.510 29.340 29.120 28.010 3.751 2.475     318     0.5790 129.90 45.80   0.000 0.000 44.919 11.480 33.384 40.657 8.299 32.330
WS7MET_125 2018-07-17 11:45:00 125 30483.0 30.620 29.550 29.500 29.220 28.320 23.290 15.750 7.134 0.594 944.00 286.30 17.150 16.650 14.410 11.130 14.040 30.930 29.790 29.700 29.360 28.530 10.350 2.069 947.00 287.20 1.3000   30.250 29.300 29.280 29.120 28.070 1.698 -1.032     318     0.7250 102.70 35.42   0.000 0.000 43.957 10.111 33.719 40.563 6.377 34.174
WS7MET_125 2018-07-17 11:40:00 125 30483.0 30.350 29.390 29.490 29.230 28.060 20.520 15.820 4.954 0.626 938.00 284.90 17.140 16.650 14.410 11.140 14.040 30.620 29.610 29.810 29.290 28.440 9.730 4.320 943.00 287.20 1.5880   30.040 29.150 29.210 29.160 27.840 0.497 -1.045     318     0.8900 158.90 48.17   0.000 0.000 43.284 8.695 34.402 40.586 6.392 34.166
WS7MET_125 2018-07-17 11:35:00 125 30483.0 30.050 29.290 29.360 29.260 28.270 22.080 14.640 5.782 -0.408 933.00 283.90 17.140 16.650 14.410 11.130 14.040 30.390 29.540 29.550 29.400 28.440 9.710 3.053 935.00 285.80 1.5680   29.810 29.140 29.190 29.120 28.120 -1.506 -2.514     318     0.8750 121.30 50.74   0.000 0.000 42.546 9.210 33.152 40.657 5.929 34.705
WS7MET_125 2018-07-17 11:30:00 125 30483.0 30.680 29.460 29.550 29.290 28.380 16.810 12.720 2.213 -2.341 935.00 285.30 17.140 16.660 14.410 11.140 14.050 30.900 29.830 29.890 29.430 28.850 9.420 0.884 938.00 285.80 1.9340   30.080 29.170 29.270 29.090 27.900 -3.601 -5.094     318     1.0850 213.30 53.87   0.000 0.000 44.107 7.164 36.693 40.727 5.142 35.547
WS7MET_125 2018-07-17 11:25:00 125 30483.0 30.940 29.140 29.230 29.160 28.090 20.120 12.420 5.337 -2.688 933.00 285.20 17.140 16.660 14.410 11.130 14.060 31.030 29.270 29.410 29.290 28.240 8.990 -1.498 937.00 285.80 1.5350   30.760 29.000 29.060 29.050 27.810 1.101 -4.647     318     1.0270 98.80 49.59   0.000 0.000 44.766 8.930 35.759 40.423 5.011 35.402
WS7MET_125 2018-07-17 11:20:00 125 30483.0 30.950 29.380 29.520 29.160 27.960 19.320 12.910 4.705 -2.319 932.00 284.30 17.140 16.660 14.410 11.130 14.060 31.070 29.600 29.720 29.260 28.300 8.330 1.876 935.00 285.80 1.7180   30.760 29.180 29.360 29.090 27.640 -2.180 -7.760     318     0.7860 106.60 32.20   0.000 0.000 44.792 8.545 36.138 40.423 5.151 35.204
WS7MET_125 2018-07-17 11:15:00 125 30483.0 30.600 29.220 29.400 28.990 27.780 20.250 13.820 4.950 -1.612 925.00 282.30 17.140 16.660 14.410 11.130 14.060 30.790 29.390 29.590 29.160 28.040 10.510 5.883 931.00 283.10 1.2940   30.420 29.010 29.200 28.750 27.500 -0.607 -6.192     318     0.5560 111.70 55.66   0.000 0.000 43.906 8.692 35.015 40.028 5.427 34.496
WS7MET_125 2018-07-17 11:10:00 125 30483.0 31.010 29.420 29.630 28.990 27.850 18.590 13.420 4.002 -1.934 920.00 281.10 17.140 16.670 14.410 11.130 14.050 31.140 29.650 29.870 29.160 28.100 8.740 2.751 923.00 281.80 1.8750   30.660 29.060 29.270 28.780 27.530 -5.346 -7.224     318     0.8500 205.40 40.84   0.000 0.000 44.945 8.133 36.590 40.028 5.300 34.656
WS7MET_125 2018-07-17 11:05:00 125 30483.0 30.670 29.170 29.280 28.620 27.420 24.260 14.090 7.305 -1.611 915.00 278.80 17.140 16.670 14.420 11.130 14.030 31.070 29.390 29.510 28.880 27.810 12.900 3.613 919.00 280.50 1.1960   30.210 29.020 29.100 28.370 26.800 -0.313 -5.536     318     0.6310 102.60 31.76   0.000 0.000 44.082 10.230 33.388 39.180 5.428 33.660
WS7MET_125 2018-07-17 11:00:00 125 30483.0 29.840 29.020 29.140 28.610 26.700 30.470 26.130 10.540 7.265 911.00 277.00 17.140 16.680 14.420 11.130 13.990 30.150 29.250 29.320 28.820 27.220 15.410 10.020 915.00 279.10 1.0190   29.670 28.860 28.970 28.410 26.410 7.815 4.126     318     0.4300 124.40 22.96   0.000 0.000 42.037 12.730 29.228 39.157 10.202 28.925
WS7MET_125 2018-07-17 10:55:00 125 30483.0 29.910 28.920 29.140 28.430 27.110 25.600 24.180 7.965 6.011 904.00 275.20 17.150 16.680 14.420 11.130 13.930 30.210 29.160 29.410 28.610 27.500 13.250 9.270 907.00 276.40 1.4050   29.600 28.720 28.890 28.340 26.700 5.031 4.016     318     0.4570 178.00 84.50   0.000 0.000 42.206 10.701 31.401 38.751 9.358 29.381
WS7MET_125 2018-07-17 10:50:00 125 30483.0 30.120 28.960 29.110 28.410 26.980 28.560 25.150 9.740 6.553 890.00 269.70 17.150 16.680 14.420 11.130 13.900 30.350 29.130 29.310 28.510 27.220 14.090 8.580 899.00 273.80 1.0260   29.870 28.850 28.920 28.340 26.690 5.077 4.645     318     0.4410 165.60 48.95   0.000 0.000 42.717 12.066 30.517 38.706 9.715 28.971
WS7MET_125 2018-07-17 10:45:00 125 30483.0 30.080 28.690 28.690 28.080 26.970 27.970 26.030 9.390 6.733 882.00 267.00 17.150 16.680 14.420 11.130 13.890 30.180 28.970 29.040 28.440 27.420 13.130 9.100 886.00 268.40 1.4370   29.980 28.430 28.340 27.690 26.580 4.380 3.330     318     0.5040 132.10 61.00   0.000 0.000 42.620 11.786 30.699 37.970 9.836 28.087
WS7MET_125 2018-07-17 10:40:00 125 30483.0 29.840 28.310 28.360 27.800 26.660 34.140 29.090 12.230 8.180 873.00 263.70 17.150 16.680 14.430 11.130 13.900 30.010 28.620 28.570 27.960 27.100 15.280 10.600 878.00 265.70 1.4310   29.670 28.040 28.180 27.660 26.420 7.603 6.850     318     0.6510 133.60 31.18   0.000 0.000 42.037 14.239 27.685 37.356 10.859 26.489
WS7MET_125 2018-07-17 10:35:00 125 30483.0 30.000 28.440 28.630 27.840 26.520 30.380 26.880 10.570 7.062 873.00 263.40 17.150 16.680 14.420 11.130 13.900 30.150 28.660 28.900 27.930 26.730 14.680 8.090 878.00 264.40 1.2810   29.840 28.020 28.170 27.720 26.390 6.973 5.934     318     0.7110 105.00 22.76   0.000 0.000 42.424 12.756 29.536 37.443 10.061 27.379
WS7MET_125 2018-07-17 10:30:00 125 30483.0 30.060 28.390 28.550 27.800 26.500 29.260 29.330 10.090 8.270 860.00 258.60 17.150 16.680 14.420 11.130 13.940 30.250 28.490 28.720 28.030 26.750 14.430 11.220 867.00 261.70 1.5550   29.770 28.190 28.220 27.450 26.250 6.745 6.316     318     0.6190 197.00 61.01   0.000 0.000 42.571 12.353 30.115 37.356 10.926 26.400
WS7MET_125 2018-07-17 10:25:00 125 30483.0 29.900 28.030 28.030 27.260 25.850 35.160 33.200 12.820 9.650 855.00 256.60 17.160 16.680 14.420 11.130 14.060 30.040 28.240 28.270 27.490 26.380 15.480 12.810 859.00 257.70 0.8690   29.810 27.860 27.820 27.080 25.520 10.060 8.200     318     0.4760 151.80 42.30   0.000 0.000 42.182 14.801 27.351 36.196 11.994 24.179
WS7MET_125 2018-07-17 10:20:00 125 30483.0 29.540 28.180 28.210 27.340 25.840 35.400 31.260 12.590 8.860 842.00 251.10 17.160 16.680 14.420 11.130 14.230 29.810 28.280 28.300 27.450 26.050 14.480 10.400 847.00 252.30 1.0320   29.090 28.110 28.110 27.210 25.670 10.350 7.948     318     0.5790 134.20 19.81   0.000 0.000 41.318 14.579 26.691 36.366 11.372 24.998
WS7MET_125 2018-07-17 10:15:00 125 30483.0 28.630 27.870 27.970 27.450 26.060 35.170 31.910 11.680 9.240 829.00 245.70 17.170 16.680 14.420 11.130 14.260 29.090 28.110 28.190 27.590 26.270 15.100 12.180 833.00 248.30 0.7640   28.340 27.610 27.710 27.350 25.880 9.540 7.842     318     0.2750 155.50 37.02   0.000 0.000 39.203 13.731 25.415 36.601 11.667 24.921
WS7MET_125 2018-07-17 10:10:00 125 30483.0 28.150 27.370 27.530 27.220 25.610 34.250 31.040 10.910 8.660 817.00 240.50 17.170 16.680 14.420 11.130 14.300 28.410 27.560 27.660 27.380 25.920 13.010 10.200 825.00 242.90 1.0390   27.830 27.110 27.310 27.040 25.330 9.300 8.080     318     0.5700 97.00 32.16   0.000 0.000 38.125 13.048 25.067 36.111 11.219 24.902
WS7MET_125 2018-07-17 10:05:00 125 30483.0 27.500 26.890 27.140 26.860 25.410 37.090 32.490 11.500 9.010 808.00 235.80 17.170 16.680 14.420 11.130 14.340 27.790 27.140 27.390 27.040 26.060 13.860 12.030 815.00 238.90 1.3790   27.250 26.550 26.800 26.700 24.670 8.790 7.754     318     0.5710 120.80 87.40   0.000 0.000 36.708 13.569 23.093 35.357 11.488 23.869
WS7MET_125 2018-07-17 10:00:00 125 30483.0 27.040 26.520 26.760 26.670 24.790 40.920 35.780 12.610 10.280 798.40 231.60 17.170 16.690 14.420 11.130 14.300 27.250 26.690 27.000 26.910 25.020 14.720 12.020 807.00 234.90 0.9280   26.870 26.280 26.470 26.330 24.430 10.540 9.060     318     0.3220 102.80 27.26   0.000 0.000 35.732 14.599 21.111 34.964 12.511 22.454
WS7MET_125 2018-07-17 09:55:00 125 30483.0 26.720 26.020 26.170 26.160 24.430 38.480 36.180 11.390 9.990 788.30 226.40 17.180 16.690 14.420 11.120 14.190 26.840 26.220 26.420 26.260 25.020 13.350 11.880 795.80 229.50 0.8690   26.630 25.900 26.030 26.050 23.920 8.550 8.340     318     0.2830 162.80 72.75   0.000 0.000 35.067 13.470 21.573 33.929 12.271 21.654
WS7MET_125 2018-07-17 09:50:00 125 30483.0 26.410 25.870 25.930 26.040 24.030 42.690 37.970 12.700 10.600 775.30 220.20 17.190 16.690 14.410 11.120 14.080 26.600 26.110 26.210 26.150 24.770 15.000 12.630 781.10 222.80 0.6470   26.330 25.670 25.710 25.920 23.590 10.760 8.760     318     0.2070 84.00 47.30   0.000 0.000 34.433 14.685 19.734 33.690 12.781 20.898
WS7MET_125 2018-07-17 09:45:00 125 30483.0 26.200 25.960 26.080 26.060 24.220 41.820 38.540 12.210 10.850 760.90 214.30 17.190 16.700 14.410 11.120 13.840 26.460 26.140 26.290 26.220 24.630 14.220 11.990 767.60 217.40 0.6990   25.880 25.600 25.790 25.780 23.630 10.270 8.910     318     0.1560 96.20 50.24   0.000 0.000 34.009 14.220 19.787 33.729 12.996 20.730
WS7MET_125 2018-07-17 09:40:00 125 30483.0 25.850 25.480 25.630 25.720 23.910 41.760 38.540 11.860 10.550 751.10 209.70 17.190 16.700 14.420 11.120 13.660 25.950 25.790 26.030 25.980 24.420 13.340 11.660 755.60 212.00 0.3790   25.750 25.380 25.440 25.540 23.470 8.690 8.540     318     0.1550 90.90 49.87   0.000 0.000 33.313 13.896 19.402 33.058 12.739 20.317
WS7MET_125 2018-07-17 09:35:00 125 30483.0 25.450 25.650 25.850 25.640 24.500 42.710 39.980 11.850 11.040 737.50 204.30 17.200 16.700 14.420 11.120 13.420 25.880 25.900 26.100 25.950 24.920 13.310 12.400 744.80 206.70 0.6600   25.130 25.280 25.540 25.370 24.060 9.690 9.910     318     0.2530 234.00 65.51   0.000 0.000 32.533 13.886 18.638 32.901 13.161 19.747
WS7MET_125 2018-07-17 09:30:00 125 30483.0 24.640 24.870 25.070 24.980 23.930 46.000 41.780 12.200 11.120 725.30 199.00 17.210 16.700 14.410 11.120 13.250 25.060 25.250 25.540 25.270 24.350 15.210 12.340 731.40 201.30 0.8300   24.310 24.460 24.590 24.790 23.090 10.120 10.420     318     0.4020 151.80 50.02   0.000 0.000 31.001 14.211 16.740 31.636 13.231 18.418
WS7MET_125 2018-07-17 09:25:00 125 30483.0 24.110 24.280 24.420 24.610 23.240 47.370 42.570 12.230 11.070 712.60 193.70 17.210 16.700 14.410 11.120 13.190 24.410 24.460 24.610 24.820 23.880 13.050 11.730 718.00 195.90 0.6140   23.730 24.060 24.170 24.380 22.890 10.800 10.400     318     0.2010 75.15 20.66   0.000 0.000 30.033 14.239 15.806 30.945 13.187 17.772
WS7MET_125 2018-07-17 09:20:00 125 30483.0 23.390 23.820 23.950 24.120 23.090 47.890 43.310 11.740 10.890 699.30 188.10 17.210 16.700 14.410 11.120 13.150 23.700 24.170 24.270 24.410 23.750 13.470 11.750 707.30 190.60 0.9730   23.150 23.600 23.700 23.940 22.500 10.930 10.340     318     0.2370 66.46 57.36   0.000 0.000 28.760 13.786 14.987 30.051 13.030 17.036
WS7MET_125 2018-07-17 09:15:00 125 30483.0 22.880 23.480 23.630 23.750 22.870 48.370 44.360 11.420 10.910 684.30 182.20 17.230 16.700 14.410 11.120 13.120 23.220 23.660 23.790 24.040 23.420 12.120 11.400 691.20 185.20 0.5950   22.640 23.170 23.340 23.430 22.510 10.180 10.260     318     0.1490 129.20 68.78   0.000 0.000 27.888 13.497 14.398 29.391 13.048 16.353
WS7MET_125 2018-07-17 09:10:00 125 30483.0 22.440 22.980 23.140 23.330 22.120 52.940 47.410 12.390 11.540 671.00 176.10 17.240 16.700 14.410 11.120 13.090 22.640 23.120 23.240 23.460 22.330 12.950 11.900 677.70 178.50 0.4180   22.300 22.940 23.070 23.220 21.920 11.560 10.480     318     0.0740 350.20 8.94   0.000 0.000 27.154 14.389 12.778 28.657 13.605 15.070
WS7MET_125 2018-07-17 09:05:00 125 30483.0 22.050 22.800 23.090 23.440 21.870 54.960 47.650 12.600 11.710 657.70 170.10 17.240 16.700 14.410 11.120 13.060 22.330 22.940 23.170 23.530 22.080 12.970 12.380 664.30 173.10 0.5030   21.790 22.690 23.020 23.320 21.660 12.160 11.230     318     0.1750 41.07 12.35   0.000 0.000 26.517 14.589 11.943 28.847 13.759 15.102
WS7MET_125 2018-07-17 09:00:00 125 30483.0 21.710 22.540 22.970 23.440 21.850 54.820 46.750 12.240 11.420 643.80 163.50 17.240 16.700 14.410 11.120 13.030 21.860 22.660 23.090 23.560 22.380 12.770 12.090 650.90 166.40 1.0130   21.580 22.460 22.900 23.320 21.620 11.190 10.170     318     0.2430 31.27 38.04   0.000 0.000 25.973 14.248 11.734 28.847 13.497 15.361
WS7MET_125 2018-07-17 08:55:00 125 30483.0 21.500 22.580 23.120 23.660 22.030 55.600 46.740 12.260 11.610 629.60 156.20 17.250 16.700 14.410 11.120 13.000 21.620 22.690 23.240 23.730 22.540 12.670 12.200 637.50 159.70 0.8430   21.340 22.500 23.000 23.530 21.780 10.710 10.480     318     0.2170 285.90 22.21   0.000 0.000 25.641 14.267 11.385 29.232 13.668 15.569
WS7MET_125 2018-07-17 08:50:00 125 30483.0 21.050 22.330 22.740 23.220 22.160 55.950 47.140 11.930 11.340 615.00 148.40 17.250 16.700 14.410 11.120 12.980 21.340 22.610 23.120 23.630 22.780 12.510 11.840 622.70 153.00 0.5490   20.870 21.970 22.360 22.950 21.770 10.800 10.750     318     0.0960 214.80 25.83   0.000 0.000 24.944 13.960 10.988 28.467 13.426 15.048
WS7MET_125 2018-07-17 08:45:00 125 30483.0 20.730 21.820 22.230 22.730 21.930 58.570 49.550 12.330 11.650 600.60 140.30 17.260 16.700 14.410 11.120 12.950 20.900 21.940 22.380 22.910 22.440 12.770 12.410 607.90 143.60 0.4570   20.390 21.480 21.880 22.400 21.330 10.900 10.960     318     0.0820 242.50 41.15   0.000 0.000 24.458 14.333 10.133 27.636 13.704 13.942
WS7MET_125 2018-07-17 08:40:00 125 30483.0 20.060 20.970 21.470 22.050 21.180 61.010 51.800 12.320 11.700 585.50 131.50 17.260 16.700 14.400 11.120 12.920 20.290 21.380 21.820 22.300 21.890 12.740 12.420 593.20 135.50 0.3920   19.880 20.820 21.350 21.690 20.850 11.160 10.870     318     0.0440 279.70 31.59   0.000 0.000 23.467 14.323 9.150 26.517 13.749 12.781
WS7MET_125 2018-07-17 08:35:00 125 30483.0 19.720 20.530 21.000 21.470 20.620 62.380 54.710 12.340 11.970 571.30 121.50 17.260 16.700 14.400 11.120 12.890 19.840 20.800 21.330 21.650 21.520 12.770 12.710 578.40 126.20 0.3330   19.600 20.420 20.820 21.380 20.340 11.010 10.460     318     0.0400 3.27 3.42   0.000 0.000 22.978 14.342 8.644 25.594 13.997 11.592
WS7MET_125 2018-07-17 08:30:00 125 30483.0 19.630 20.420 20.800 21.420 20.390 64.370 56.030 12.740 12.310 555.80 110.10 17.280 16.710 14.400 11.110 12.870 19.670 20.440 20.850 21.510 20.940 13.020 12.650 563.70 115.40 0.6080   19.540 20.420 20.770 21.280 20.110 12.440 11.860     318     0.2150 18.48 6.48   0.000 0.000 22.850 14.724 8.141 25.516 14.314 11.219
WS7MET_125 2018-07-17 08:25:00 125 30483.0 19.370 20.210 20.590 21.110 20.430 65.300 57.530 12.710 12.420 526.30 97.60 17.280 16.710 14.400 11.110 12.840 19.540 20.400 20.800 21.240 21.100 12.980 12.780 548.90 104.70 0.2810   19.190 20.150 20.510 20.830 20.080 11.920 11.530     318     0.0520 341.50 26.55   0.000 0.000 22.484 14.695 7.802 25.036 14.418 10.633
WS7MET_125 2018-07-17 08:20:00 125 30483.0 19.100 19.830 20.170 20.390 20.200 66.660 59.730 12.760 12.310 473.90 83.60 17.280 16.710 14.400 11.110 12.810 19.230 20.120 20.480 20.830 21.110 13.040 12.810 527.40 89.90 0.6790   18.990 19.700 20.020 20.180 19.820 12.120 11.490     318     0.1980 54.27 30.07   0.000 0.000 22.109 14.743 7.371 23.951 14.314 9.645
WS7MET_125 2018-07-17 08:15:00 125 30483.0 18.900 19.620 19.920 20.070 19.810 67.420 61.800 12.750 12.530 511.30 69.32 17.280 16.710 14.400 11.110 12.790 19.060 19.680 20.020 20.180 19.970 13.030 12.760 519.40 76.50 0.3790   18.750 19.530 19.800 19.950 19.660 12.470 11.850     318     0.1560 1.73 37.24   0.000 0.000 21.835 14.733 7.114 23.482 14.522 8.970
WS7MET_125 2018-07-17 08:10:00 125 30483.0 18.680 19.380 19.660 19.690 19.670 66.870 62.200 12.410 12.270 481.80 55.83 17.290 16.710 14.400 11.110 12.780 18.820 19.520 19.800 19.980 19.850 12.670 12.610 496.60 61.73 0.3850   18.510 19.170 19.440 19.470 19.380 12.090 11.900     318     0.1260 353.90 56.51   0.000 0.000 21.537 14.408 7.135 22.935 14.276 8.670
WS7MET_125 2018-07-17 08:05:00 125 30483.0 18.440 19.080 19.310 19.370 19.280 67.710 63.400 12.380 12.260 420.30 44.29 17.300 16.710 14.400 11.110 12.760 18.510 19.160 19.430 19.470 19.380 12.620 12.430 468.40 49.66 0.6600   18.380 18.990 19.220 19.260 19.140 12.240 12.110     318     0.2740 9.50 12.36   0.000 0.000 21.216 14.380 6.851 22.484 14.267 8.229
WS7MET_125 2018-07-17 08:00:00 125 30483.0 18.290 18.910 19.130 19.230 19.070 67.640 64.120 12.220 12.310 324.20 35.16 17.300 16.710 14.400 11.110 12.750 18.410 19.000 19.210 19.330 19.150 12.360 12.430 391.90 38.92 0.5950   18.170 18.820 19.050 19.160 18.950 12.070 12.130     318     0.2980 18.79 13.74   0.000 0.000 21.017 14.229 6.801 22.289 14.314 7.997
WS7MET_125 2018-07-17 07:55:00 125 30483.0 18.120 18.740 19.020 19.200 18.870 67.200 63.800 11.960 12.200 145.70 28.38 17.310 16.720 14.400 11.110 12.730 18.240 18.800 19.050 19.300 18.930 12.180 12.390 259.00 30.87 0.6140   18.030 18.700 19.000 19.090 18.780 11.690 11.820     318     0.3520 31.00 24.47   0.000 0.000 20.794 13.988 6.820 22.247 14.211 8.053
WS7MET_125 2018-07-17 07:50:00 125 30483.0 17.980 18.580 18.860 18.860 18.950 66.660 63.540 11.700 11.810 73.95 23.82 17.320 16.720 14.390 11.110 12.720 18.100 18.700 19.030 19.130 19.080 11.860 11.950 95.30 25.50 0.6270   17.830 18.420 18.580 18.610 18.590 11.520 11.660     318     0.1880 275.80 30.29   0.000 0.000 20.612 13.749 6.872 21.780 13.850 7.941
WS7MET_125 2018-07-17 07:45:00 125 30483.0 17.820 18.340 18.500 18.500 18.460 66.840 65.720 11.590 11.980 41.13 20.60 17.330 16.720 14.390 11.110 12.710 17.900 18.410 18.570 18.680 18.570 11.770 12.120 46.97 21.47 0.2740   17.730 18.260 18.450 18.410 18.390 11.380 11.860     318     0.0360 2.16 0.83   0.000 0.000 20.405 13.650 6.766 21.296 14.006 7.300
WS7MET_125 2018-07-17 07:40:00 125 30483.0 17.680 18.190 18.360 18.350 18.340 66.580 66.020 11.400 11.910 35.90 18.25 17.330 16.720 14.390 11.110 12.700 17.800 18.260 18.430 18.440 18.430 11.550 12.080 36.24 18.79 0.3140   17.560 18.120 18.310 18.240 18.250 11.140 11.730     318     0.0510 346.30 16.46   0.000 0.000 20.226 13.479 6.760 21.096 13.941 7.169
WS7MET_125 2018-07-17 07:35:00 125 30483.0 17.530 18.090 18.250 18.260 18.240 65.240 63.840 10.950 11.310 34.49 16.57 17.330 16.730 14.390 11.110 12.680 17.630 18.120 18.310 18.340 18.260 11.170 11.650 34.89 17.45 0.4970   17.420 18.040 18.180 18.170 18.190 10.650 10.750     318     0.2900 10.17 14.71   0.000 0.000 20.036 13.083 6.964 20.978 13.399 7.585
WS7MET_125 2018-07-17 07:30:00 125 30483.0 17.400 17.920 18.080 18.070 18.070 65.110 62.770 10.800 10.880 33.15 15.30 17.340 16.730 14.390 11.110 12.670 17.450 18.020 18.160 18.170 18.180 10.930 11.450 33.55 16.10 0.4900   17.350 17.870 18.010 17.970 17.900 10.650 10.650     318     0.2140 37.06 27.39   0.000 0.000 19.872 12.953 6.933 20.729 13.022 7.717
WS7MET_125 2018-07-17 07:25:00 125 30483.0 17.320 17.830 18.000 17.950 17.930 65.480 62.930 10.810 10.800 31.94 14.02 17.340 16.720 14.390 11.110 12.660 17.390 17.850 18.020 18.030 17.980 11.010 10.930 32.21 14.76 0.5230   17.220 17.800 17.990 17.900 17.910 10.590 10.680     318     0.2980 4.33 16.14   0.000 0.000 19.772 12.961 6.825 20.573 12.953 7.626
WS7MET_125 2018-07-17 07:20:00 125 30483.0 17.230 17.740 17.930 17.850 17.940 65.680 63.180 10.770 10.770 30.87 13.29 17.350 16.720 14.390 11.110 12.650 17.320 17.790 17.990 17.930 18.000 10.890 10.900 30.87 13.42 0.6660   17.150 17.690 17.870 17.800 17.820 10.670 10.650     318     0.4600 354.60 13.46   0.000 0.000 19.660 12.927 6.747 20.444 12.927 7.527
WS7MET_125 2018-07-17 07:15:00 125 30483.0 17.100 17.610 17.820 17.740 17.820 66.600 64.060 10.850 10.870 29.66 11.47 17.360 16.720 14.380 11.110 12.640 17.220 17.690 17.850 17.800 17.840 11.260 11.050 30.87 12.08 0.6400   17.010 17.560 17.780 17.660 17.800 10.620 10.660     318     0.4640 351.10 4.47   0.000 0.000 19.498 12.996 6.512 20.303 13.013 7.297
WS7MET_125 2018-07-17 07:10:00 125 30483.0 17.070 17.510 17.700 17.610 17.740 68.830 66.650 11.310 11.350 28.59 9.46 17.370 16.730 14.380 11.110 12.640 17.150 17.560 17.760 17.690 17.810 11.470 11.570 29.52 10.74 0.5950   17.010 17.460 17.630 17.560 17.670 11.200 11.010     318     0.4840 352.60 5.13   0.000 0.000 19.461 13.399 6.066 20.137 13.435 6.716
WS7MET_125 2018-07-17 07:05:00 125 30483.0 17.000 17.440 17.580 17.490 17.610 68.600 67.150 11.200 11.350 27.31 8.05 17.370 16.730 14.380 11.110 12.630 17.110 17.460 17.630 17.590 17.660 11.440 11.510 28.18 8.05 0.6530   16.940 17.420 17.530 17.390 17.580 10.940 11.090     318     0.5410 348.10 6.64   0.000 0.000 19.375 13.302 6.084 19.985 13.435 6.565
WS7MET_125 2018-07-17 07:00:00 125 30483.0 16.890 17.320 17.460 17.370 17.500 67.160 66.100 10.770 10.990 25.97 6.98 17.370 16.730 14.380 11.110 12.620 17.050 17.390 17.530 17.450 17.580 11.030 11.220 26.84 8.05 0.6340   16.770 17.250 17.420 17.280 17.420 10.630 10.850     318     0.5140 347.00 3.56   0.000 0.000 19.241 12.927 6.319 19.834 13.117 6.724
WS7MET_125 2018-07-17 06:55:00 125 30483.0 16.770 17.190 17.390 17.310 17.400 67.000 65.680 10.620 10.840 24.56 5.91 17.380 16.730 14.380 11.110 12.610 16.910 17.250 17.420 17.390 17.440 10.810 11.010 25.50 6.71 0.5490   16.670 17.130 17.360 17.220 17.370 10.500 10.690     318     0.4960 354.00 3.93   0.000 0.000 19.095 12.798 6.301 19.759 12.987 6.781
WS7MET_125 2018-07-17 06:50:00 125 30483.0 16.670 17.080 17.310 17.200 17.360 67.730 65.830 10.690 10.770 22.88 5.03 17.390 16.730 14.380 11.110 12.610 16.740 17.110 17.360 17.320 17.390 10.800 10.920 24.16 5.37 0.7190   16.570 17.010 17.260 17.110 17.330 10.580 10.610     318     0.5760 356.90 5.49   0.000 0.000 18.974 12.858 6.123 19.622 12.927 6.705
WS7MET_125 2018-07-17 06:45:00 125 30483.0 16.560 16.950 17.200 17.110 17.250 66.800 65.080 10.380 10.510 20.94 4.03 17.390 16.730 14.380 11.110 12.600 16.670 17.000 17.260 17.220 17.320 10.600 10.690 21.47 4.03 0.7060   16.470 16.900 17.140 17.010 17.190 10.140 10.300     318     0.5810 353.30 4.71   0.000 0.000 18.842 12.595 6.255 19.511 12.705 6.813
WS7MET_125 2018-07-17 06:40:00 125 30483.0 16.520 16.880 17.080 16.990 17.120 65.370 63.940 10.020 10.140 18.65 4.03 17.400 16.730 14.370 11.110 12.590 16.570 16.890 17.130 17.080 17.190 10.170 10.360 20.13 4.03 0.6140   16.470 16.870 17.050 16.870 17.060 9.870 9.940     318     0.5670 347.60 4.07   0.000 0.000 18.794 12.295 6.508 19.363 12.394 6.982
WS7MET_125 2018-07-17 06:35:00 125 30483.0 16.540 16.890 17.060 16.990 17.050 64.550 63.810 9.850 10.100 16.64 3.22 17.410 16.730 14.370 11.110 12.590 16.600 16.900 17.080 17.080 17.130 9.930 10.330 17.45 4.03 0.5750   16.470 16.880 17.040 16.870 16.970 9.720 9.940     318     0.5270 347.60 1.29   0.000 0.000 18.818 12.156 6.671 19.363 12.361 7.008
WS7MET_125 2018-07-17 06:30:00 125 30483.0 16.490 16.860 17.060 17.020 17.090 64.640 63.330 9.820 10.020 14.96 2.68 17.420 16.730 14.370 11.110 12.580 16.570 16.890 17.080 17.080 17.100 9.950 10.110 16.10 2.68 0.6010   16.430 16.830 17.050 16.980 17.060 9.750 9.940     318     0.5260 344.10 0.70   0.000 0.000 18.758 12.131 6.633 19.400 12.295 7.114
WS7MET_125 2018-07-17 06:25:00 125 30483.0 16.490 16.820 17.040 17.040 17.070 65.210 62.800 9.960 9.920 13.42 1.88 17.420 16.730 14.370 11.110 12.580 16.570 16.830 17.050 17.110 17.090 10.080 10.010 13.42 2.68 0.6140   16.430 16.800 17.030 16.980 17.040 9.850 9.820     318     0.5130 344.00 1.03   0.000 0.000 18.758 12.246 6.526 19.425 12.213 7.226
WS7MET_125 2018-07-17 06:20:00 125 30483.0 16.510 16.820 17.020 17.010 17.070 64.820 62.770 9.880 9.880 12.28 1.34 17.430 16.730 14.370 11.100 12.580 16.570 16.840 17.050 17.080 17.100 10.030 10.060 13.42 1.34 0.6210   16.430 16.800 16.990 16.940 17.040 9.750 9.760     318     0.4720 345.80 0.96   0.000 0.000 18.782 12.180 6.607 19.388 12.180 7.218
WS7MET_125 2018-07-17 06:15:00 125 30483.0 16.540 16.810 16.970 16.950 16.990 64.890 62.980 9.930 9.870 12.08 1.34 17.430 16.730 14.370 11.100 12.570 16.600 16.830 16.990 17.010 17.010 10.040 9.940 12.08 1.34 0.6010   16.470 16.800 16.930 16.870 16.950 9.800 9.810     318     0.5100 347.60 1.12   0.000 0.000 18.818 12.221 6.607 19.314 12.172 7.150
WS7MET_125 2018-07-17 06:10:00 125 30483.0 16.540 16.800 16.930 16.960 16.930 65.000 63.470 9.950 9.990 11.27 1.34 17.440 16.730 14.370 11.110 12.580 16.600 16.810 16.940 17.050 16.950 10.020 10.120 12.08 1.34 0.6340   16.430 16.780 16.910 16.910 16.880 9.870 9.870     318     0.5590 347.20 2.59   0.000 0.000 18.818 12.238 6.586 19.326 12.271 7.060
WS7MET_125 2018-07-17 06:05:00 125 30483.0 16.560 16.830 16.950 16.940 16.950 64.670 63.430 9.890 9.970 10.74 1.34 17.440 16.730 14.360 11.110 12.580 16.670 16.840 16.960 17.050 16.980 9.970 10.060 10.74 1.34 0.4900   16.500 16.810 16.950 16.840 16.910 9.780 9.860     318     0.4480 340.90 0.99   0.000 0.000 18.842 12.189 6.657 19.302 12.254 7.059
WS7MET_125 2018-07-17 06:00:00 125 30483.0 16.580 16.810 16.930 16.910 16.940 64.930 63.860 9.970 10.040 10.74 1.34 17.450 16.730 14.360 11.110 12.570 16.670 16.840 16.950 16.980 16.970 10.070 10.140 10.74 1.34 0.5360   16.500 16.800 16.930 16.840 16.930 9.870 9.960     318     0.4520 340.50 0.51   0.000 0.000 18.866 12.254 6.616 19.265 12.312 6.962
WS7MET_125 2018-07-17 05:55:00 125 30483.0 16.580 16.810 16.940 16.910 16.930 64.880 64.010 9.970 10.070 9.39 1.34 17.460 16.730 14.360 11.110 12.570 16.640 16.830 16.950 16.980 16.950 10.040 10.150 9.39 1.34 0.4770   16.500 16.800 16.940 16.810 16.930 9.830 9.950     318     0.4570 338.30 2.33   0.000 0.000 18.866 12.254 6.626 19.265 12.336 6.934
WS7MET_125 2018-07-17 05:50:00 125 30483.0 16.580 16.820 16.950 16.930 16.940 63.960 63.350 9.750 9.940 9.39 1.34 17.460 16.730 14.360 11.100 12.580 16.640 16.830 16.960 16.980 16.960 9.950 10.070 9.39 1.34 0.4570   16.530 16.800 16.950 16.870 16.930 9.610 9.840     318     0.4330 340.30 1.42   0.000 0.000 18.866 12.075 6.799 19.290 12.229 7.070
WS7MET_125 2018-07-17 05:45:00 125 30483.0 16.610 16.880 17.020 17.040 17.000 63.420 62.420 9.650 9.830 8.45 1.34 17.470 16.730 14.360 11.110 12.580 16.670 16.910 17.070 17.150 17.080 9.820 9.900 9.39 1.34 0.4900   16.530 16.840 16.980 16.910 16.930 9.520 9.700     318     0.3990 341.10 3.25   0.000 0.000 18.902 11.994 6.914 19.425 12.140 7.300
WS7MET_125 2018-07-17 05:40:00 125 30483.0 16.650 16.940 17.080 17.110 17.120 63.350 62.080 9.670 9.810 8.05 1.34 17.470 16.730 14.360 11.100 12.580 16.740 16.950 17.090 17.180 17.150 9.820 9.980 8.05 1.34 0.4380   16.570 16.910 17.060 17.050 17.060 9.570 9.670     318     0.3740 348.10 3.12   0.000 0.000 18.950 12.010 6.945 19.511 12.123 7.399
WS7MET_125 2018-07-17 05:35:00 125 30483.0 16.700 16.940 17.080 17.070 17.100 62.820 61.750 9.590 9.690 7.38 1.14 17.480 16.730 14.360 11.100 12.580 16.810 16.970 17.090 17.150 17.150 9.780 9.780 8.05 1.34 0.5420   16.600 16.930 17.080 16.980 17.010 9.450 9.560     318     0.4170 350.90 1.97   0.000 0.000 19.010 11.945 7.068 19.461 12.026 7.444
WS7MET_125 2018-07-17 05:30:00 125 30483.0 16.750 17.030 17.150 17.140 17.120 62.150 61.340 9.480 9.650 6.71 0.07 17.480 16.730 14.350 11.100 12.580 16.810 17.060 17.190 17.180 17.210 9.610 9.730 6.71 1.34 0.5420   16.700 16.980 17.090 17.050 17.010 9.360 9.570     318     0.3990 335.10 8.52   0.000 0.000 19.071 11.857 7.218 19.548 11.994 7.557
WS7MET_125 2018-07-17 05:25:00 125 30483.0 16.750 17.070 17.200 17.180 17.210 62.480 61.230 9.560 9.670 6.17 0.00 17.500 16.730 14.350 11.100 12.580 16.870 17.080 17.210 17.250 17.240 9.670 9.760 6.71 0.00 0.3720   16.670 17.060 17.180 17.150 17.170 9.460 9.560     318     0.3390 332.90 1.29   0.000 0.000 19.071 11.921 7.155 19.597 12.010 7.598
WS7MET_125 2018-07-17 05:20:00 125 30483.0 16.800 17.080 17.220 17.200 17.220 61.660 60.730 9.420 9.560 5.37 0.00 17.500 16.730 14.350 11.100 12.580 16.870 17.080 17.230 17.320 17.240 9.650 9.750 5.37 0.00 0.4700   16.770 17.070 17.210 17.080 17.210 9.270 9.420     318     0.4150 330.20 0.86   0.000 0.000 19.131 11.810 7.335 19.622 11.921 7.706
WS7MET_125 2018-07-17 05:15:00 125 30483.0 16.770 17.070 17.220 17.230 17.240 61.450 60.310 9.340 9.490 4.76 0.00 17.510 16.730 14.350 11.100 12.580 16.870 17.080 17.230 17.320 17.260 9.560 9.590 5.37 0.00 0.6530   16.700 17.060 17.210 17.150 17.210 9.200 9.430     318     0.5000 342.50 1.52   0.000 0.000 19.095 11.746 7.361 19.660 11.865 7.803
WS7MET_125 2018-07-17 05:10:00 125 30483.0 16.770 17.060 17.220 17.210 17.260 61.690 60.300 9.390 9.470 4.03 0.00 17.510 16.730 14.350 11.100 12.580 16.840 17.080 17.240 17.280 17.280 9.500 9.630 4.03 0.00 0.6270   16.700 17.050 17.210 17.150 17.210 9.250 9.370     318     0.4590 333.50 5.96   0.000 0.000 19.095 11.786 7.315 19.635 11.849 7.795
WS7MET_125 2018-07-17 05:05:00 125 30483.0 16.770 17.060 17.220 17.220 17.240 61.080 60.160 9.240 9.440 4.03 0.00 17.520 16.730 14.350 11.100 12.580 16.910 17.080 17.240 17.250 17.280 9.390 9.640 4.03 0.00 0.6340   16.700 17.050 17.210 17.150 17.210 9.150 9.310     318     0.4660 344.70 2.19   0.000 0.000 19.095 11.667 7.432 19.647 11.826 7.827
WS7MET_125 2018-07-17 05:00:00 125 30483.0 16.800 17.090 17.240 17.240 17.260 60.960 59.840 9.250 9.380 4.03 0.00 17.520 16.730 14.350 11.100 12.580 16.840 17.110 17.260 17.320 17.280 9.380 9.510 4.03 0.00 0.5360   16.740 17.080 17.230 17.180 17.240 9.140 9.290     318     0.4390 342.00 3.71   0.000 0.000 19.131 11.675 7.469 19.672 11.778 7.900
WS7MET_125 2018-07-17 04:55:00 125 30483.0 16.870 17.140 17.270 17.290 17.300 61.100 59.590 9.340 9.370 3.09 0.00 17.530 16.730 14.350 11.100 12.590 16.940 17.150 17.280 17.390 17.330 9.460 9.610 4.03 0.00 0.3330   16.810 17.110 17.260 17.250 17.280 9.240 9.280     318     0.3010 335.50 0.92   0.000 0.000 19.216 11.746 7.475 19.734 11.770 7.975
WS7MET_125 2018-07-17 04:50:00 125 30483.0 16.970 17.200 17.330 17.350 17.330 60.350 59.670 9.260 9.440 2.42 0.00 17.530 16.730 14.350 11.100 12.590 17.080 17.250 17.370 17.450 17.390 9.370 9.600 2.68 0.00 0.4970   16.840 17.150 17.280 17.280 17.280 9.100 9.230     318     0.3530 335.00 1.37   0.000 0.000 19.339 11.683 7.668 19.809 11.826 7.989
WS7MET_125 2018-07-17 04:45:00 125 30483.0 17.050 17.270 17.400 17.390 17.410 59.590 59.000 9.140 9.310 1.34 0.00 17.540 16.730 14.350 11.100 12.590 17.150 17.290 17.420 17.490 17.440 9.360 9.430 1.34 0.00 0.3850   16.980 17.250 17.360 17.320 17.370 8.980 9.210     318     0.3200 338.30 2.57   0.000 0.000 19.437 11.589 7.854 19.859 11.722 8.142
WS7MET_125 2018-07-17 04:40:00 125 30483.0 17.060 17.310 17.450 17.490 17.460 59.180 58.460 9.050 9.270 0.34 0.00 17.550 16.730 14.350 11.100 12.590 17.110 17.350 17.490 17.590 17.530 9.230 9.370 1.34 0.00 0.5160   16.980 17.290 17.420 17.350 17.420 8.910 9.150     318     0.3970 342.00 5.89   0.000 0.000 19.449 11.519 7.939 19.985 11.691 8.302
WS7MET_125 2018-07-17 04:35:00 125 30483.0 17.110 17.390 17.520 17.550 17.550 59.540 58.270 9.180 9.280 0.00 0.00 17.550 16.730 14.350 11.100 12.590 17.150 17.430 17.550 17.660 17.570 9.350 9.360 0.00 0.00 0.5360   17.050 17.350 17.490 17.490 17.530 8.980 9.210     318     0.4050 351.00 2.01   0.000 0.000 19.511 11.620 7.894 20.061 11.699 8.371
WS7MET_125 2018-07-17 04:30:00 125 30483.0 17.200 17.480 17.600 17.620 17.590 59.210 58.060 9.180 9.290 0.00 0.00 17.550 16.730 14.350 11.100 12.590 17.280 17.520 17.630 17.690 17.620 9.370 9.490 0.00 0.00 0.5420   17.080 17.430 17.560 17.520 17.550 8.980 9.170     318     0.4320 349.30 0.67   0.000 0.000 19.622 11.620 8.004 20.150 11.707 8.451
WS7MET_125 2018-07-17 04:25:00 125 30483.0 17.280 17.580 17.690 17.700 17.700 58.560 57.560 9.100 9.240 0.00 0.00 17.560 16.730 14.350 11.100 12.580 17.350 17.610 17.720 17.760 17.750 9.250 9.330 0.00 0.00 0.5490   17.220 17.520 17.650 17.660 17.620 8.960 9.140     318     0.4070 339.40 6.62   0.000 0.000 19.722 11.558 8.173 20.252 11.667 8.595
WS7MET_125 2018-07-17 04:20:00 125 30483.0 17.310 17.630 17.750 17.740 17.780 58.710 57.510 9.170 9.270 0.00 0.00 17.570 16.740 14.350 11.100 12.570 17.390 17.650 17.780 17.800 17.820 9.340 9.390 0.00 0.00 0.4700   17.220 17.610 17.730 17.660 17.730 8.930 9.170     318     0.3620 334.60 1.89   0.000 0.000 19.759 11.612 8.159 20.303 11.691 8.627
WS7MET_125 2018-07-17 04:15:00 125 30483.0 17.360 17.640 17.760 17.750 17.790 58.480 57.220 9.160 9.200 0.00 0.00 17.570 16.730 14.350 11.100 12.590 17.450 17.650 17.780 17.830 17.820 9.250 9.300 0.00 0.00 0.5230   17.280 17.630 17.740 17.690 17.750 9.040 9.120     318     0.4490 334.30 5.70   0.000 0.000 19.822 11.604 8.230 20.316 11.636 8.691
WS7MET_125 2018-07-17 04:10:00 125 30483.0 17.330 17.650 17.770 17.780 17.790 58.310 57.120 9.080 9.200 0.00 0.00 17.570 16.730 14.340 11.100 12.600 17.390 17.660 17.780 17.830 17.820 9.290 9.240 0.00 0.00 0.5360   17.250 17.640 17.750 17.690 17.750 8.930 9.140     318     0.4850 338.40 1.08   0.000 0.000 19.784 11.542 8.248 20.354 11.636 8.728
WS7MET_125 2018-07-17 04:05:00 125 30483.0 17.340 17.650 17.780 17.820 17.810 58.720 57.340 9.190 9.290 0.00 0.00 17.580 16.730 14.340 11.100 12.600 17.390 17.660 17.800 17.900 17.820 9.380 9.410 0.00 0.00 0.6010   17.280 17.640 17.760 17.760 17.800 9.000 9.150     318     0.4980 340.10 2.31   0.000 0.000 19.797 11.628 8.172 20.405 11.707 8.705
WS7MET_125 2018-07-17 04:00:00 125 30483.0 17.370 17.650 17.790 17.800 17.830 58.160 57.000 9.080 9.180 0.00 0.00 17.590 16.730 14.340 11.100 12.600 17.420 17.660 17.800 17.860 17.870 9.180 9.270 0.00 0.00 0.4770   17.280 17.640 17.790 17.730 17.800 8.810 9.080     318     0.4130 340.40 1.54   0.000 0.000 19.834 11.542 8.299 20.380 11.620 8.763
WS7MET_125 2018-07-17 03:55:00 125 30483.0 17.400 17.670 17.820 17.850 17.830 57.850 56.680 9.030 9.150 0.00 0.00 17.600 16.730 14.340 11.100 12.600 17.490 17.700 17.840 17.930 17.870 9.120 9.290 0.00 0.00 0.4440   17.320 17.650 17.800 17.800 17.810 8.880 9.040     318     0.3600 339.00 1.49   0.000 0.000 19.872 11.503 8.376 20.444 11.597 8.856
WS7MET_125 2018-07-17 03:50:00 125 30483.0 17.540 17.770 17.900 17.910 17.890 57.810 56.720 9.150 9.220 0.00 0.00 17.600 16.730 14.340 11.100 12.600 17.630 17.830 17.950 17.970 17.960 9.320 9.380 0.00 0.00 0.4900   17.450 17.720 17.850 17.830 17.830 8.910 9.070     318     0.3750 339.20 1.25   0.000 0.000 20.048 11.597 8.458 20.521 11.652 8.882
WS7MET_125 2018-07-17 03:45:00 125 30483.0 17.580 17.850 17.970 17.990 17.990 57.200 56.240 9.030 9.160 0.00 0.00 17.610 16.730 14.330 11.100 12.600 17.660 17.880 17.990 18.070 18.020 9.200 9.230 0.00 0.00 0.5030   17.520 17.830 17.950 17.900 17.970 8.910 9.020     318     0.4130 343.40 5.36   0.000 0.000 20.099 11.503 8.602 20.625 11.604 9.025
WS7MET_125 2018-07-17 03:40:00 125 30483.0 17.620 17.880 18.000 18.050 18.040 57.430 56.150 9.130 9.190 0.00 0.00 17.610 16.730 14.330 11.100 12.600 17.660 17.900 18.020 18.140 18.060 9.330 9.350 0.00 0.00 0.4900   17.560 17.880 17.990 17.970 18.020 8.920 9.100     318     0.4490 346.40 0.64   0.000 0.000 20.150 11.581 8.578 20.703 11.628 9.078
WS7MET_125 2018-07-17 03:35:00 125 30483.0 17.680 17.920 18.050 18.080 18.060 57.780 56.430 9.270 9.300 0.00 0.00 17.610 16.730 14.330 11.090 12.610 17.760 17.970 18.080 18.140 18.070 9.410 9.430 0.00 0.00 0.5750   17.630 17.900 18.020 18.000 18.050 9.040 9.170     318     0.4860 343.00 2.00   0.000 0.000 20.226 11.691 8.539 20.742 11.715 9.037
WS7MET_125 2018-07-17 03:30:00 125 30483.0 17.700 17.970 18.100 18.100 18.120 57.500 56.300 9.220 9.280 0.00 0.00 17.620 16.730 14.330 11.100 12.610 17.760 17.980 18.100 18.170 18.140 9.350 9.430 0.00 0.00 0.5680   17.630 17.970 18.080 18.000 18.090 9.060 9.150     318     0.5090 342.60 0.44   0.000 0.000 20.252 11.652 8.607 20.768 11.699 9.076
WS7MET_125 2018-07-17 03:25:00 125 30483.0 17.740 18.000 18.120 18.110 18.120 57.410 56.370 9.230 9.310 0.00 0.00 17.630 16.730 14.330 11.090 12.610 17.830 18.010 18.150 18.170 18.140 9.380 9.390 0.00 0.00 0.5750   17.660 17.970 18.090 18.030 18.090 9.110 9.200     318     0.4540 342.30 0.75   0.000 0.000 20.303 11.659 8.647 20.781 11.722 9.067
WS7MET_125 2018-07-17 03:20:00 125 30483.0 17.790 18.020 18.170 18.130 18.170 56.660 56.050 9.090 9.250 0.00 0.00 17.630 16.730 14.330 11.090 12.610 17.860 18.040 18.190 18.210 18.210 9.310 9.370 0.00 0.00 0.4570   17.730 18.010 18.150 18.070 18.140 8.960 9.150     318     0.4070 336.10 2.62   0.000 0.000 20.367 11.550 8.827 20.807 11.675 9.145
WS7MET_125 2018-07-17 03:15:00 125 30483.0 17.840 18.070 18.230 18.220 18.230 56.170 55.460 9.000 9.170 0.00 0.00 17.640 16.730 14.330 11.090 12.610 17.900 18.090 18.260 18.310 18.270 9.190 9.330 0.00 0.00 0.4440   17.760 18.040 18.190 18.100 18.180 8.870 9.020     318     0.4200 338.50 2.21   0.000 0.000 20.431 11.480 8.955 20.925 11.612 9.320
WS7MET_125 2018-07-17 03:10:00 125 30483.0 17.860 18.090 18.280 18.280 18.320 56.080 55.120 9.000 9.130 0.00 0.00 17.640 16.730 14.330 11.090 12.610 17.930 18.100 18.300 18.340 18.340 9.090 9.230 0.00 0.00 0.4830   17.800 18.090 18.260 18.210 18.300 8.920 9.090     318     0.4370 340.30 3.54   0.000 0.000 20.457 11.480 8.985 21.004 11.581 9.427
WS7MET_125 2018-07-17 03:05:00 125 30483.0 17.840 18.110 18.310 18.330 18.320 56.120 54.980 8.990 9.140 0.00 0.00 17.650 16.730 14.330 11.090 12.610 17.900 18.140 18.330 18.410 18.340 9.150 9.240 0.00 0.00 0.4770   17.730 18.090 18.300 18.270 18.300 8.810 9.050     318     0.4300 345.40 1.06   0.000 0.000 20.431 11.472 8.965 21.070 11.589 9.486
WS7MET_125 2018-07-17 03:00:00 125 30483.0 17.920 18.180 18.360 18.370 18.360 56.210 54.840 9.090 9.140 0.00 0.00 17.650 16.730 14.330 11.090 12.620 18.000 18.220 18.380 18.440 18.390 9.300 9.280 0.00 0.00 0.5160   17.860 18.150 18.330 18.270 18.320 8.990 9.010     318     0.4480 344.00 1.61   0.000 0.000 20.534 11.550 8.992 21.123 11.589 9.539
WS7MET_125 2018-07-17 02:55:00 125 30483.0 17.980 18.250 18.430 18.440 18.420 56.070 54.750 9.110 9.190 0.00 0.00 17.660 16.730 14.330 11.090 12.620 18.070 18.290 18.470 18.510 18.460 9.390 9.390 0.00 0.00 0.4440   17.860 18.230 18.390 18.380 18.370 8.870 8.990     318     0.3900 341.60 1.25   0.000 0.000 20.612 11.565 9.055 21.216 11.628 9.600
WS7MET_125 2018-07-17 02:50:00 125 30483.0 18.100 18.340 18.510 18.530 18.520 55.170 54.130 8.980 9.100 0.00 0.00 17.660 16.730 14.330 11.090 12.620 18.170 18.380 18.540 18.610 18.550 9.290 9.350 0.00 0.00 0.5420   18.030 18.300 18.470 18.440 18.460 8.800 9.000     318     0.3970 341.40 0.48   0.000 0.000 20.768 11.464 9.310 21.336 11.558 9.787
WS7MET_125 2018-07-17 02:45:00 125 30483.0 18.150 18.410 18.570 18.590 18.580 55.000 53.980 8.980 9.120 0.00 0.00 17.670 16.730 14.330 11.090 12.620 18.210 18.420 18.590 18.680 18.620 9.090 9.240 0.00 0.00 0.5680   18.100 18.380 18.540 18.550 18.550 8.840 9.030     318     0.4830 344.50 2.24   0.000 0.000 20.833 11.464 9.375 21.416 11.573 9.856
WS7MET_125 2018-07-17 02:40:00 125 30483.0 18.150 18.420 18.600 18.620 18.640 54.760 53.810 8.920 9.100 0.00 0.00 17.670 16.730 14.330 11.090 12.620 18.240 18.430 18.620 18.680 18.660 9.030 9.160 0.00 0.00 0.5160   18.070 18.420 18.590 18.550 18.620 8.770 8.990     318     0.4560 343.10 3.77   0.000 0.000 20.833 11.418 9.425 21.456 11.558 9.911
WS7MET_125 2018-07-17 02:35:00 125 30483.0 18.220 18.460 18.630 18.640 18.640 54.820 53.730 9.000 9.090 0.00 0.00 17.680 16.730 14.330 11.090 12.620 18.270 18.500 18.660 18.720 18.660 9.130 9.160 0.00 0.00 0.5230   18.140 18.420 18.610 18.580 18.620 8.900 8.980     318     0.4420 342.80 1.23   0.000 0.000 20.925 11.480 9.454 21.483 11.550 9.940
WS7MET_125 2018-07-17 02:30:00 125 30483.0 18.260 18.520 18.690 18.690 18.700 54.630 53.650 8.980 9.120 0.00 0.00 17.680 16.730 14.320 11.090 12.620 18.310 18.550 18.710 18.820 18.730 9.140 9.220 0.00 0.00 0.6080   18.210 18.500 18.660 18.580 18.660 8.830 8.980     318     0.4570 343.50 1.56   0.000 0.000 20.978 11.464 9.518 21.550 11.573 9.989
WS7MET_125 2018-07-17 02:25:00 125 30483.0 18.220 18.520 18.730 18.750 18.760 54.890 53.500 9.020 9.130 0.00 0.00 17.690 16.730 14.320 11.090 12.620 18.310 18.540 18.740 18.850 18.820 9.180 9.240 0.00 0.00 0.5750   18.170 18.510 18.720 18.650 18.730 8.770 9.030     318     0.4590 347.00 1.75   0.000 0.000 20.925 11.495 9.439 21.631 11.581 10.059
WS7MET_125 2018-07-17 02:20:00 125 30483.0 18.300 18.560 18.780 18.790 18.790 54.800 53.440 9.070 9.150 0.00 0.00 17.690 16.720 14.310 11.090 12.630 18.380 18.610 18.810 18.850 18.840 9.230 9.410 0.00 0.00 0.4970   18.210 18.530 18.750 18.750 18.750 8.930 9.060     318     0.4200 346.50 2.67   0.000 0.000 21.030 11.534 9.506 21.685 11.597 10.097
WS7MET_125 2018-07-17 02:15:00 125 30483.0 18.380 18.650 18.840 18.800 18.880 53.930 53.120 8.900 9.070 0.00 0.00 17.700 16.720 14.320 11.090 12.620 18.440 18.690 18.860 18.850 18.940 9.050 9.110 0.00 0.00 0.3990   18.310 18.610 18.810 18.750 18.850 8.760 9.030     318     0.3660 341.90 2.36   0.000 0.000 21.136 11.402 9.737 21.699 11.534 10.172
WS7MET_125 2018-07-17 02:10:00 125 30483.0 18.430 18.700 18.860 18.800 18.900 53.620 53.130 8.870 9.070 0.00 0.00 17.700 16.730 14.310 11.090 12.630 18.510 18.710 18.860 18.850 18.920 8.970 9.140 0.00 0.00 0.4770   18.340 18.690 18.850 18.720 18.870 8.800 8.980     318     0.4190 343.20 1.24   0.000 0.000 21.202 11.379 9.834 21.699 11.534 10.170
WS7MET_125 2018-07-17 02:05:00 125 30483.0 18.480 18.710 18.880 18.870 18.900 54.270 53.420 9.090 9.220 0.00 0.00 17.700 16.730 14.310 11.090 12.630 18.580 18.740 18.900 18.960 18.940 9.310 9.520 0.00 0.00 0.6530   18.380 18.700 18.860 18.790 18.870 8.720 9.000     318     0.4970 342.70 1.08   0.000 0.000 21.269 11.550 9.726 21.794 11.652 10.152
WS7MET_125 2018-07-17 02:00:00 125 30483.0 18.540 18.790 18.950 18.940 18.960 54.380 53.450 9.180 9.290 0.00 0.00 17.720 16.720 14.310 11.090 12.630 18.650 18.810 18.970 18.990 19.020 9.380 9.500 0.00 0.00 0.5750   18.480 18.750 18.900 18.850 18.890 8.940 9.200     318     0.4730 340.60 0.76   0.000 0.000 21.349 11.620 9.739 21.889 11.707 10.190
WS7MET_125 2018-07-17 01:55:00 125 30483.0 18.600 18.850 19.000 19.010 19.010 53.430 52.830 8.970 9.180 0.00 0.00 17.720 16.720 14.310 11.090 12.630 18.650 18.880 19.040 19.060 19.030 9.200 9.390 0.00 0.00 0.5100   18.550 18.820 18.970 18.920 18.990 8.850 9.070     318     0.3760 340.10 3.68   0.000 0.000 21.429 11.457 9.980 21.985 11.620 10.370
WS7MET_125 2018-07-17 01:50:00 125 30483.0 18.650 18.920 19.070 19.080 19.090 54.010 52.830 9.180 9.250 0.00 0.00 17.720 16.720 14.310 11.090 12.640 18.750 18.960 19.080 19.160 19.150 9.370 9.470 0.00 0.00 0.6010   18.550 18.880 19.040 18.990 19.030 8.900 9.050     318     0.4690 346.50 4.01   0.000 0.000 21.496 11.620 9.886 22.081 11.675 10.416
WS7MET_125 2018-07-17 01:45:00 125 30483.0 18.740 18.980 19.110 19.130 19.110 53.790 52.800 9.200 9.290 0.00 0.00 17.730 16.710 14.310 11.090 12.640 18.820 19.000 19.120 19.190 19.150 9.370 9.450 0.00 0.00 0.6080   18.680 18.960 19.090 19.020 19.080 8.980 9.190     318     0.5160 347.90 1.70   0.000 0.000 21.618 11.636 9.990 22.150 11.707 10.455
WS7MET_125 2018-07-17 01:40:00 125 30483.0 18.780 19.040 19.170 19.190 19.150 53.470 52.540 9.140 9.270 0.00 0.00 17.730 16.710 14.310 11.090 12.640 18.850 19.080 19.230 19.260 19.240 9.290 9.370 0.00 0.00 0.5750   18.680 19.000 19.120 19.090 19.100 8.960 9.160     318     0.5280 349.40 1.69   0.000 0.000 21.672 11.589 10.084 22.233 11.691 10.552
WS7MET_125 2018-07-17 01:35:00 125 30483.0 18.730 19.090 19.260 19.300 19.270 53.890 52.520 9.220 9.370 0.00 0.00 17.730 16.700 14.310 11.090 12.640 18.820 19.110 19.290 19.400 19.300 9.460 9.640 0.00 0.00 0.5950   18.680 19.070 19.230 19.190 19.240 8.980 9.160     318     0.4660 343.60 6.73   0.000 0.000 21.604 11.652 9.962 22.386 11.770 10.629
WS7MET_125 2018-07-17 01:30:00 125 30483.0 18.750 19.140 19.340 19.390 19.360 54.590 52.440 9.430 9.420 0.00 0.00 17.740 16.700 14.310 11.090 12.640 18.850 19.160 19.370 19.470 19.450 9.600 9.600 0.00 0.00 0.6010   18.650 19.110 19.300 19.330 19.290 9.250 9.290     318     0.5120 351.20 0.84   0.000 0.000 21.631 11.818 9.823 22.512 11.810 10.707
WS7MET_125 2018-07-17 01:25:00 125 30483.0 18.800 19.160 19.360 19.400 19.430 54.030 51.960 9.320 9.300 0.00 0.00 17.740 16.700 14.310 11.090 12.640 18.850 19.170 19.380 19.470 19.480 9.580 9.460 0.00 0.00 0.6270   18.750 19.160 19.340 19.370 19.370 9.160 9.160     318     0.5490 353.70 6.05   0.000 0.000 21.699 11.730 9.975 22.526 11.715 10.821
WS7MET_125 2018-07-17 01:20:00 125 30483.0 18.880 19.170 19.350 19.380 19.390 52.960 51.210 9.100 9.070 0.00 0.00 17.740 16.700 14.310 11.090 12.640 18.990 19.180 19.360 19.430 19.430 9.350 9.290 0.00 0.00 0.5490   18.820 19.160 19.330 19.330 19.360 8.790 8.890     318     0.4370 347.30 2.97   0.000 0.000 21.808 11.558 10.258 22.498 11.534 10.977
WS7MET_125 2018-07-17 01:15:00 125 30483.0 18.940 19.190 19.360 19.380 19.370 52.020 50.800 8.890 8.940 0.00 0.00 17.740 16.700 14.310 11.090 12.640 19.020 19.230 19.380 19.430 19.400 9.080 9.130 0.00 0.00 0.5950   18.820 19.160 19.360 19.300 19.330 8.750 8.840     318     0.5090 344.70 3.13   0.000 0.000 21.889 11.395 10.503 22.498 11.433 11.069
WS7MET_125<